<?xml version="1.0" encoding="UTF-8" standalone="no" ?>
<gpx xmlns="http://www.topografix.com/GPX/1/1" xmlns:xsi="http://www.w3.org/2001/XMLSchema-instance" xsi:schemaLocation="http://www.topografix.com/GPX/1/1 http://www.topografix.com/GPX/1/1/gpx.xsd" version="1.1" creator="VisuGPX - https://www.visugpx.com">
  <metadata>
    <name>Refuge de Campana de Cloutou</name>
    <desc><![CDATA[Artigues]]></desc>
  </metadata>
  <trk>
    <name><![CDATA[Refuge de Campana de Cloutou]]></name>
    <cmt><![CDATA[Artigues]]></cmt>
    <desc><![CDATA[Artigues]]></desc>
    <trkseg>
      <trkpt lat="42.91723" lon="0.20901">
        <ele>1403.922</ele>
        <time>2022-07-03T05:57:41Z</time>
      </trkpt>
      <trkpt lat="42.91719" lon="0.20912">
        <ele>1414.062</ele>
        <time>2022-07-03T05:57:59Z</time>
      </trkpt>
      <trkpt lat="42.91716" lon="0.20917">
        <ele>1424.008</ele>
        <time>2022-07-03T05:58:02Z</time>
      </trkpt>
      <trkpt lat="42.91712" lon="0.20923">
        <ele>1423.709</ele>
        <time>2022-07-03T05:58:06Z</time>
      </trkpt>
      <trkpt lat="42.91707" lon="0.20927">
        <ele>1423.473</ele>
        <time>2022-07-03T05:58:10Z</time>
      </trkpt>
      <trkpt lat="42.91702" lon="0.20931">
        <ele>1423.452</ele>
        <time>2022-07-03T05:58:13Z</time>
      </trkpt>
      <trkpt lat="42.91696" lon="0.20935">
        <ele>1423.279</ele>
        <time>2022-07-03T05:58:17Z</time>
      </trkpt>
      <trkpt lat="42.91693" lon="0.20939">
        <ele>1423.032</ele>
        <time>2022-07-03T05:58:21Z</time>
      </trkpt>
      <trkpt lat="42.91688" lon="0.20943">
        <ele>1422.422</ele>
        <time>2022-07-03T05:58:25Z</time>
      </trkpt>
      <trkpt lat="42.91683" lon="0.20943">
        <ele>1422.52</ele>
        <time>2022-07-03T05:58:30Z</time>
      </trkpt>
      <trkpt lat="42.91679" lon="0.20941">
        <ele>1422.542</ele>
        <time>2022-07-03T05:58:34Z</time>
      </trkpt>
      <trkpt lat="42.91674" lon="0.20937">
        <ele>1422.574</ele>
        <time>2022-07-03T05:58:39Z</time>
      </trkpt>
      <trkpt lat="42.91671" lon="0.20933">
        <ele>1422.649</ele>
        <time>2022-07-03T05:58:43Z</time>
      </trkpt>
      <trkpt lat="42.91667" lon="0.20928">
        <ele>1422.868</ele>
        <time>2022-07-03T05:58:47Z</time>
      </trkpt>
      <trkpt lat="42.91667" lon="0.20922">
        <ele>1422.842</ele>
        <time>2022-07-03T05:58:54Z</time>
      </trkpt>
      <trkpt lat="42.91665" lon="0.20915">
        <ele>1422.826</ele>
        <time>2022-07-03T05:58:58Z</time>
      </trkpt>
      <trkpt lat="42.91661" lon="0.2091">
        <ele>1422.709</ele>
        <time>2022-07-03T05:59:02Z</time>
      </trkpt>
      <trkpt lat="42.9166" lon="0.20904">
        <ele>1421.937</ele>
        <time>2022-07-03T05:59:06Z</time>
      </trkpt>
      <trkpt lat="42.91656" lon="0.20904">
        <ele>1420.856</ele>
        <time>2022-07-03T05:59:10Z</time>
      </trkpt>
      <trkpt lat="42.91653" lon="0.20911">
        <ele>1420.063</ele>
        <time>2022-07-03T05:59:13Z</time>
      </trkpt>
      <trkpt lat="42.91656" lon="0.20919">
        <ele>1419.136</ele>
        <time>2022-07-03T05:59:17Z</time>
      </trkpt>
      <trkpt lat="42.91657" lon="0.20926">
        <ele>1418.366</ele>
        <time>2022-07-03T05:59:22Z</time>
      </trkpt>
      <trkpt lat="42.91656" lon="0.20933">
        <ele>1417.714</ele>
        <time>2022-07-03T05:59:26Z</time>
      </trkpt>
      <trkpt lat="42.91651" lon="0.20936">
        <ele>1417.266</ele>
        <time>2022-07-03T05:59:35Z</time>
      </trkpt>
      <trkpt lat="42.91651" lon="0.20929">
        <ele>1416.718</ele>
        <time>2022-07-03T05:59:45Z</time>
      </trkpt>
      <trkpt lat="42.91646" lon="0.20927">
        <ele>1416.243</ele>
        <time>2022-07-03T05:59:52Z</time>
      </trkpt>
      <trkpt lat="42.91641" lon="0.20928">
        <ele>1416.288</ele>
        <time>2022-07-03T05:59:58Z</time>
      </trkpt>
      <trkpt lat="42.91636" lon="0.20925">
        <ele>1416.524</ele>
        <time>2022-07-03T06:00:04Z</time>
      </trkpt>
      <trkpt lat="42.91634" lon="0.20931">
        <ele>1416.526</ele>
        <time>2022-07-03T06:00:11Z</time>
      </trkpt>
      <trkpt lat="42.91633" lon="0.20939">
        <ele>1417.209</ele>
        <time>2022-07-03T06:00:16Z</time>
      </trkpt>
      <trkpt lat="42.91633" lon="0.20946">
        <ele>1418.039</ele>
        <time>2022-07-03T06:00:23Z</time>
      </trkpt>
      <trkpt lat="42.91635" lon="0.20952">
        <ele>1418.548</ele>
        <time>2022-07-03T06:00:29Z</time>
      </trkpt>
      <trkpt lat="42.91636" lon="0.2096">
        <ele>1418.515</ele>
        <time>2022-07-03T06:00:35Z</time>
      </trkpt>
      <trkpt lat="42.91638" lon="0.20965">
        <ele>1418.588</ele>
        <time>2022-07-03T06:00:39Z</time>
      </trkpt>
      <trkpt lat="42.91639" lon="0.20971">
        <ele>1418.148</ele>
        <time>2022-07-03T06:00:43Z</time>
      </trkpt>
      <trkpt lat="42.91639" lon="0.20979">
        <ele>1417.546</ele>
        <time>2022-07-03T06:00:48Z</time>
      </trkpt>
      <trkpt lat="42.9164" lon="0.20985">
        <ele>1417.468</ele>
        <time>2022-07-03T06:00:55Z</time>
      </trkpt>
      <trkpt lat="42.91638" lon="0.20991">
        <ele>1417.42</ele>
        <time>2022-07-03T06:01:00Z</time>
      </trkpt>
      <trkpt lat="42.91633" lon="0.2099">
        <ele>1417.425</ele>
        <time>2022-07-03T06:01:07Z</time>
      </trkpt>
      <trkpt lat="42.91628" lon="0.20991">
        <ele>1417.813</ele>
        <time>2022-07-03T06:01:11Z</time>
      </trkpt>
      <trkpt lat="42.91626" lon="0.21">
        <ele>1418.643</ele>
        <time>2022-07-03T06:01:20Z</time>
      </trkpt>
      <trkpt lat="42.91626" lon="0.21007">
        <ele>1419.907</ele>
        <time>2022-07-03T06:01:23Z</time>
      </trkpt>
      <trkpt lat="42.91621" lon="0.2101">
        <ele>1420.709</ele>
        <time>2022-07-03T06:01:26Z</time>
      </trkpt>
      <trkpt lat="42.91616" lon="0.21017">
        <ele>1422.532</ele>
        <time>2022-07-03T06:01:33Z</time>
      </trkpt>
      <trkpt lat="42.9161" lon="0.21018">
        <ele>1422.621</ele>
        <time>2022-07-03T06:01:38Z</time>
      </trkpt>
      <trkpt lat="42.91609" lon="0.21025">
        <ele>1422.698</ele>
        <time>2022-07-03T06:01:43Z</time>
      </trkpt>
      <trkpt lat="42.91607" lon="0.21034">
        <ele>1422.641</ele>
        <time>2022-07-03T06:01:52Z</time>
      </trkpt>
      <trkpt lat="42.91606" lon="0.2104">
        <ele>1422.631</ele>
        <time>2022-07-03T06:01:57Z</time>
      </trkpt>
      <trkpt lat="42.91605" lon="0.21047">
        <ele>1422.639</ele>
        <time>2022-07-03T06:02:01Z</time>
      </trkpt>
      <trkpt lat="42.91605" lon="0.21053">
        <ele>1422.931</ele>
        <time>2022-07-03T06:02:05Z</time>
      </trkpt>
      <trkpt lat="42.91604" lon="0.21061">
        <ele>1423.353</ele>
        <time>2022-07-03T06:02:13Z</time>
      </trkpt>
      <trkpt lat="42.91604" lon="0.21067">
        <ele>1423.938</ele>
        <time>2022-07-03T06:02:16Z</time>
      </trkpt>
      <trkpt lat="42.91603" lon="0.21074">
        <ele>1424.924</ele>
        <time>2022-07-03T06:02:26Z</time>
      </trkpt>
      <trkpt lat="42.91602" lon="0.21083">
        <ele>1425.804</ele>
        <time>2022-07-03T06:02:32Z</time>
      </trkpt>
      <trkpt lat="42.91603" lon="0.2109">
        <ele>1427.014</ele>
        <time>2022-07-03T06:02:38Z</time>
      </trkpt>
      <trkpt lat="42.91601" lon="0.21097">
        <ele>1429.109</ele>
        <time>2022-07-03T06:02:43Z</time>
      </trkpt>
      <trkpt lat="42.91601" lon="0.21103">
        <ele>1429.463</ele>
        <time>2022-07-03T06:02:47Z</time>
      </trkpt>
      <trkpt lat="42.91598" lon="0.21109">
        <ele>1430.142</ele>
        <time>2022-07-03T06:02:52Z</time>
      </trkpt>
      <trkpt lat="42.91596" lon="0.21116">
        <ele>1430.789</ele>
        <time>2022-07-03T06:03:00Z</time>
      </trkpt>
      <trkpt lat="42.91594" lon="0.21122">
        <ele>1431.332</ele>
        <time>2022-07-03T06:03:13Z</time>
      </trkpt>
      <trkpt lat="42.91591" lon="0.21129">
        <ele>1432.432</ele>
        <time>2022-07-03T06:03:19Z</time>
      </trkpt>
      <trkpt lat="42.91594" lon="0.21134">
        <ele>1434.42</ele>
        <time>2022-07-03T06:03:26Z</time>
      </trkpt>
      <trkpt lat="42.91591" lon="0.21141">
        <ele>1436.122</ele>
        <time>2022-07-03T06:03:35Z</time>
      </trkpt>
      <trkpt lat="42.9159" lon="0.21147">
        <ele>1437.384</ele>
        <time>2022-07-03T06:03:45Z</time>
      </trkpt>
      <trkpt lat="42.91584" lon="0.21143">
        <ele>1438.979</ele>
        <time>2022-07-03T06:03:57Z</time>
      </trkpt>
      <trkpt lat="42.91583" lon="0.21149">
        <ele>1440.943</ele>
        <time>2022-07-03T06:04:04Z</time>
      </trkpt>
      <trkpt lat="42.91583" lon="0.21157">
        <ele>1444.564</ele>
        <time>2022-07-03T06:04:14Z</time>
      </trkpt>
      <trkpt lat="42.91585" lon="0.21164">
        <ele>1445.51</ele>
        <time>2022-07-03T06:04:23Z</time>
      </trkpt>
      <trkpt lat="42.91581" lon="0.21165">
        <ele>1447.609</ele>
        <time>2022-07-03T06:04:38Z</time>
      </trkpt>
      <trkpt lat="42.91575" lon="0.21169">
        <ele>1448.535</ele>
        <time>2022-07-03T06:04:48Z</time>
      </trkpt>
      <trkpt lat="42.91582" lon="0.21167">
        <ele>1452.124</ele>
        <time>2022-07-03T06:09:07Z</time>
      </trkpt>
      <trkpt lat="42.91571" lon="0.21168">
        <ele>1454.881</ele>
        <time>2022-07-03T06:11:27Z</time>
      </trkpt>
      <trkpt lat="42.9157" lon="0.21174">
        <ele>1455.784</ele>
        <time>2022-07-03T06:11:37Z</time>
      </trkpt>
      <trkpt lat="42.91565" lon="0.21176">
        <ele>1456.494</ele>
        <time>2022-07-03T06:11:45Z</time>
      </trkpt>
      <trkpt lat="42.91568" lon="0.21182">
        <ele>1457.172</ele>
        <time>2022-07-03T06:11:50Z</time>
      </trkpt>
      <trkpt lat="42.9157" lon="0.21187">
        <ele>1458.784</ele>
        <time>2022-07-03T06:12:00Z</time>
      </trkpt>
      <trkpt lat="42.9157" lon="0.21194">
        <ele>1459.326</ele>
        <time>2022-07-03T06:12:11Z</time>
      </trkpt>
      <trkpt lat="42.91566" lon="0.21195">
        <ele>1460.811</ele>
        <time>2022-07-03T06:12:21Z</time>
      </trkpt>
      <trkpt lat="42.91567" lon="0.21202">
        <ele>1462.935</ele>
        <time>2022-07-03T06:12:28Z</time>
      </trkpt>
      <trkpt lat="42.91569" lon="0.21206">
        <ele>1464.986</ele>
        <time>2022-07-03T06:12:34Z</time>
      </trkpt>
      <trkpt lat="42.91574" lon="0.2121">
        <ele>1466.714</ele>
        <time>2022-07-03T06:12:43Z</time>
      </trkpt>
      <trkpt lat="42.91571" lon="0.21216">
        <ele>1468.209</ele>
        <time>2022-07-03T06:12:52Z</time>
      </trkpt>
      <trkpt lat="42.91575" lon="0.21219">
        <ele>1469.474</ele>
        <time>2022-07-03T06:12:59Z</time>
      </trkpt>
      <trkpt lat="42.91573" lon="0.21228">
        <ele>1471.943</ele>
        <time>2022-07-03T06:13:08Z</time>
      </trkpt>
      <trkpt lat="42.9157" lon="0.21233">
        <ele>1473.36</ele>
        <time>2022-07-03T06:13:13Z</time>
      </trkpt>
      <trkpt lat="42.91566" lon="0.21233">
        <ele>1474.873</ele>
        <time>2022-07-03T06:13:20Z</time>
      </trkpt>
      <trkpt lat="42.9156" lon="0.21234">
        <ele>1475.233</ele>
        <time>2022-07-03T06:13:26Z</time>
      </trkpt>
      <trkpt lat="42.91555" lon="0.21231">
        <ele>1476.481</ele>
        <time>2022-07-03T06:13:32Z</time>
      </trkpt>
      <trkpt lat="42.91557" lon="0.21238">
        <ele>1477.673</ele>
        <time>2022-07-03T06:13:38Z</time>
      </trkpt>
      <trkpt lat="42.91559" lon="0.21244">
        <ele>1478.785</ele>
        <time>2022-07-03T06:13:46Z</time>
      </trkpt>
      <trkpt lat="42.91559" lon="0.21251">
        <ele>1479.75</ele>
        <time>2022-07-03T06:13:53Z</time>
      </trkpt>
      <trkpt lat="42.91562" lon="0.21257">
        <ele>1480.683</ele>
        <time>2022-07-03T06:14:00Z</time>
      </trkpt>
      <trkpt lat="42.91565" lon="0.21261">
        <ele>1481.525</ele>
        <time>2022-07-03T06:14:04Z</time>
      </trkpt>
      <trkpt lat="42.91566" lon="0.21268">
        <ele>1482.517</ele>
        <time>2022-07-03T06:14:09Z</time>
      </trkpt>
      <trkpt lat="42.91568" lon="0.21274">
        <ele>1483.209</ele>
        <time>2022-07-03T06:14:16Z</time>
      </trkpt>
      <trkpt lat="42.9157" lon="0.2128">
        <ele>1483.739</ele>
        <time>2022-07-03T06:14:23Z</time>
      </trkpt>
      <trkpt lat="42.91571" lon="0.21287">
        <ele>1484.648</ele>
        <time>2022-07-03T06:14:32Z</time>
      </trkpt>
      <trkpt lat="42.91574" lon="0.21292">
        <ele>1486.015</ele>
        <time>2022-07-03T06:14:47Z</time>
      </trkpt>
      <trkpt lat="42.91577" lon="0.21297">
        <ele>1487.688</ele>
        <time>2022-07-03T06:14:58Z</time>
      </trkpt>
      <trkpt lat="42.91581" lon="0.213">
        <ele>1489.628</ele>
        <time>2022-07-03T06:15:04Z</time>
      </trkpt>
      <trkpt lat="42.91583" lon="0.21306">
        <ele>1491.726</ele>
        <time>2022-07-03T06:15:10Z</time>
      </trkpt>
      <trkpt lat="42.91585" lon="0.21312">
        <ele>1493.168</ele>
        <time>2022-07-03T06:15:20Z</time>
      </trkpt>
      <trkpt lat="42.91584" lon="0.21319">
        <ele>1494.21</ele>
        <time>2022-07-03T06:15:37Z</time>
      </trkpt>
      <trkpt lat="42.91587" lon="0.21324">
        <ele>1495.845</ele>
        <time>2022-07-03T06:15:46Z</time>
      </trkpt>
      <trkpt lat="42.91591" lon="0.21333">
        <ele>1499.524</ele>
        <time>2022-07-03T06:16:10Z</time>
      </trkpt>
      <trkpt lat="42.91593" lon="0.21339">
        <ele>1501.404</ele>
        <time>2022-07-03T06:16:24Z</time>
      </trkpt>
      <trkpt lat="42.91589" lon="0.21343">
        <ele>1505.314</ele>
        <time>2022-07-03T06:16:33Z</time>
      </trkpt>
      <trkpt lat="42.91584" lon="0.21346">
        <ele>1506.609</ele>
        <time>2022-07-03T06:16:37Z</time>
      </trkpt>
      <trkpt lat="42.91587" lon="0.21354">
        <ele>1509.333</ele>
        <time>2022-07-03T06:16:54Z</time>
      </trkpt>
      <trkpt lat="42.9159" lon="0.21359">
        <ele>1509.722</ele>
        <time>2022-07-03T06:17:05Z</time>
      </trkpt>
      <trkpt lat="42.91586" lon="0.21362">
        <ele>1511.389</ele>
        <time>2022-07-03T06:17:13Z</time>
      </trkpt>
      <trkpt lat="42.91586" lon="0.21369">
        <ele>1513.772</ele>
        <time>2022-07-03T06:17:22Z</time>
      </trkpt>
      <trkpt lat="42.9159" lon="0.21372">
        <ele>1515.622</ele>
        <time>2022-07-03T06:17:30Z</time>
      </trkpt>
      <trkpt lat="42.91586" lon="0.21375">
        <ele>1517.12</ele>
        <time>2022-07-03T06:17:41Z</time>
      </trkpt>
      <trkpt lat="42.9159" lon="0.21378">
        <ele>1518.832</ele>
        <time>2022-07-03T06:17:47Z</time>
      </trkpt>
      <trkpt lat="42.91586" lon="0.21382">
        <ele>1520.634</ele>
        <time>2022-07-03T06:17:55Z</time>
      </trkpt>
      <trkpt lat="42.9159" lon="0.21387">
        <ele>1521.819</ele>
        <time>2022-07-03T06:18:04Z</time>
      </trkpt>
      <trkpt lat="42.91588" lon="0.21393">
        <ele>1522.861</ele>
        <time>2022-07-03T06:18:12Z</time>
      </trkpt>
      <trkpt lat="42.91586" lon="0.21401">
        <ele>1524.221</ele>
        <time>2022-07-03T06:18:23Z</time>
      </trkpt>
      <trkpt lat="42.91583" lon="0.21408">
        <ele>1525.713</ele>
        <time>2022-07-03T06:18:33Z</time>
      </trkpt>
      <trkpt lat="42.91581" lon="0.21414">
        <ele>1527.509</ele>
        <time>2022-07-03T06:18:42Z</time>
      </trkpt>
      <trkpt lat="42.91578" lon="0.2142">
        <ele>1530.587</ele>
        <time>2022-07-03T06:18:49Z</time>
      </trkpt>
      <trkpt lat="42.91577" lon="0.21426">
        <ele>1531.676</ele>
        <time>2022-07-03T06:18:55Z</time>
      </trkpt>
      <trkpt lat="42.91577" lon="0.21433">
        <ele>1533.273</ele>
        <time>2022-07-03T06:19:01Z</time>
      </trkpt>
      <trkpt lat="42.91573" lon="0.21436">
        <ele>1534.496</ele>
        <time>2022-07-03T06:19:07Z</time>
      </trkpt>
      <trkpt lat="42.91571" lon="0.21442">
        <ele>1535.556</ele>
        <time>2022-07-03T06:19:17Z</time>
      </trkpt>
      <trkpt lat="42.91569" lon="0.21448">
        <ele>1536.474</ele>
        <time>2022-07-03T06:19:26Z</time>
      </trkpt>
      <trkpt lat="42.91569" lon="0.21455">
        <ele>1537.676</ele>
        <time>2022-07-03T06:19:32Z</time>
      </trkpt>
      <trkpt lat="42.91568" lon="0.21462">
        <ele>1539.188</ele>
        <time>2022-07-03T06:19:37Z</time>
      </trkpt>
      <trkpt lat="42.91564" lon="0.21466">
        <ele>1540.133</ele>
        <time>2022-07-03T06:20:05Z</time>
      </trkpt>
      <trkpt lat="42.91562" lon="0.21472">
        <ele>1540.672</ele>
        <time>2022-07-03T06:22:20Z</time>
      </trkpt>
      <trkpt lat="42.91561" lon="0.21478">
        <ele>1541.213</ele>
        <time>2022-07-03T06:22:25Z</time>
      </trkpt>
      <trkpt lat="42.91559" lon="0.21485">
        <ele>1541.614</ele>
        <time>2022-07-03T06:22:29Z</time>
      </trkpt>
      <trkpt lat="42.91557" lon="0.21493">
        <ele>1541.809</ele>
        <time>2022-07-03T06:22:35Z</time>
      </trkpt>
      <trkpt lat="42.91554" lon="0.21499">
        <ele>1542.088</ele>
        <time>2022-07-03T06:22:40Z</time>
      </trkpt>
      <trkpt lat="42.91553" lon="0.21505">
        <ele>1542.357</ele>
        <time>2022-07-03T06:22:45Z</time>
      </trkpt>
      <trkpt lat="42.91551" lon="0.21511">
        <ele>1542.744</ele>
        <time>2022-07-03T06:22:50Z</time>
      </trkpt>
      <trkpt lat="42.91548" lon="0.21516">
        <ele>1543.087</ele>
        <time>2022-07-03T06:22:55Z</time>
      </trkpt>
      <trkpt lat="42.91547" lon="0.21522">
        <ele>1543.327</ele>
        <time>2022-07-03T06:23:02Z</time>
      </trkpt>
      <trkpt lat="42.91547" lon="0.21528">
        <ele>1543.735</ele>
        <time>2022-07-03T06:23:05Z</time>
      </trkpt>
      <trkpt lat="42.91546" lon="0.21535">
        <ele>1544.437</ele>
        <time>2022-07-03T06:23:11Z</time>
      </trkpt>
      <trkpt lat="42.91544" lon="0.21541">
        <ele>1544.939</ele>
        <time>2022-07-03T06:23:16Z</time>
      </trkpt>
      <trkpt lat="42.91543" lon="0.21548">
        <ele>1545.464</ele>
        <time>2022-07-03T06:23:23Z</time>
      </trkpt>
      <trkpt lat="42.91541" lon="0.21555">
        <ele>1546.058</ele>
        <time>2022-07-03T06:23:28Z</time>
      </trkpt>
      <trkpt lat="42.91539" lon="0.21562">
        <ele>1546.452</ele>
        <time>2022-07-03T06:23:33Z</time>
      </trkpt>
      <trkpt lat="42.91538" lon="0.21569">
        <ele>1546.817</ele>
        <time>2022-07-03T06:23:38Z</time>
      </trkpt>
      <trkpt lat="42.91536" lon="0.21575">
        <ele>1547.109</ele>
        <time>2022-07-03T06:23:42Z</time>
      </trkpt>
      <trkpt lat="42.91534" lon="0.21581">
        <ele>1547.326</ele>
        <time>2022-07-03T06:23:46Z</time>
      </trkpt>
      <trkpt lat="42.91531" lon="0.21586">
        <ele>1547.465</ele>
        <time>2022-07-03T06:23:51Z</time>
      </trkpt>
      <trkpt lat="42.91528" lon="0.21591">
        <ele>1547.572</ele>
        <time>2022-07-03T06:23:54Z</time>
      </trkpt>
      <trkpt lat="42.91526" lon="0.21596">
        <ele>1547.675</ele>
        <time>2022-07-03T06:23:58Z</time>
      </trkpt>
      <trkpt lat="42.91523" lon="0.21602">
        <ele>1547.895</ele>
        <time>2022-07-03T06:24:04Z</time>
      </trkpt>
      <trkpt lat="42.9152" lon="0.21609">
        <ele>1548.053</ele>
        <time>2022-07-03T06:24:08Z</time>
      </trkpt>
      <trkpt lat="42.91516" lon="0.21615">
        <ele>1548.155</ele>
        <time>2022-07-03T06:24:12Z</time>
      </trkpt>
      <trkpt lat="42.91513" lon="0.2162">
        <ele>1548.157</ele>
        <time>2022-07-03T06:24:16Z</time>
      </trkpt>
      <trkpt lat="42.91508" lon="0.21624">
        <ele>1548.172</ele>
        <time>2022-07-03T06:24:21Z</time>
      </trkpt>
      <trkpt lat="42.91506" lon="0.21629">
        <ele>1548.139</ele>
        <time>2022-07-03T06:24:26Z</time>
      </trkpt>
      <trkpt lat="42.91502" lon="0.21634">
        <ele>1548.001</ele>
        <time>2022-07-03T06:24:30Z</time>
      </trkpt>
      <trkpt lat="42.91498" lon="0.21638">
        <ele>1548.021</ele>
        <time>2022-07-03T06:24:36Z</time>
      </trkpt>
      <trkpt lat="42.91494" lon="0.21642">
        <ele>1548.009</ele>
        <time>2022-07-03T06:24:41Z</time>
      </trkpt>
      <trkpt lat="42.91491" lon="0.21646">
        <ele>1548.174</ele>
        <time>2022-07-03T06:24:44Z</time>
      </trkpt>
      <trkpt lat="42.91487" lon="0.21651">
        <ele>1548.433</ele>
        <time>2022-07-03T06:24:50Z</time>
      </trkpt>
      <trkpt lat="42.91484" lon="0.21657">
        <ele>1548.65</ele>
        <time>2022-07-03T06:24:57Z</time>
      </trkpt>
      <trkpt lat="42.91478" lon="0.21661">
        <ele>1548.823</ele>
        <time>2022-07-03T06:25:03Z</time>
      </trkpt>
      <trkpt lat="42.91474" lon="0.21666">
        <ele>1549.433</ele>
        <time>2022-07-03T06:25:08Z</time>
      </trkpt>
      <trkpt lat="42.91469" lon="0.21669">
        <ele>1550.041</ele>
        <time>2022-07-03T06:25:15Z</time>
      </trkpt>
      <trkpt lat="42.91466" lon="0.21673">
        <ele>1550.393</ele>
        <time>2022-07-03T06:25:19Z</time>
      </trkpt>
      <trkpt lat="42.91461" lon="0.21676">
        <ele>1550.345</ele>
        <time>2022-07-03T06:25:24Z</time>
      </trkpt>
      <trkpt lat="42.91457" lon="0.21677">
        <ele>1550.39</ele>
        <time>2022-07-03T06:25:30Z</time>
      </trkpt>
      <trkpt lat="42.91452" lon="0.21678">
        <ele>1550.367</ele>
        <time>2022-07-03T06:25:36Z</time>
      </trkpt>
      <trkpt lat="42.91446" lon="0.21678">
        <ele>1550.381</ele>
        <time>2022-07-03T06:25:42Z</time>
      </trkpt>
      <trkpt lat="42.91442" lon="0.2168">
        <ele>1550.419</ele>
        <time>2022-07-03T06:25:46Z</time>
      </trkpt>
      <trkpt lat="42.91437" lon="0.21679">
        <ele>1550.509</ele>
        <time>2022-07-03T06:25:50Z</time>
      </trkpt>
      <trkpt lat="42.91432" lon="0.21679">
        <ele>1550.577</ele>
        <time>2022-07-03T06:25:54Z</time>
      </trkpt>
      <trkpt lat="42.91428" lon="0.21679">
        <ele>1550.546</ele>
        <time>2022-07-03T06:25:59Z</time>
      </trkpt>
      <trkpt lat="42.91423" lon="0.2168">
        <ele>1550.563</ele>
        <time>2022-07-03T06:26:03Z</time>
      </trkpt>
      <trkpt lat="42.91417" lon="0.21679">
        <ele>1550.586</ele>
        <time>2022-07-03T06:26:07Z</time>
      </trkpt>
      <trkpt lat="42.91412" lon="0.21676">
        <ele>1550.576</ele>
        <time>2022-07-03T06:26:11Z</time>
      </trkpt>
      <trkpt lat="42.91407" lon="0.21676">
        <ele>1550.584</ele>
        <time>2022-07-03T06:26:17Z</time>
      </trkpt>
      <trkpt lat="42.91402" lon="0.21675">
        <ele>1550.676</ele>
        <time>2022-07-03T06:26:21Z</time>
      </trkpt>
      <trkpt lat="42.91397" lon="0.21672">
        <ele>1550.728</ele>
        <time>2022-07-03T06:26:26Z</time>
      </trkpt>
      <trkpt lat="42.91392" lon="0.21671">
        <ele>1550.823</ele>
        <time>2022-07-03T06:26:31Z</time>
      </trkpt>
      <trkpt lat="42.91387" lon="0.21669">
        <ele>1550.989</ele>
        <time>2022-07-03T06:26:36Z</time>
      </trkpt>
      <trkpt lat="42.91382" lon="0.21666">
        <ele>1551.006</ele>
        <time>2022-07-03T06:26:41Z</time>
      </trkpt>
      <trkpt lat="42.91378" lon="0.21662">
        <ele>1551.126</ele>
        <time>2022-07-03T06:26:47Z</time>
      </trkpt>
      <trkpt lat="42.91374" lon="0.2166">
        <ele>1551.309</ele>
        <time>2022-07-03T06:26:51Z</time>
      </trkpt>
      <trkpt lat="42.9137" lon="0.21656">
        <ele>1551.519</ele>
        <time>2022-07-03T06:26:54Z</time>
      </trkpt>
      <trkpt lat="42.91365" lon="0.21654">
        <ele>1551.828</ele>
        <time>2022-07-03T06:26:58Z</time>
      </trkpt>
      <trkpt lat="42.9136" lon="0.21652">
        <ele>1552.165</ele>
        <time>2022-07-03T06:27:02Z</time>
      </trkpt>
      <trkpt lat="42.91355" lon="0.21648">
        <ele>1552.328</ele>
        <time>2022-07-03T06:27:07Z</time>
      </trkpt>
      <trkpt lat="42.9135" lon="0.21646">
        <ele>1552.568</ele>
        <time>2022-07-03T06:27:13Z</time>
      </trkpt>
      <trkpt lat="42.91346" lon="0.21643">
        <ele>1552.746</ele>
        <time>2022-07-03T06:27:17Z</time>
      </trkpt>
      <trkpt lat="42.91344" lon="0.21638">
        <ele>1552.778</ele>
        <time>2022-07-03T06:27:22Z</time>
      </trkpt>
      <trkpt lat="42.91339" lon="0.21638">
        <ele>1552.72</ele>
        <time>2022-07-03T06:27:26Z</time>
      </trkpt>
      <trkpt lat="42.91334" lon="0.21636">
        <ele>1552.725</ele>
        <time>2022-07-03T06:27:30Z</time>
      </trkpt>
      <trkpt lat="42.91328" lon="0.21635">
        <ele>1552.556</ele>
        <time>2022-07-03T06:27:35Z</time>
      </trkpt>
      <trkpt lat="42.91323" lon="0.21634">
        <ele>1552.259</ele>
        <time>2022-07-03T06:27:40Z</time>
      </trkpt>
      <trkpt lat="42.91318" lon="0.21631">
        <ele>1551.814</ele>
        <time>2022-07-03T06:27:44Z</time>
      </trkpt>
      <trkpt lat="42.91313" lon="0.21628">
        <ele>1551.509</ele>
        <time>2022-07-03T06:27:49Z</time>
      </trkpt>
      <trkpt lat="42.91309" lon="0.21626">
        <ele>1551.386</ele>
        <time>2022-07-03T06:27:53Z</time>
      </trkpt>
      <trkpt lat="42.91303" lon="0.21626">
        <ele>1551.235</ele>
        <time>2022-07-03T06:27:58Z</time>
      </trkpt>
      <trkpt lat="42.91298" lon="0.21625">
        <ele>1551.182</ele>
        <time>2022-07-03T06:28:02Z</time>
      </trkpt>
      <trkpt lat="42.91293" lon="0.21622">
        <ele>1551.145</ele>
        <time>2022-07-03T06:28:07Z</time>
      </trkpt>
      <trkpt lat="42.91289" lon="0.2162">
        <ele>1551.185</ele>
        <time>2022-07-03T06:28:11Z</time>
      </trkpt>
      <trkpt lat="42.91284" lon="0.21616">
        <ele>1551.223</ele>
        <time>2022-07-03T06:28:15Z</time>
      </trkpt>
      <trkpt lat="42.9128" lon="0.21614">
        <ele>1551.385</ele>
        <time>2022-07-03T06:28:19Z</time>
      </trkpt>
      <trkpt lat="42.91275" lon="0.2161">
        <ele>1551.357</ele>
        <time>2022-07-03T06:28:24Z</time>
      </trkpt>
      <trkpt lat="42.91271" lon="0.21606">
        <ele>1551.392</ele>
        <time>2022-07-03T06:28:30Z</time>
      </trkpt>
      <trkpt lat="42.91266" lon="0.21604">
        <ele>1551.139</ele>
        <time>2022-07-03T06:28:34Z</time>
      </trkpt>
      <trkpt lat="42.91261" lon="0.21601">
        <ele>1550.801</ele>
        <time>2022-07-03T06:28:39Z</time>
      </trkpt>
      <trkpt lat="42.91257" lon="0.21599">
        <ele>1550.721</ele>
        <time>2022-07-03T06:28:43Z</time>
      </trkpt>
      <trkpt lat="42.91252" lon="0.21596">
        <ele>1550.609</ele>
        <time>2022-07-03T06:28:46Z</time>
      </trkpt>
      <trkpt lat="42.91247" lon="0.21595">
        <ele>1550.484</ele>
        <time>2022-07-03T06:28:50Z</time>
      </trkpt>
      <trkpt lat="42.91242" lon="0.21593">
        <ele>1550.293</ele>
        <time>2022-07-03T06:28:54Z</time>
      </trkpt>
      <trkpt lat="42.91238" lon="0.2159">
        <ele>1550.05</ele>
        <time>2022-07-03T06:28:59Z</time>
      </trkpt>
      <trkpt lat="42.91234" lon="0.21587">
        <ele>1549.713</ele>
        <time>2022-07-03T06:29:03Z</time>
      </trkpt>
      <trkpt lat="42.91228" lon="0.21585">
        <ele>1549.333</ele>
        <time>2022-07-03T06:29:09Z</time>
      </trkpt>
      <trkpt lat="42.91223" lon="0.21582">
        <ele>1549.071</ele>
        <time>2022-07-03T06:29:14Z</time>
      </trkpt>
      <trkpt lat="42.91219" lon="0.21579">
        <ele>1548.743</ele>
        <time>2022-07-03T06:29:19Z</time>
      </trkpt>
      <trkpt lat="42.91215" lon="0.21576">
        <ele>1548.335</ele>
        <time>2022-07-03T06:29:23Z</time>
      </trkpt>
      <trkpt lat="42.9121" lon="0.21573">
        <ele>1547.87</ele>
        <time>2022-07-03T06:29:27Z</time>
      </trkpt>
      <trkpt lat="42.91205" lon="0.21568">
        <ele>1547.382</ele>
        <time>2022-07-03T06:29:32Z</time>
      </trkpt>
      <trkpt lat="42.91201" lon="0.21564">
        <ele>1547.043</ele>
        <time>2022-07-03T06:29:36Z</time>
      </trkpt>
      <trkpt lat="42.91197" lon="0.21561">
        <ele>1546.717</ele>
        <time>2022-07-03T06:29:40Z</time>
      </trkpt>
      <trkpt lat="42.91194" lon="0.21555">
        <ele>1546.509</ele>
        <time>2022-07-03T06:29:44Z</time>
      </trkpt>
      <trkpt lat="42.91191" lon="0.2155">
        <ele>1546.589</ele>
        <time>2022-07-03T06:29:48Z</time>
      </trkpt>
      <trkpt lat="42.91188" lon="0.21545">
        <ele>1546.558</ele>
        <time>2022-07-03T06:29:53Z</time>
      </trkpt>
      <trkpt lat="42.91183" lon="0.2154">
        <ele>1546.625</ele>
        <time>2022-07-03T06:29:58Z</time>
      </trkpt>
      <trkpt lat="42.91178" lon="0.21537">
        <ele>1546.948</ele>
        <time>2022-07-03T06:30:05Z</time>
      </trkpt>
      <trkpt lat="42.91174" lon="0.21534">
        <ele>1547.418</ele>
        <time>2022-07-03T06:30:11Z</time>
      </trkpt>
      <trkpt lat="42.91174" lon="0.21528">
        <ele>1548.036</ele>
        <time>2022-07-03T06:30:16Z</time>
      </trkpt>
      <trkpt lat="42.91174" lon="0.21521">
        <ele>1549.028</ele>
        <time>2022-07-03T06:30:21Z</time>
      </trkpt>
      <trkpt lat="42.9117" lon="0.21517">
        <ele>1550.05</ele>
        <time>2022-07-03T06:30:26Z</time>
      </trkpt>
      <trkpt lat="42.91167" lon="0.21511">
        <ele>1550.385</ele>
        <time>2022-07-03T06:30:30Z</time>
      </trkpt>
      <trkpt lat="42.91161" lon="0.21509">
        <ele>1550.367</ele>
        <time>2022-07-03T06:30:36Z</time>
      </trkpt>
      <trkpt lat="42.91157" lon="0.21507">
        <ele>1550.381</ele>
        <time>2022-07-03T06:30:40Z</time>
      </trkpt>
      <trkpt lat="42.91152" lon="0.21504">
        <ele>1550.119</ele>
        <time>2022-07-03T06:30:44Z</time>
      </trkpt>
      <trkpt lat="42.91147" lon="0.215">
        <ele>1549.909</ele>
        <time>2022-07-03T06:30:48Z</time>
      </trkpt>
      <trkpt lat="42.91143" lon="0.21495">
        <ele>1549.987</ele>
        <time>2022-07-03T06:30:53Z</time>
      </trkpt>
      <trkpt lat="42.9114" lon="0.21489">
        <ele>1549.926</ele>
        <time>2022-07-03T06:30:59Z</time>
      </trkpt>
      <trkpt lat="42.91137" lon="0.21483">
        <ele>1550.313</ele>
        <time>2022-07-03T06:31:04Z</time>
      </trkpt>
      <trkpt lat="42.91133" lon="0.21476">
        <ele>1550.886</ele>
        <time>2022-07-03T06:31:24Z</time>
      </trkpt>
      <trkpt lat="42.9113" lon="0.21472">
        <ele>1551.456</ele>
        <time>2022-07-03T06:31:29Z</time>
      </trkpt>
      <trkpt lat="42.91125" lon="0.2147">
        <ele>1552.474</ele>
        <time>2022-07-03T06:31:36Z</time>
      </trkpt>
      <trkpt lat="42.91122" lon="0.21475">
        <ele>1553.736</ele>
        <time>2022-07-03T06:31:46Z</time>
      </trkpt>
      <trkpt lat="42.91119" lon="0.21481">
        <ele>1554.798</ele>
        <time>2022-07-03T06:31:50Z</time>
      </trkpt>
      <trkpt lat="42.91115" lon="0.21486">
        <ele>1555.663</ele>
        <time>2022-07-03T06:31:56Z</time>
      </trkpt>
      <trkpt lat="42.91111" lon="0.2149">
        <ele>1555.795</ele>
        <time>2022-07-03T06:32:00Z</time>
      </trkpt>
      <trkpt lat="42.91105" lon="0.21492">
        <ele>1555.749</ele>
        <time>2022-07-03T06:32:04Z</time>
      </trkpt>
      <trkpt lat="42.91101" lon="0.21494">
        <ele>1555.723</ele>
        <time>2022-07-03T06:32:08Z</time>
      </trkpt>
      <trkpt lat="42.91097" lon="0.21496">
        <ele>1555.409</ele>
        <time>2022-07-03T06:32:13Z</time>
      </trkpt>
      <trkpt lat="42.91094" lon="0.21503">
        <ele>1555.22</ele>
        <time>2022-07-03T06:32:18Z</time>
      </trkpt>
      <trkpt lat="42.91093" lon="0.21509">
        <ele>1555.059</ele>
        <time>2022-07-03T06:32:24Z</time>
      </trkpt>
      <trkpt lat="42.91089" lon="0.21513">
        <ele>1554.656</ele>
        <time>2022-07-03T06:32:33Z</time>
      </trkpt>
      <trkpt lat="42.91087" lon="0.21521">
        <ele>1553.689</ele>
        <time>2022-07-03T06:32:38Z</time>
      </trkpt>
      <trkpt lat="42.91084" lon="0.21526">
        <ele>1551.929</ele>
        <time>2022-07-03T06:32:43Z</time>
      </trkpt>
      <trkpt lat="42.91081" lon="0.21531">
        <ele>1550.467</ele>
        <time>2022-07-03T06:32:47Z</time>
      </trkpt>
      <trkpt lat="42.91078" lon="0.21537">
        <ele>1549.269</ele>
        <time>2022-07-03T06:32:51Z</time>
      </trkpt>
      <trkpt lat="42.91074" lon="0.21539">
        <ele>1548.231</ele>
        <time>2022-07-03T06:32:55Z</time>
      </trkpt>
      <trkpt lat="42.91068" lon="0.21537">
        <ele>1547.766</ele>
        <time>2022-07-03T06:33:00Z</time>
      </trkpt>
      <trkpt lat="42.91063" lon="0.21535">
        <ele>1547.748</ele>
        <time>2022-07-03T06:33:06Z</time>
      </trkpt>
      <trkpt lat="42.91057" lon="0.21535">
        <ele>1547.761</ele>
        <time>2022-07-03T06:33:12Z</time>
      </trkpt>
      <trkpt lat="42.91053" lon="0.21536">
        <ele>1547.717</ele>
        <time>2022-07-03T06:33:19Z</time>
      </trkpt>
      <trkpt lat="42.91049" lon="0.21533">
        <ele>1548.009</ele>
        <time>2022-07-03T06:33:26Z</time>
      </trkpt>
      <trkpt lat="42.91046" lon="0.21527">
        <ele>1548.855</ele>
        <time>2022-07-03T06:33:32Z</time>
      </trkpt>
      <trkpt lat="42.91041" lon="0.21526">
        <ele>1550.044</ele>
        <time>2022-07-03T06:33:39Z</time>
      </trkpt>
      <trkpt lat="42.91036" lon="0.21525">
        <ele>1551.311</ele>
        <time>2022-07-03T06:33:46Z</time>
      </trkpt>
      <trkpt lat="42.91031" lon="0.21522">
        <ele>1552.324</ele>
        <time>2022-07-03T06:33:52Z</time>
      </trkpt>
      <trkpt lat="42.91027" lon="0.21518">
        <ele>1552.954</ele>
        <time>2022-07-03T06:33:59Z</time>
      </trkpt>
      <trkpt lat="42.91024" lon="0.21512">
        <ele>1553.182</ele>
        <time>2022-07-03T06:34:06Z</time>
      </trkpt>
      <trkpt lat="42.9102" lon="0.21508">
        <ele>1553.584</ele>
        <time>2022-07-03T06:34:15Z</time>
      </trkpt>
      <trkpt lat="42.91016" lon="0.21505">
        <ele>1554.276</ele>
        <time>2022-07-03T06:34:23Z</time>
      </trkpt>
      <trkpt lat="42.9101" lon="0.21505">
        <ele>1555.331</ele>
        <time>2022-07-03T06:34:29Z</time>
      </trkpt>
      <trkpt lat="42.91008" lon="0.21499">
        <ele>1556.569</ele>
        <time>2022-07-03T06:34:34Z</time>
      </trkpt>
      <trkpt lat="42.91005" lon="0.21494">
        <ele>1557.304</ele>
        <time>2022-07-03T06:34:39Z</time>
      </trkpt>
      <trkpt lat="42.91001" lon="0.21489">
        <ele>1557.924</ele>
        <time>2022-07-03T06:34:44Z</time>
      </trkpt>
      <trkpt lat="42.90996" lon="0.21486">
        <ele>1558.309</ele>
        <time>2022-07-03T06:34:49Z</time>
      </trkpt>
      <trkpt lat="42.90991" lon="0.21484">
        <ele>1558.687</ele>
        <time>2022-07-03T06:34:56Z</time>
      </trkpt>
      <trkpt lat="42.90986" lon="0.21481">
        <ele>1558.826</ele>
        <time>2022-07-03T06:35:00Z</time>
      </trkpt>
      <trkpt lat="42.90982" lon="0.21478">
        <ele>1558.943</ele>
        <time>2022-07-03T06:35:05Z</time>
      </trkpt>
      <trkpt lat="42.90977" lon="0.21475">
        <ele>1559.066</ele>
        <time>2022-07-03T06:35:12Z</time>
      </trkpt>
      <trkpt lat="42.90973" lon="0.21472">
        <ele>1559.286</ele>
        <time>2022-07-03T06:35:18Z</time>
      </trkpt>
      <trkpt lat="42.90968" lon="0.21469">
        <ele>1559.644</ele>
        <time>2022-07-03T06:35:23Z</time>
      </trkpt>
      <trkpt lat="42.90963" lon="0.21467">
        <ele>1560.346</ele>
        <time>2022-07-03T06:35:29Z</time>
      </trkpt>
      <trkpt lat="42.9096" lon="0.21461">
        <ele>1561.168</ele>
        <time>2022-07-03T06:35:34Z</time>
      </trkpt>
      <trkpt lat="42.90956" lon="0.21458">
        <ele>1562.053</ele>
        <time>2022-07-03T06:35:40Z</time>
      </trkpt>
      <trkpt lat="42.90951" lon="0.21456">
        <ele>1562.863</ele>
        <time>2022-07-03T06:35:45Z</time>
      </trkpt>
      <trkpt lat="42.90949" lon="0.2145">
        <ele>1563.344</ele>
        <time>2022-07-03T06:35:50Z</time>
      </trkpt>
      <trkpt lat="42.90944" lon="0.21449">
        <ele>1563.618</ele>
        <time>2022-07-03T06:35:56Z</time>
      </trkpt>
      <trkpt lat="42.9094" lon="0.21445">
        <ele>1563.909</ele>
        <time>2022-07-03T06:36:03Z</time>
      </trkpt>
      <trkpt lat="42.90935" lon="0.21442">
        <ele>1564.517</ele>
        <time>2022-07-03T06:36:09Z</time>
      </trkpt>
      <trkpt lat="42.9093" lon="0.21441">
        <ele>1565.726</ele>
        <time>2022-07-03T06:36:14Z</time>
      </trkpt>
      <trkpt lat="42.90926" lon="0.21439">
        <ele>1566.843</ele>
        <time>2022-07-03T06:36:18Z</time>
      </trkpt>
      <trkpt lat="42.90921" lon="0.21437">
        <ele>1567.246</ele>
        <time>2022-07-03T06:36:24Z</time>
      </trkpt>
      <trkpt lat="42.90917" lon="0.21436">
        <ele>1567.526</ele>
        <time>2022-07-03T06:36:30Z</time>
      </trkpt>
      <trkpt lat="42.90914" lon="0.21431">
        <ele>1567.824</ele>
        <time>2022-07-03T06:36:36Z</time>
      </trkpt>
      <trkpt lat="42.90909" lon="0.21426">
        <ele>1567.886</ele>
        <time>2022-07-03T06:36:41Z</time>
      </trkpt>
      <trkpt lat="42.90904" lon="0.21427">
        <ele>1567.878</ele>
        <time>2022-07-03T06:36:45Z</time>
      </trkpt>
      <trkpt lat="42.90902" lon="0.21421">
        <ele>1568.023</ele>
        <time>2022-07-03T06:36:52Z</time>
      </trkpt>
      <trkpt lat="42.90898" lon="0.21415">
        <ele>1568.014</ele>
        <time>2022-07-03T06:36:57Z</time>
      </trkpt>
      <trkpt lat="42.90894" lon="0.21412">
        <ele>1568.054</ele>
        <time>2022-07-03T06:37:03Z</time>
      </trkpt>
      <trkpt lat="42.90893" lon="0.21405">
        <ele>1568.109</ele>
        <time>2022-07-03T06:37:08Z</time>
      </trkpt>
      <trkpt lat="42.90891" lon="0.21398">
        <ele>1568.309</ele>
        <time>2022-07-03T06:37:12Z</time>
      </trkpt>
      <trkpt lat="42.90886" lon="0.21395">
        <ele>1568.692</ele>
        <time>2022-07-03T06:37:19Z</time>
      </trkpt>
      <trkpt lat="42.90882" lon="0.21392">
        <ele>1569.081</ele>
        <time>2022-07-03T06:37:24Z</time>
      </trkpt>
      <trkpt lat="42.90878" lon="0.21389">
        <ele>1569.468</ele>
        <time>2022-07-03T06:37:31Z</time>
      </trkpt>
      <trkpt lat="42.90874" lon="0.21386">
        <ele>1569.871</ele>
        <time>2022-07-03T06:37:35Z</time>
      </trkpt>
      <trkpt lat="42.90869" lon="0.21386">
        <ele>1570.581</ele>
        <time>2022-07-03T06:37:41Z</time>
      </trkpt>
      <trkpt lat="42.90865" lon="0.21381">
        <ele>1571.289</ele>
        <time>2022-07-03T06:37:46Z</time>
      </trkpt>
      <trkpt lat="42.90862" lon="0.21375">
        <ele>1571.681</ele>
        <time>2022-07-03T06:37:51Z</time>
      </trkpt>
      <trkpt lat="42.90859" lon="0.21371">
        <ele>1572.133</ele>
        <time>2022-07-03T06:37:55Z</time>
      </trkpt>
      <trkpt lat="42.90856" lon="0.21366">
        <ele>1572.628</ele>
        <time>2022-07-03T06:38:00Z</time>
      </trkpt>
      <trkpt lat="42.90853" lon="0.21361">
        <ele>1572.936</ele>
        <time>2022-07-03T06:38:07Z</time>
      </trkpt>
      <trkpt lat="42.90849" lon="0.21357">
        <ele>1573.117</ele>
        <time>2022-07-03T06:38:12Z</time>
      </trkpt>
      <trkpt lat="42.90845" lon="0.21352">
        <ele>1573.518</ele>
        <time>2022-07-03T06:38:19Z</time>
      </trkpt>
      <trkpt lat="42.90842" lon="0.21348">
        <ele>1573.909</ele>
        <time>2022-07-03T06:38:23Z</time>
      </trkpt>
      <trkpt lat="42.90837" lon="0.21343">
        <ele>1574.484</ele>
        <time>2022-07-03T06:38:28Z</time>
      </trkpt>
      <trkpt lat="42.90834" lon="0.21339">
        <ele>1575.043</ele>
        <time>2022-07-03T06:38:33Z</time>
      </trkpt>
      <trkpt lat="42.90829" lon="0.21336">
        <ele>1575.63</ele>
        <time>2022-07-03T06:38:36Z</time>
      </trkpt>
      <trkpt lat="42.90826" lon="0.2133">
        <ele>1576.273</ele>
        <time>2022-07-03T06:38:41Z</time>
      </trkpt>
      <trkpt lat="42.90823" lon="0.21325">
        <ele>1576.643</ele>
        <time>2022-07-03T06:38:46Z</time>
      </trkpt>
      <trkpt lat="42.9082" lon="0.21321">
        <ele>1576.951</ele>
        <time>2022-07-03T06:38:51Z</time>
      </trkpt>
      <trkpt lat="42.90815" lon="0.21315">
        <ele>1577.313</ele>
        <time>2022-07-03T06:38:57Z</time>
      </trkpt>
      <trkpt lat="42.90812" lon="0.21312">
        <ele>1577.865</ele>
        <time>2022-07-03T06:39:02Z</time>
      </trkpt>
      <trkpt lat="42.90808" lon="0.21307">
        <ele>1578.44</ele>
        <time>2022-07-03T06:39:09Z</time>
      </trkpt>
      <trkpt lat="42.90806" lon="0.21302">
        <ele>1578.983</ele>
        <time>2022-07-03T06:39:13Z</time>
      </trkpt>
      <trkpt lat="42.90801" lon="0.21302">
        <ele>1579.525</ele>
        <time>2022-07-03T06:39:18Z</time>
      </trkpt>
      <trkpt lat="42.90796" lon="0.21302">
        <ele>1579.717</ele>
        <time>2022-07-03T06:39:22Z</time>
      </trkpt>
      <trkpt lat="42.90791" lon="0.21299">
        <ele>1579.709</ele>
        <time>2022-07-03T06:39:27Z</time>
      </trkpt>
      <trkpt lat="42.90787" lon="0.21295">
        <ele>1579.789</ele>
        <time>2022-07-03T06:39:33Z</time>
      </trkpt>
      <trkpt lat="42.90783" lon="0.21291">
        <ele>1579.458</ele>
        <time>2022-07-03T06:39:37Z</time>
      </trkpt>
      <trkpt lat="42.90779" lon="0.21288">
        <ele>1579.125</ele>
        <time>2022-07-03T06:39:41Z</time>
      </trkpt>
      <trkpt lat="42.90775" lon="0.21285">
        <ele>1579.128</ele>
        <time>2022-07-03T06:39:46Z</time>
      </trkpt>
      <trkpt lat="42.9077" lon="0.21282">
        <ele>1579.148</ele>
        <time>2022-07-03T06:39:51Z</time>
      </trkpt>
      <trkpt lat="42.90766" lon="0.21278">
        <ele>1579.236</ele>
        <time>2022-07-03T06:39:58Z</time>
      </trkpt>
      <trkpt lat="42.90764" lon="0.21272">
        <ele>1579.918</ele>
        <time>2022-07-03T06:40:03Z</time>
      </trkpt>
      <trkpt lat="42.9076" lon="0.21266">
        <ele>1580.95</ele>
        <time>2022-07-03T06:40:11Z</time>
      </trkpt>
      <trkpt lat="42.9076" lon="0.2126">
        <ele>1581.685</ele>
        <time>2022-07-03T06:41:27Z</time>
      </trkpt>
      <trkpt lat="42.90757" lon="0.21255">
        <ele>1581.833</ele>
        <time>2022-07-03T06:41:31Z</time>
      </trkpt>
      <trkpt lat="42.90756" lon="0.21248">
        <ele>1581.923</ele>
        <time>2022-07-03T06:41:37Z</time>
      </trkpt>
      <trkpt lat="42.90755" lon="0.2124">
        <ele>1582.115</ele>
        <time>2022-07-03T06:41:46Z</time>
      </trkpt>
      <trkpt lat="42.90754" lon="0.21234">
        <ele>1582.309</ele>
        <time>2022-07-03T06:41:50Z</time>
      </trkpt>
      <trkpt lat="42.90752" lon="0.21228">
        <ele>1582.624</ele>
        <time>2022-07-03T06:41:53Z</time>
      </trkpt>
      <trkpt lat="42.90749" lon="0.21222">
        <ele>1582.863</ele>
        <time>2022-07-03T06:42:01Z</time>
      </trkpt>
      <trkpt lat="42.90746" lon="0.21217">
        <ele>1583.07</ele>
        <time>2022-07-03T06:42:06Z</time>
      </trkpt>
      <trkpt lat="42.90742" lon="0.21213">
        <ele>1583.593</ele>
        <time>2022-07-03T06:42:12Z</time>
      </trkpt>
      <trkpt lat="42.9074" lon="0.21207">
        <ele>1584.353</ele>
        <time>2022-07-03T06:42:15Z</time>
      </trkpt>
      <trkpt lat="42.90737" lon="0.21201">
        <ele>1584.881</ele>
        <time>2022-07-03T06:42:19Z</time>
      </trkpt>
      <trkpt lat="42.90732" lon="0.212">
        <ele>1584.973</ele>
        <time>2022-07-03T06:42:25Z</time>
      </trkpt>
      <trkpt lat="42.90728" lon="0.21196">
        <ele>1585.155</ele>
        <time>2022-07-03T06:42:30Z</time>
      </trkpt>
      <trkpt lat="42.90727" lon="0.21189">
        <ele>1585.67</ele>
        <time>2022-07-03T06:42:36Z</time>
      </trkpt>
      <trkpt lat="42.90723" lon="0.21186">
        <ele>1586.097</ele>
        <time>2022-07-03T06:42:41Z</time>
      </trkpt>
      <trkpt lat="42.90721" lon="0.2118">
        <ele>1586.423</ele>
        <time>2022-07-03T06:42:45Z</time>
      </trkpt>
      <trkpt lat="42.9072" lon="0.21174">
        <ele>1586.725</ele>
        <time>2022-07-03T06:42:50Z</time>
      </trkpt>
      <trkpt lat="42.90719" lon="0.21167">
        <ele>1586.809</ele>
        <time>2022-07-03T06:42:56Z</time>
      </trkpt>
      <trkpt lat="42.90716" lon="0.21163">
        <ele>1586.94</ele>
        <time>2022-07-03T06:43:00Z</time>
      </trkpt>
      <trkpt lat="42.90714" lon="0.21157">
        <ele>1586.989</ele>
        <time>2022-07-03T06:43:04Z</time>
      </trkpt>
      <trkpt lat="42.90709" lon="0.21152">
        <ele>1587.096</ele>
        <time>2022-07-03T06:43:11Z</time>
      </trkpt>
      <trkpt lat="42.90708" lon="0.21146">
        <ele>1587.199</ele>
        <time>2022-07-03T06:43:18Z</time>
      </trkpt>
      <trkpt lat="42.90707" lon="0.2114">
        <ele>1587.859</ele>
        <time>2022-07-03T06:43:24Z</time>
      </trkpt>
      <trkpt lat="42.90702" lon="0.21136">
        <ele>1589.217</ele>
        <time>2022-07-03T06:43:30Z</time>
      </trkpt>
      <trkpt lat="42.90698" lon="0.21133">
        <ele>1590.489</ele>
        <time>2022-07-03T06:43:36Z</time>
      </trkpt>
      <trkpt lat="42.90697" lon="0.21127">
        <ele>1591.481</ele>
        <time>2022-07-03T06:43:43Z</time>
      </trkpt>
      <trkpt lat="42.90694" lon="0.21122">
        <ele>1592.376</ele>
        <time>2022-07-03T06:43:50Z</time>
      </trkpt>
      <trkpt lat="42.9069" lon="0.21123">
        <ele>1593.225</ele>
        <time>2022-07-03T06:43:55Z</time>
      </trkpt>
      <trkpt lat="42.90684" lon="0.21124">
        <ele>1594.326</ele>
        <time>2022-07-03T06:44:02Z</time>
      </trkpt>
      <trkpt lat="42.90679" lon="0.21127">
        <ele>1595.308</ele>
        <time>2022-07-03T06:44:10Z</time>
      </trkpt>
      <trkpt lat="42.90675" lon="0.21126">
        <ele>1596.409</ele>
        <time>2022-07-03T06:44:14Z</time>
      </trkpt>
      <trkpt lat="42.90669" lon="0.21127">
        <ele>1597.523</ele>
        <time>2022-07-03T06:44:20Z</time>
      </trkpt>
      <trkpt lat="42.90664" lon="0.21125">
        <ele>1598.342</ele>
        <time>2022-07-03T06:44:26Z</time>
      </trkpt>
      <trkpt lat="42.90659" lon="0.21126">
        <ele>1598.949</ele>
        <time>2022-07-03T06:44:32Z</time>
      </trkpt>
      <trkpt lat="42.90654" lon="0.21125">
        <ele>1599.682</ele>
        <time>2022-07-03T06:44:36Z</time>
      </trkpt>
      <trkpt lat="42.9065" lon="0.21123">
        <ele>1600.592</ele>
        <time>2022-07-03T06:44:42Z</time>
      </trkpt>
      <trkpt lat="42.90645" lon="0.21122">
        <ele>1601.21</ele>
        <time>2022-07-03T06:44:47Z</time>
      </trkpt>
      <trkpt lat="42.9064" lon="0.21121">
        <ele>1601.972</ele>
        <time>2022-07-03T06:44:52Z</time>
      </trkpt>
      <trkpt lat="42.90636" lon="0.21121">
        <ele>1602.714</ele>
        <time>2022-07-03T06:44:58Z</time>
      </trkpt>
      <trkpt lat="42.90631" lon="0.21121">
        <ele>1603.389</ele>
        <time>2022-07-03T06:45:04Z</time>
      </trkpt>
      <trkpt lat="42.90626" lon="0.21122">
        <ele>1603.968</ele>
        <time>2022-07-03T06:45:09Z</time>
      </trkpt>
      <trkpt lat="42.90621" lon="0.2112">
        <ele>1604.642</ele>
        <time>2022-07-03T06:45:14Z</time>
      </trkpt>
      <trkpt lat="42.90615" lon="0.21118">
        <ele>1605.326</ele>
        <time>2022-07-03T06:45:21Z</time>
      </trkpt>
      <trkpt lat="42.90611" lon="0.21116">
        <ele>1606.009</ele>
        <time>2022-07-03T06:45:25Z</time>
      </trkpt>
      <trkpt lat="42.90606" lon="0.21113">
        <ele>1606.727</ele>
        <time>2022-07-03T06:45:30Z</time>
      </trkpt>
      <trkpt lat="42.90605" lon="0.21105">
        <ele>1607.116</ele>
        <time>2022-07-03T06:45:35Z</time>
      </trkpt>
      <trkpt lat="42.906" lon="0.21105">
        <ele>1607.623</ele>
        <time>2022-07-03T06:45:46Z</time>
      </trkpt>
      <trkpt lat="42.90594" lon="0.21101">
        <ele>1607.986</ele>
        <time>2022-07-03T06:45:53Z</time>
      </trkpt>
      <trkpt lat="42.9059" lon="0.21099">
        <ele>1609.456</ele>
        <time>2022-07-03T06:45:59Z</time>
      </trkpt>
      <trkpt lat="42.90585" lon="0.21097">
        <ele>1611.344</ele>
        <time>2022-07-03T06:46:09Z</time>
      </trkpt>
      <trkpt lat="42.9058" lon="0.21094">
        <ele>1612.066</ele>
        <time>2022-07-03T06:46:16Z</time>
      </trkpt>
      <trkpt lat="42.90577" lon="0.21089">
        <ele>1613.628</ele>
        <time>2022-07-03T06:46:24Z</time>
      </trkpt>
      <trkpt lat="42.90572" lon="0.2109">
        <ele>1615.123</ele>
        <time>2022-07-03T06:46:30Z</time>
      </trkpt>
      <trkpt lat="42.90567" lon="0.21089">
        <ele>1616.576</ele>
        <time>2022-07-03T06:46:38Z</time>
      </trkpt>
      <trkpt lat="42.90563" lon="0.21088">
        <ele>1617.99</ele>
        <time>2022-07-03T06:46:43Z</time>
      </trkpt>
      <trkpt lat="42.90558" lon="0.21085">
        <ele>1619.019</ele>
        <time>2022-07-03T06:46:49Z</time>
      </trkpt>
      <trkpt lat="42.90555" lon="0.21079">
        <ele>1620.009</ele>
        <time>2022-07-03T06:46:53Z</time>
      </trkpt>
      <trkpt lat="42.9055" lon="0.21079">
        <ele>1620.658</ele>
        <time>2022-07-03T06:47:00Z</time>
      </trkpt>
      <trkpt lat="42.90546" lon="0.21083">
        <ele>1621.027</ele>
        <time>2022-07-03T06:47:05Z</time>
      </trkpt>
      <trkpt lat="42.90541" lon="0.21086">
        <ele>1621.554</ele>
        <time>2022-07-03T06:47:11Z</time>
      </trkpt>
      <trkpt lat="42.90537" lon="0.21087">
        <ele>1622.377</ele>
        <time>2022-07-03T06:47:16Z</time>
      </trkpt>
      <trkpt lat="42.90531" lon="0.21086">
        <ele>1623.187</ele>
        <time>2022-07-03T06:47:22Z</time>
      </trkpt>
      <trkpt lat="42.90527" lon="0.21082">
        <ele>1623.845</ele>
        <time>2022-07-03T06:47:30Z</time>
      </trkpt>
      <trkpt lat="42.90527" lon="0.21076">
        <ele>1624.637</ele>
        <time>2022-07-03T06:47:36Z</time>
      </trkpt>
      <trkpt lat="42.90525" lon="0.21069">
        <ele>1625.629</ele>
        <time>2022-07-03T06:47:41Z</time>
      </trkpt>
      <trkpt lat="42.90527" lon="0.21063">
        <ele>1626.824</ele>
        <time>2022-07-03T06:47:46Z</time>
      </trkpt>
      <trkpt lat="42.90527" lon="0.21055">
        <ele>1627.811</ele>
        <time>2022-07-03T06:47:54Z</time>
      </trkpt>
      <trkpt lat="42.9053" lon="0.21048">
        <ele>1628.721</ele>
        <time>2022-07-03T06:48:03Z</time>
      </trkpt>
      <trkpt lat="42.90533" lon="0.21043">
        <ele>1629.803</ele>
        <time>2022-07-03T06:48:10Z</time>
      </trkpt>
      <trkpt lat="42.90534" lon="0.21037">
        <ele>1631.109</ele>
        <time>2022-07-03T06:48:22Z</time>
      </trkpt>
      <trkpt lat="42.90533" lon="0.2103">
        <ele>1632.482</ele>
        <time>2022-07-03T06:48:27Z</time>
      </trkpt>
      <trkpt lat="42.90537" lon="0.21025">
        <ele>1634.221</ele>
        <time>2022-07-03T06:48:35Z</time>
      </trkpt>
      <trkpt lat="42.90539" lon="0.21019">
        <ele>1635.818</ele>
        <time>2022-07-03T06:48:42Z</time>
      </trkpt>
      <trkpt lat="42.90538" lon="0.21012">
        <ele>1636.661</ele>
        <time>2022-07-03T06:48:51Z</time>
      </trkpt>
      <trkpt lat="42.9054" lon="0.21007">
        <ele>1637.231</ele>
        <time>2022-07-03T06:48:57Z</time>
      </trkpt>
      <trkpt lat="42.9054" lon="0.21001">
        <ele>1638.469</ele>
        <time>2022-07-03T06:49:02Z</time>
      </trkpt>
      <trkpt lat="42.90542" lon="0.20994">
        <ele>1639.931</ele>
        <time>2022-07-03T06:49:12Z</time>
      </trkpt>
      <trkpt lat="42.90544" lon="0.20989">
        <ele>1640.823</ele>
        <time>2022-07-03T06:49:18Z</time>
      </trkpt>
      <trkpt lat="42.90546" lon="0.20982">
        <ele>1641.838</ele>
        <time>2022-07-03T06:49:25Z</time>
      </trkpt>
      <trkpt lat="42.90546" lon="0.20975">
        <ele>1642.925</ele>
        <time>2022-07-03T06:49:31Z</time>
      </trkpt>
      <trkpt lat="42.90547" lon="0.20969">
        <ele>1643.926</ele>
        <time>2022-07-03T06:49:37Z</time>
      </trkpt>
      <trkpt lat="42.90546" lon="0.20962">
        <ele>1645.208</ele>
        <time>2022-07-03T06:49:52Z</time>
      </trkpt>
      <trkpt lat="42.90548" lon="0.20956">
        <ele>1646.309</ele>
        <time>2022-07-03T06:50:02Z</time>
      </trkpt>
      <trkpt lat="42.9055" lon="0.20948">
        <ele>1648.243</ele>
        <time>2022-07-03T06:50:13Z</time>
      </trkpt>
      <trkpt lat="42.90552" lon="0.20942">
        <ele>1650.522</ele>
        <time>2022-07-03T06:50:20Z</time>
      </trkpt>
      <trkpt lat="42.90555" lon="0.20936">
        <ele>1652.229</ele>
        <time>2022-07-03T06:50:26Z</time>
      </trkpt>
      <trkpt lat="42.90558" lon="0.20931">
        <ele>1653.542</ele>
        <time>2022-07-03T06:50:34Z</time>
      </trkpt>
      <trkpt lat="42.90556" lon="0.20923">
        <ele>1654.392</ele>
        <time>2022-07-03T06:50:42Z</time>
      </trkpt>
      <trkpt lat="42.90558" lon="0.20917">
        <ele>1655.26</ele>
        <time>2022-07-03T06:50:50Z</time>
      </trkpt>
      <trkpt lat="42.90558" lon="0.2091">
        <ele>1656.532</ele>
        <time>2022-07-03T06:51:06Z</time>
      </trkpt>
      <trkpt lat="42.90554" lon="0.20907">
        <ele>1658.074</ele>
        <time>2022-07-03T06:51:22Z</time>
      </trkpt>
      <trkpt lat="42.90549" lon="0.20909">
        <ele>1660.619</ele>
        <time>2022-07-03T06:51:27Z</time>
      </trkpt>
      <trkpt lat="42.90544" lon="0.20909">
        <ele>1663.837</ele>
        <time>2022-07-03T06:51:36Z</time>
      </trkpt>
      <trkpt lat="42.90539" lon="0.2091">
        <ele>1665.649</ele>
        <time>2022-07-03T06:51:48Z</time>
      </trkpt>
      <trkpt lat="42.90536" lon="0.20914">
        <ele>1666.613</ele>
        <time>2022-07-03T06:51:59Z</time>
      </trkpt>
      <trkpt lat="42.90531" lon="0.20916">
        <ele>1668.209</ele>
        <time>2022-07-03T06:52:12Z</time>
      </trkpt>
      <trkpt lat="42.90526" lon="0.20918">
        <ele>1670.154</ele>
        <time>2022-07-03T06:52:22Z</time>
      </trkpt>
      <trkpt lat="42.90522" lon="0.20917">
        <ele>1672.123</ele>
        <time>2022-07-03T06:52:30Z</time>
      </trkpt>
      <trkpt lat="42.90517" lon="0.20916">
        <ele>1674.17</ele>
        <time>2022-07-03T06:52:44Z</time>
      </trkpt>
      <trkpt lat="42.90513" lon="0.2092">
        <ele>1675.683</ele>
        <time>2022-07-03T06:52:54Z</time>
      </trkpt>
      <trkpt lat="42.90512" lon="0.20927">
        <ele>1677.753</ele>
        <time>2022-07-03T06:53:05Z</time>
      </trkpt>
      <trkpt lat="42.90508" lon="0.20932">
        <ele>1680.051</ele>
        <time>2022-07-03T06:53:17Z</time>
      </trkpt>
      <trkpt lat="42.905" lon="0.20945">
        <ele>1683.923</ele>
        <time>2022-07-03T06:53:50Z</time>
      </trkpt>
      <trkpt lat="42.90495" lon="0.20951">
        <ele>1687.985</ele>
        <time>2022-07-03T06:54:00Z</time>
      </trkpt>
      <trkpt lat="42.90491" lon="0.20954">
        <ele>1691.32</ele>
        <time>2022-07-03T06:54:08Z</time>
      </trkpt>
      <trkpt lat="42.90486" lon="0.20956">
        <ele>1692.628</ele>
        <time>2022-07-03T06:54:15Z</time>
      </trkpt>
      <trkpt lat="42.90483" lon="0.2096">
        <ele>1693.289</ele>
        <time>2022-07-03T06:54:25Z</time>
      </trkpt>
      <trkpt lat="42.9048" lon="0.20953">
        <ele>1693.717</ele>
        <time>2022-07-03T06:54:38Z</time>
      </trkpt>
      <trkpt lat="42.90476" lon="0.20955">
        <ele>1695.009</ele>
        <time>2022-07-03T06:54:46Z</time>
      </trkpt>
      <trkpt lat="42.90475" lon="0.20949">
        <ele>1697.013</ele>
        <time>2022-07-03T06:55:06Z</time>
      </trkpt>
      <trkpt lat="42.9047" lon="0.20946">
        <ele>1699.172</ele>
        <time>2022-07-03T06:55:18Z</time>
      </trkpt>
      <trkpt lat="42.90465" lon="0.20949">
        <ele>1701.689</ele>
        <time>2022-07-03T06:55:30Z</time>
      </trkpt>
      <trkpt lat="42.90461" lon="0.20951">
        <ele>1704.222</ele>
        <time>2022-07-03T06:55:39Z</time>
      </trkpt>
      <trkpt lat="42.90457" lon="0.20955">
        <ele>1706.382</ele>
        <time>2022-07-03T06:55:47Z</time>
      </trkpt>
      <trkpt lat="42.90458" lon="0.20961">
        <ele>1708.22</ele>
        <time>2022-07-03T06:55:55Z</time>
      </trkpt>
      <trkpt lat="42.90458" lon="0.20968">
        <ele>1709.532</ele>
        <time>2022-07-03T06:56:02Z</time>
      </trkpt>
      <trkpt lat="42.90454" lon="0.20972">
        <ele>1710.694</ele>
        <time>2022-07-03T06:56:12Z</time>
      </trkpt>
      <trkpt lat="42.90449" lon="0.20971">
        <ele>1711.969</ele>
        <time>2022-07-03T06:56:23Z</time>
      </trkpt>
      <trkpt lat="42.90448" lon="0.20964">
        <ele>1713.566</ele>
        <time>2022-07-03T06:56:30Z</time>
      </trkpt>
      <trkpt lat="42.90445" lon="0.20958">
        <ele>1715.129</ele>
        <time>2022-07-03T06:56:36Z</time>
      </trkpt>
      <trkpt lat="42.90441" lon="0.20954">
        <ele>1716.521</ele>
        <time>2022-07-03T06:56:41Z</time>
      </trkpt>
      <trkpt lat="42.90437" lon="0.20952">
        <ele>1717.309</ele>
        <time>2022-07-03T06:56:46Z</time>
      </trkpt>
      <trkpt lat="42.90433" lon="0.20949">
        <ele>1717.667</ele>
        <time>2022-07-03T06:56:55Z</time>
      </trkpt>
      <trkpt lat="42.90427" lon="0.20948">
        <ele>1717.776</ele>
        <time>2022-07-03T06:57:02Z</time>
      </trkpt>
      <trkpt lat="42.90422" lon="0.20947">
        <ele>1718.543</ele>
        <time>2022-07-03T06:57:09Z</time>
      </trkpt>
      <trkpt lat="42.90417" lon="0.20947">
        <ele>1719.756</ele>
        <time>2022-07-03T06:57:15Z</time>
      </trkpt>
      <trkpt lat="42.90413" lon="0.20942">
        <ele>1720.686</ele>
        <time>2022-07-03T06:57:26Z</time>
      </trkpt>
      <trkpt lat="42.9041" lon="0.20938">
        <ele>1721.684</ele>
        <time>2022-07-03T06:57:35Z</time>
      </trkpt>
      <trkpt lat="42.90404" lon="0.20936">
        <ele>1723.156</ele>
        <time>2022-07-03T06:57:41Z</time>
      </trkpt>
      <trkpt lat="42.90401" lon="0.20933">
        <ele>1724.668</ele>
        <time>2022-07-03T06:57:49Z</time>
      </trkpt>
      <trkpt lat="42.90396" lon="0.20933">
        <ele>1725.733</ele>
        <time>2022-07-03T06:57:57Z</time>
      </trkpt>
      <trkpt lat="42.90392" lon="0.2093">
        <ele>1726.695</ele>
        <time>2022-07-03T06:58:01Z</time>
      </trkpt>
      <trkpt lat="42.90391" lon="0.20923">
        <ele>1727.649</ele>
        <time>2022-07-03T06:58:10Z</time>
      </trkpt>
      <trkpt lat="42.90385" lon="0.20922">
        <ele>1728.623</ele>
        <time>2022-07-03T06:58:17Z</time>
      </trkpt>
      <trkpt lat="42.90384" lon="0.20916">
        <ele>1729.509</ele>
        <time>2022-07-03T06:58:24Z</time>
      </trkpt>
      <trkpt lat="42.90381" lon="0.20911">
        <ele>1730.62</ele>
        <time>2022-07-03T06:58:31Z</time>
      </trkpt>
      <trkpt lat="42.90376" lon="0.20911">
        <ele>1731.869</ele>
        <time>2022-07-03T06:58:38Z</time>
      </trkpt>
      <trkpt lat="42.90371" lon="0.20909">
        <ele>1732.956</ele>
        <time>2022-07-03T06:58:47Z</time>
      </trkpt>
      <trkpt lat="42.90365" lon="0.20909">
        <ele>1733.939</ele>
        <time>2022-07-03T06:58:53Z</time>
      </trkpt>
      <trkpt lat="42.90363" lon="0.20903">
        <ele>1735.259</ele>
        <time>2022-07-03T06:59:02Z</time>
      </trkpt>
      <trkpt lat="42.90359" lon="0.209">
        <ele>1736.357</ele>
        <time>2022-07-03T06:59:08Z</time>
      </trkpt>
      <trkpt lat="42.90354" lon="0.20897">
        <ele>1737.249</ele>
        <time>2022-07-03T06:59:14Z</time>
      </trkpt>
      <trkpt lat="42.9035" lon="0.20894">
        <ele>1738.421</ele>
        <time>2022-07-03T06:59:23Z</time>
      </trkpt>
      <trkpt lat="42.90346" lon="0.20891">
        <ele>1739.466</ele>
        <time>2022-07-03T06:59:31Z</time>
      </trkpt>
      <trkpt lat="42.90342" lon="0.20886">
        <ele>1740.571</ele>
        <time>2022-07-03T06:59:40Z</time>
      </trkpt>
      <trkpt lat="42.90337" lon="0.20882">
        <ele>1741.941</ele>
        <time>2022-07-03T06:59:46Z</time>
      </trkpt>
      <trkpt lat="42.90332" lon="0.20881">
        <ele>1743.115</ele>
        <time>2022-07-03T06:59:54Z</time>
      </trkpt>
      <trkpt lat="42.90327" lon="0.2088">
        <ele>1744.309</ele>
        <time>2022-07-03T07:00:05Z</time>
      </trkpt>
      <trkpt lat="42.90322" lon="0.20879">
        <ele>1745.588</ele>
        <time>2022-07-03T07:00:11Z</time>
      </trkpt>
      <trkpt lat="42.90309" lon="0.20864">
        <ele>1747.857</ele>
        <time>2022-07-03T07:07:15Z</time>
      </trkpt>
      <trkpt lat="42.90305" lon="0.20861">
        <ele>1747.854</ele>
        <time>2022-07-03T07:07:20Z</time>
      </trkpt>
      <trkpt lat="42.90299" lon="0.20861">
        <ele>1747.497</ele>
        <time>2022-07-03T07:07:30Z</time>
      </trkpt>
      <trkpt lat="42.90293" lon="0.20859">
        <ele>1747.457</ele>
        <time>2022-07-03T07:07:36Z</time>
      </trkpt>
      <trkpt lat="42.90288" lon="0.20857">
        <ele>1747.465</ele>
        <time>2022-07-03T07:07:43Z</time>
      </trkpt>
      <trkpt lat="42.90284" lon="0.20859">
        <ele>1747.627</ele>
        <time>2022-07-03T07:07:49Z</time>
      </trkpt>
      <trkpt lat="42.90285" lon="0.2085">
        <ele>1748.369</ele>
        <time>2022-07-03T07:07:58Z</time>
      </trkpt>
      <trkpt lat="42.9028" lon="0.20852">
        <ele>1749.294</ele>
        <time>2022-07-03T07:08:14Z</time>
      </trkpt>
      <trkpt lat="42.90277" lon="0.20848">
        <ele>1750.061</ele>
        <time>2022-07-03T07:08:26Z</time>
      </trkpt>
      <trkpt lat="42.90279" lon="0.20842">
        <ele>1752.121</ele>
        <time>2022-07-03T07:08:37Z</time>
      </trkpt>
      <trkpt lat="42.90274" lon="0.20839">
        <ele>1754.413</ele>
        <time>2022-07-03T07:08:51Z</time>
      </trkpt>
      <trkpt lat="42.90268" lon="0.20838">
        <ele>1756.209</ele>
        <time>2022-07-03T07:08:59Z</time>
      </trkpt>
      <trkpt lat="42.90264" lon="0.20837">
        <ele>1757.987</ele>
        <time>2022-07-03T07:09:17Z</time>
      </trkpt>
      <trkpt lat="42.90259" lon="0.20835">
        <ele>1759.796</ele>
        <time>2022-07-03T07:09:32Z</time>
      </trkpt>
      <trkpt lat="42.90254" lon="0.20835">
        <ele>1762.093</ele>
        <time>2022-07-03T07:09:47Z</time>
      </trkpt>
      <trkpt lat="42.9025" lon="0.2084">
        <ele>1764.676</ele>
        <time>2022-07-03T07:10:09Z</time>
      </trkpt>
      <trkpt lat="42.90246" lon="0.20841">
        <ele>1767.236</ele>
        <time>2022-07-03T07:10:16Z</time>
      </trkpt>
      <trkpt lat="42.90241" lon="0.20843">
        <ele>1770.544</ele>
        <time>2022-07-03T07:10:22Z</time>
      </trkpt>
      <trkpt lat="42.90236" lon="0.20845">
        <ele>1772.856</ele>
        <time>2022-07-03T07:10:31Z</time>
      </trkpt>
      <trkpt lat="42.90231" lon="0.20845">
        <ele>1773.348</ele>
        <time>2022-07-03T07:10:38Z</time>
      </trkpt>
      <trkpt lat="42.90228" lon="0.20841">
        <ele>1774.053</ele>
        <time>2022-07-03T07:10:45Z</time>
      </trkpt>
      <trkpt lat="42.90222" lon="0.20844">
        <ele>1775.345</ele>
        <time>2022-07-03T07:11:00Z</time>
      </trkpt>
      <trkpt lat="42.90217" lon="0.20836">
        <ele>1777.247</ele>
        <time>2022-07-03T07:11:15Z</time>
      </trkpt>
      <trkpt lat="42.90217" lon="0.20826">
        <ele>1780.111</ele>
        <time>2022-07-03T07:11:32Z</time>
      </trkpt>
      <trkpt lat="42.9022" lon="0.2082">
        <ele>1782.909</ele>
        <time>2022-07-03T07:11:41Z</time>
      </trkpt>
      <trkpt lat="42.90216" lon="0.20815">
        <ele>1785.565</ele>
        <time>2022-07-03T07:11:51Z</time>
      </trkpt>
      <trkpt lat="42.90212" lon="0.20812">
        <ele>1787.064</ele>
        <time>2022-07-03T07:12:01Z</time>
      </trkpt>
      <trkpt lat="42.90208" lon="0.20809">
        <ele>1787.921</ele>
        <time>2022-07-03T07:12:08Z</time>
      </trkpt>
      <trkpt lat="42.90205" lon="0.20804">
        <ele>1789.744</ele>
        <time>2022-07-03T07:12:14Z</time>
      </trkpt>
      <trkpt lat="42.90206" lon="0.20798">
        <ele>1791.154</ele>
        <time>2022-07-03T07:12:24Z</time>
      </trkpt>
      <trkpt lat="42.90201" lon="0.20798">
        <ele>1792.252</ele>
        <time>2022-07-03T07:12:31Z</time>
      </trkpt>
      <trkpt lat="42.90196" lon="0.20799">
        <ele>1793.644</ele>
        <time>2022-07-03T07:12:36Z</time>
      </trkpt>
      <trkpt lat="42.90192" lon="0.20802">
        <ele>1794.826</ele>
        <time>2022-07-03T07:12:43Z</time>
      </trkpt>
      <trkpt lat="42.90187" lon="0.208">
        <ele>1795.561</ele>
        <time>2022-07-03T07:12:52Z</time>
      </trkpt>
      <trkpt lat="42.90183" lon="0.20797">
        <ele>1796.456</ele>
        <time>2022-07-03T07:13:05Z</time>
      </trkpt>
      <trkpt lat="42.9018" lon="0.20793">
        <ele>1797.559</ele>
        <time>2022-07-03T07:13:13Z</time>
      </trkpt>
      <trkpt lat="42.90175" lon="0.20792">
        <ele>1799.414</ele>
        <time>2022-07-03T07:13:23Z</time>
      </trkpt>
      <trkpt lat="42.90169" lon="0.20792">
        <ele>1801.309</ele>
        <time>2022-07-03T07:13:31Z</time>
      </trkpt>
      <trkpt lat="42.90165" lon="0.20791">
        <ele>1802.856</ele>
        <time>2022-07-03T07:13:42Z</time>
      </trkpt>
      <trkpt lat="42.90161" lon="0.20794">
        <ele>1804.355</ele>
        <time>2022-07-03T07:13:48Z</time>
      </trkpt>
      <trkpt lat="42.90155" lon="0.20793">
        <ele>1805.662</ele>
        <time>2022-07-03T07:13:57Z</time>
      </trkpt>
      <trkpt lat="42.9015" lon="0.20788">
        <ele>1806.775</ele>
        <time>2022-07-03T07:14:07Z</time>
      </trkpt>
      <trkpt lat="42.9015" lon="0.20782">
        <ele>1808.055</ele>
        <time>2022-07-03T07:14:14Z</time>
      </trkpt>
      <trkpt lat="42.90152" lon="0.20777">
        <ele>1809.823</ele>
        <time>2022-07-03T07:14:19Z</time>
      </trkpt>
      <trkpt lat="42.90157" lon="0.20773">
        <ele>1811.345</ele>
        <time>2022-07-03T07:14:28Z</time>
      </trkpt>
      <trkpt lat="42.90161" lon="0.2077">
        <ele>1812.077</ele>
        <time>2022-07-03T07:14:33Z</time>
      </trkpt>
      <trkpt lat="42.90164" lon="0.20763">
        <ele>1812.942</ele>
        <time>2022-07-03T07:14:40Z</time>
      </trkpt>
      <trkpt lat="42.90168" lon="0.20759">
        <ele>1813.858</ele>
        <time>2022-07-03T07:14:44Z</time>
      </trkpt>
      <trkpt lat="42.90173" lon="0.20756">
        <ele>1814.452</ele>
        <time>2022-07-03T07:14:51Z</time>
      </trkpt>
      <trkpt lat="42.90178" lon="0.20754">
        <ele>1814.817</ele>
        <time>2022-07-03T07:14:57Z</time>
      </trkpt>
      <trkpt lat="42.90181" lon="0.20749">
        <ele>1815.309</ele>
        <time>2022-07-03T07:15:05Z</time>
      </trkpt>
      <trkpt lat="42.90184" lon="0.20745">
        <ele>1816.276</ele>
        <time>2022-07-03T07:15:15Z</time>
      </trkpt>
      <trkpt lat="42.90179" lon="0.20741">
        <ele>1817.235</ele>
        <time>2022-07-03T07:15:29Z</time>
      </trkpt>
      <trkpt lat="42.90175" lon="0.20743">
        <ele>1818.652</ele>
        <time>2022-07-03T07:15:36Z</time>
      </trkpt>
      <trkpt lat="42.90175" lon="0.20736">
        <ele>1820.755</ele>
        <time>2022-07-03T07:15:42Z</time>
      </trkpt>
      <trkpt lat="42.90171" lon="0.20735">
        <ele>1822.785</ele>
        <time>2022-07-03T07:15:48Z</time>
      </trkpt>
      <trkpt lat="42.90168" lon="0.20728">
        <ele>1823.823</ele>
        <time>2022-07-03T07:15:55Z</time>
      </trkpt>
      <trkpt lat="42.90163" lon="0.20726">
        <ele>1824.755</ele>
        <time>2022-07-03T07:16:07Z</time>
      </trkpt>
      <trkpt lat="42.9016" lon="0.2072">
        <ele>1825.777</ele>
        <time>2022-07-03T07:16:16Z</time>
      </trkpt>
      <trkpt lat="42.90159" lon="0.20713">
        <ele>1827.442</ele>
        <time>2022-07-03T07:16:24Z</time>
      </trkpt>
      <trkpt lat="42.90157" lon="0.20708">
        <ele>1829.027</ele>
        <time>2022-07-03T07:16:34Z</time>
      </trkpt>
      <trkpt lat="42.90155" lon="0.20702">
        <ele>1830.168</ele>
        <time>2022-07-03T07:16:38Z</time>
      </trkpt>
      <trkpt lat="42.90152" lon="0.20697">
        <ele>1831.414</ele>
        <time>2022-07-03T07:16:44Z</time>
      </trkpt>
      <trkpt lat="42.9015" lon="0.20689">
        <ele>1832.409</ele>
        <time>2022-07-03T07:16:52Z</time>
      </trkpt>
      <trkpt lat="42.9015" lon="0.20683">
        <ele>1833.243</ele>
        <time>2022-07-03T07:17:00Z</time>
      </trkpt>
      <trkpt lat="42.90148" lon="0.20675">
        <ele>1834.322</ele>
        <time>2022-07-03T07:17:08Z</time>
      </trkpt>
      <trkpt lat="42.90145" lon="0.2067">
        <ele>1835.579</ele>
        <time>2022-07-03T07:17:17Z</time>
      </trkpt>
      <trkpt lat="42.90141" lon="0.20665">
        <ele>1836.632</ele>
        <time>2022-07-03T07:17:24Z</time>
      </trkpt>
      <trkpt lat="42.90137" lon="0.20661">
        <ele>1837.932</ele>
        <time>2022-07-03T07:17:31Z</time>
      </trkpt>
      <trkpt lat="42.90135" lon="0.20654">
        <ele>1839.88</ele>
        <time>2022-07-03T07:20:45Z</time>
      </trkpt>
      <trkpt lat="42.90133" lon="0.20648">
        <ele>1840.262</ele>
        <time>2022-07-03T07:22:20Z</time>
      </trkpt>
      <trkpt lat="42.90132" lon="0.20641">
        <ele>1841.694</ele>
        <time>2022-07-03T07:22:25Z</time>
      </trkpt>
      <trkpt lat="42.9013" lon="0.20634">
        <ele>1842.879</ele>
        <time>2022-07-03T07:22:34Z</time>
      </trkpt>
      <trkpt lat="42.90128" lon="0.20628">
        <ele>1843.288</ele>
        <time>2022-07-03T07:22:40Z</time>
      </trkpt>
      <trkpt lat="42.90124" lon="0.20622">
        <ele>1844.424</ele>
        <time>2022-07-03T07:22:49Z</time>
      </trkpt>
      <trkpt lat="42.90122" lon="0.20615">
        <ele>1846.326</ele>
        <time>2022-07-03T07:22:59Z</time>
      </trkpt>
      <trkpt lat="42.90119" lon="0.2061">
        <ele>1848.109</ele>
        <time>2022-07-03T07:23:06Z</time>
      </trkpt>
      <trkpt lat="42.90116" lon="0.20605">
        <ele>1848.939</ele>
        <time>2022-07-03T07:23:13Z</time>
      </trkpt>
      <trkpt lat="42.90114" lon="0.20599">
        <ele>1850.338</ele>
        <time>2022-07-03T07:23:19Z</time>
      </trkpt>
      <trkpt lat="42.90111" lon="0.20592">
        <ele>1851.655</ele>
        <time>2022-07-03T07:23:24Z</time>
      </trkpt>
      <trkpt lat="42.9011" lon="0.20585">
        <ele>1852.788</ele>
        <time>2022-07-03T07:23:32Z</time>
      </trkpt>
      <trkpt lat="42.90108" lon="0.20579">
        <ele>1853.558</ele>
        <time>2022-07-03T07:23:41Z</time>
      </trkpt>
      <trkpt lat="42.90105" lon="0.20574">
        <ele>1854.666</ele>
        <time>2022-07-03T07:23:50Z</time>
      </trkpt>
      <trkpt lat="42.90101" lon="0.20567">
        <ele>1856.128</ele>
        <time>2022-07-03T07:23:56Z</time>
      </trkpt>
      <trkpt lat="42.90099" lon="0.20561">
        <ele>1857.63</ele>
        <time>2022-07-03T07:24:07Z</time>
      </trkpt>
      <trkpt lat="42.90099" lon="0.20554">
        <ele>1858.975</ele>
        <time>2022-07-03T07:24:14Z</time>
      </trkpt>
      <trkpt lat="42.90096" lon="0.20548">
        <ele>1860.543</ele>
        <time>2022-07-03T07:24:24Z</time>
      </trkpt>
      <trkpt lat="42.90093" lon="0.20544">
        <ele>1862.164</ele>
        <time>2022-07-03T07:24:34Z</time>
      </trkpt>
      <trkpt lat="42.90092" lon="0.20537">
        <ele>1863.71</ele>
        <time>2022-07-03T07:24:41Z</time>
      </trkpt>
      <trkpt lat="42.9009" lon="0.20531">
        <ele>1865.409</ele>
        <time>2022-07-03T07:24:49Z</time>
      </trkpt>
      <trkpt lat="42.90086" lon="0.20527">
        <ele>1866.745</ele>
        <time>2022-07-03T07:25:00Z</time>
      </trkpt>
      <trkpt lat="42.90084" lon="0.20521">
        <ele>1867.814</ele>
        <time>2022-07-03T07:25:06Z</time>
      </trkpt>
      <trkpt lat="42.9008" lon="0.20516">
        <ele>1869.691</ele>
        <time>2022-07-03T07:25:17Z</time>
      </trkpt>
      <trkpt lat="42.90076" lon="0.20513">
        <ele>1871.274</ele>
        <time>2022-07-03T07:25:25Z</time>
      </trkpt>
      <trkpt lat="42.90074" lon="0.20506">
        <ele>1872.664</ele>
        <time>2022-07-03T07:25:32Z</time>
      </trkpt>
      <trkpt lat="42.90071" lon="0.20501">
        <ele>1874.112</ele>
        <time>2022-07-03T07:25:42Z</time>
      </trkpt>
      <trkpt lat="42.9007" lon="0.20495">
        <ele>1875.274</ele>
        <time>2022-07-03T07:25:51Z</time>
      </trkpt>
      <trkpt lat="42.90065" lon="0.20492">
        <ele>1876.596</ele>
        <time>2022-07-03T07:26:01Z</time>
      </trkpt>
      <trkpt lat="42.90064" lon="0.20485">
        <ele>1878.271</ele>
        <time>2022-07-03T07:26:09Z</time>
      </trkpt>
      <trkpt lat="42.90059" lon="0.20483">
        <ele>1880.057</ele>
        <time>2022-07-03T07:26:17Z</time>
      </trkpt>
      <trkpt lat="42.90056" lon="0.20477">
        <ele>1881.5</ele>
        <time>2022-07-03T07:26:25Z</time>
      </trkpt>
      <trkpt lat="42.90053" lon="0.20472">
        <ele>1882.62</ele>
        <time>2022-07-03T07:26:32Z</time>
      </trkpt>
      <trkpt lat="42.90049" lon="0.20467">
        <ele>1883.609</ele>
        <time>2022-07-03T07:26:38Z</time>
      </trkpt>
      <trkpt lat="42.90047" lon="0.20461">
        <ele>1884.566</ele>
        <time>2022-07-03T07:26:46Z</time>
      </trkpt>
      <trkpt lat="42.90042" lon="0.20458">
        <ele>1885.385</ele>
        <time>2022-07-03T07:26:54Z</time>
      </trkpt>
      <trkpt lat="42.90041" lon="0.20451">
        <ele>1886.352</ele>
        <time>2022-07-03T07:27:01Z</time>
      </trkpt>
      <trkpt lat="42.90036" lon="0.20448">
        <ele>1887.485</ele>
        <time>2022-07-03T07:27:07Z</time>
      </trkpt>
      <trkpt lat="42.90032" lon="0.20444">
        <ele>1888.425</ele>
        <time>2022-07-03T07:27:14Z</time>
      </trkpt>
      <trkpt lat="42.90027" lon="0.20442">
        <ele>1889.233</ele>
        <time>2022-07-03T07:27:23Z</time>
      </trkpt>
      <trkpt lat="42.90023" lon="0.20432">
        <ele>1890.645</ele>
        <time>2022-07-03T07:27:38Z</time>
      </trkpt>
      <trkpt lat="42.90018" lon="0.20434">
        <ele>1892.147</ele>
        <time>2022-07-03T07:27:46Z</time>
      </trkpt>
      <trkpt lat="42.90013" lon="0.20432">
        <ele>1894.452</ele>
        <time>2022-07-03T07:27:56Z</time>
      </trkpt>
      <trkpt lat="42.90008" lon="0.20433">
        <ele>1895.977</ele>
        <time>2022-07-03T07:28:03Z</time>
      </trkpt>
      <trkpt lat="42.90003" lon="0.20429">
        <ele>1897.161</ele>
        <time>2022-07-03T07:28:14Z</time>
      </trkpt>
      <trkpt lat="42.89999" lon="0.20428">
        <ele>1897.727</ele>
        <time>2022-07-03T07:28:20Z</time>
      </trkpt>
      <trkpt lat="42.89994" lon="0.20427">
        <ele>1899.109</ele>
        <time>2022-07-03T07:28:30Z</time>
      </trkpt>
      <trkpt lat="42.89991" lon="0.20422">
        <ele>1900.688</ele>
        <time>2022-07-03T07:28:37Z</time>
      </trkpt>
      <trkpt lat="42.89987" lon="0.20418">
        <ele>1902.157</ele>
        <time>2022-07-03T07:28:45Z</time>
      </trkpt>
      <trkpt lat="42.89984" lon="0.20412">
        <ele>1903.334</ele>
        <time>2022-07-03T07:28:50Z</time>
      </trkpt>
      <trkpt lat="42.89983" lon="0.20406">
        <ele>1904.547</ele>
        <time>2022-07-03T07:29:00Z</time>
      </trkpt>
      <trkpt lat="42.89979" lon="0.20402">
        <ele>1905.677</ele>
        <time>2022-07-03T07:29:05Z</time>
      </trkpt>
      <trkpt lat="42.89975" lon="0.20398">
        <ele>1906.675</ele>
        <time>2022-07-03T07:29:13Z</time>
      </trkpt>
      <trkpt lat="42.89973" lon="0.20391">
        <ele>1907.787</ele>
        <time>2022-07-03T07:29:21Z</time>
      </trkpt>
      <trkpt lat="42.89971" lon="0.20384">
        <ele>1908.639</ele>
        <time>2022-07-03T07:29:26Z</time>
      </trkpt>
      <trkpt lat="42.8997" lon="0.20377">
        <ele>1909.664</ele>
        <time>2022-07-03T07:29:33Z</time>
      </trkpt>
      <trkpt lat="42.89968" lon="0.2037">
        <ele>1910.622</ele>
        <time>2022-07-03T07:29:42Z</time>
      </trkpt>
      <trkpt lat="42.89965" lon="0.20364">
        <ele>1911.862</ele>
        <time>2022-07-03T07:29:49Z</time>
      </trkpt>
      <trkpt lat="42.8996" lon="0.2036">
        <ele>1912.608</ele>
        <time>2022-07-03T07:29:54Z</time>
      </trkpt>
      <trkpt lat="42.8996" lon="0.20354">
        <ele>1913.909</ele>
        <time>2022-07-03T07:30:02Z</time>
      </trkpt>
      <trkpt lat="42.89958" lon="0.20347">
        <ele>1914.833</ele>
        <time>2022-07-03T07:30:09Z</time>
      </trkpt>
      <trkpt lat="42.89957" lon="0.20341">
        <ele>1915.732</ele>
        <time>2022-07-03T07:30:14Z</time>
      </trkpt>
      <trkpt lat="42.89955" lon="0.20334">
        <ele>1916.669</ele>
        <time>2022-07-03T07:30:20Z</time>
      </trkpt>
      <trkpt lat="42.89955" lon="0.20328">
        <ele>1917.222</ele>
        <time>2022-07-03T07:30:27Z</time>
      </trkpt>
      <trkpt lat="42.89954" lon="0.20322">
        <ele>1918.072</ele>
        <time>2022-07-03T07:30:32Z</time>
      </trkpt>
      <trkpt lat="42.89952" lon="0.20315">
        <ele>1918.93</ele>
        <time>2022-07-03T07:30:36Z</time>
      </trkpt>
      <trkpt lat="42.89951" lon="0.2031">
        <ele>1919.882</ele>
        <time>2022-07-03T07:30:42Z</time>
      </trkpt>
      <trkpt lat="42.89948" lon="0.20303">
        <ele>1920.774</ele>
        <time>2022-07-03T07:30:50Z</time>
      </trkpt>
      <trkpt lat="42.89948" lon="0.20295">
        <ele>1921.539</ele>
        <time>2022-07-03T07:30:58Z</time>
      </trkpt>
      <trkpt lat="42.89948" lon="0.20288">
        <ele>1922.476</ele>
        <time>2022-07-03T07:31:03Z</time>
      </trkpt>
      <trkpt lat="42.89946" lon="0.20282">
        <ele>1923.49</ele>
        <time>2022-07-03T07:31:09Z</time>
      </trkpt>
      <trkpt lat="42.89943" lon="0.20277">
        <ele>1924.219</ele>
        <time>2022-07-03T07:31:14Z</time>
      </trkpt>
      <trkpt lat="42.8994" lon="0.20272">
        <ele>1925.009</ele>
        <time>2022-07-03T07:31:20Z</time>
      </trkpt>
      <trkpt lat="42.89936" lon="0.20265">
        <ele>1925.888</ele>
        <time>2022-07-03T07:31:26Z</time>
      </trkpt>
      <trkpt lat="42.89931" lon="0.20264">
        <ele>1926.417</ele>
        <time>2022-07-03T07:31:32Z</time>
      </trkpt>
      <trkpt lat="42.89926" lon="0.20263">
        <ele>1926.844</ele>
        <time>2022-07-03T07:31:36Z</time>
      </trkpt>
      <trkpt lat="42.89924" lon="0.20258">
        <ele>1927.177</ele>
        <time>2022-07-03T07:31:40Z</time>
      </trkpt>
      <trkpt lat="42.89919" lon="0.20256">
        <ele>1927.357</ele>
        <time>2022-07-03T07:31:44Z</time>
      </trkpt>
      <trkpt lat="42.89915" lon="0.20253">
        <ele>1927.425</ele>
        <time>2022-07-03T07:31:51Z</time>
      </trkpt>
      <trkpt lat="42.89911" lon="0.20248">
        <ele>1927.497</ele>
        <time>2022-07-03T07:31:57Z</time>
      </trkpt>
      <trkpt lat="42.89907" lon="0.20245">
        <ele>1927.649</ele>
        <time>2022-07-03T07:32:02Z</time>
      </trkpt>
      <trkpt lat="42.89904" lon="0.20239">
        <ele>1928.354</ele>
        <time>2022-07-03T07:32:07Z</time>
      </trkpt>
      <trkpt lat="42.89899" lon="0.20236">
        <ele>1929.097</ele>
        <time>2022-07-03T07:32:14Z</time>
      </trkpt>
      <trkpt lat="42.89895" lon="0.20233">
        <ele>1929.423</ele>
        <time>2022-07-03T07:32:19Z</time>
      </trkpt>
      <trkpt lat="42.89891" lon="0.20229">
        <ele>1929.725</ele>
        <time>2022-07-03T07:32:23Z</time>
      </trkpt>
      <trkpt lat="42.89888" lon="0.20224">
        <ele>1929.909</ele>
        <time>2022-07-03T07:32:28Z</time>
      </trkpt>
      <trkpt lat="42.89887" lon="0.20217">
        <ele>1930.08</ele>
        <time>2022-07-03T07:32:34Z</time>
      </trkpt>
      <trkpt lat="42.89885" lon="0.20212">
        <ele>1930.159</ele>
        <time>2022-07-03T07:32:38Z</time>
      </trkpt>
      <trkpt lat="42.89882" lon="0.20206">
        <ele>1930.246</ele>
        <time>2022-07-03T07:32:44Z</time>
      </trkpt>
      <trkpt lat="42.89878" lon="0.20202">
        <ele>1930.439</ele>
        <time>2022-07-03T07:32:50Z</time>
      </trkpt>
      <trkpt lat="42.89874" lon="0.20198">
        <ele>1930.749</ele>
        <time>2022-07-03T07:32:55Z</time>
      </trkpt>
      <trkpt lat="42.8987" lon="0.20195">
        <ele>1931.167</ele>
        <time>2022-07-03T07:32:59Z</time>
      </trkpt>
      <trkpt lat="42.89867" lon="0.20189">
        <ele>1931.559</ele>
        <time>2022-07-03T07:33:05Z</time>
      </trkpt>
      <trkpt lat="42.89864" lon="0.20184">
        <ele>1932.071</ele>
        <time>2022-07-03T07:33:10Z</time>
      </trkpt>
      <trkpt lat="42.8986" lon="0.2018">
        <ele>1932.676</ele>
        <time>2022-07-03T07:33:15Z</time>
      </trkpt>
      <trkpt lat="42.89859" lon="0.20173">
        <ele>1933.122</ele>
        <time>2022-07-03T07:33:19Z</time>
      </trkpt>
      <trkpt lat="42.89859" lon="0.20166">
        <ele>1933.462</ele>
        <time>2022-07-03T07:33:23Z</time>
      </trkpt>
      <trkpt lat="42.89859" lon="0.2016">
        <ele>1933.508</ele>
        <time>2022-07-03T07:33:28Z</time>
      </trkpt>
      <trkpt lat="42.89857" lon="0.20153">
        <ele>1933.609</ele>
        <time>2022-07-03T07:33:35Z</time>
      </trkpt>
      <trkpt lat="42.89858" lon="0.20147">
        <ele>1933.713</ele>
        <time>2022-07-03T07:33:43Z</time>
      </trkpt>
      <trkpt lat="42.8986" lon="0.2014">
        <ele>1934.262</ele>
        <time>2022-07-03T07:33:52Z</time>
      </trkpt>
      <trkpt lat="42.89861" lon="0.20133">
        <ele>1935.279</ele>
        <time>2022-07-03T07:34:00Z</time>
      </trkpt>
      <trkpt lat="42.89865" lon="0.20129">
        <ele>1936.412</ele>
        <time>2022-07-03T07:34:07Z</time>
      </trkpt>
      <trkpt lat="42.89869" lon="0.20125">
        <ele>1937.772</ele>
        <time>2022-07-03T07:34:17Z</time>
      </trkpt>
      <trkpt lat="42.89869" lon="0.20119">
        <ele>1938.99</ele>
        <time>2022-07-03T07:34:24Z</time>
      </trkpt>
      <trkpt lat="42.89873" lon="0.20114">
        <ele>1940.252</ele>
        <time>2022-07-03T07:34:31Z</time>
      </trkpt>
      <trkpt lat="42.89876" lon="0.20109">
        <ele>1941.734</ele>
        <time>2022-07-03T07:34:42Z</time>
      </trkpt>
      <trkpt lat="42.89875" lon="0.20102">
        <ele>1942.959</ele>
        <time>2022-07-03T07:34:50Z</time>
      </trkpt>
      <trkpt lat="42.89878" lon="0.20097">
        <ele>1944.322</ele>
        <time>2022-07-03T07:34:57Z</time>
      </trkpt>
      <trkpt lat="42.89876" lon="0.20091">
        <ele>1945.762</ele>
        <time>2022-07-03T07:35:06Z</time>
      </trkpt>
      <trkpt lat="42.89875" lon="0.20084">
        <ele>1946.808</ele>
        <time>2022-07-03T07:35:14Z</time>
      </trkpt>
      <trkpt lat="42.89878" lon="0.20079">
        <ele>1948.109</ele>
        <time>2022-07-03T07:35:25Z</time>
      </trkpt>
      <trkpt lat="42.89882" lon="0.20073">
        <ele>1949.443</ele>
        <time>2022-07-03T07:35:36Z</time>
      </trkpt>
      <trkpt lat="42.89883" lon="0.20066">
        <ele>1951.082</ele>
        <time>2022-07-03T07:35:46Z</time>
      </trkpt>
      <trkpt lat="42.89886" lon="0.2006">
        <ele>1952.769</ele>
        <time>2022-07-03T07:35:54Z</time>
      </trkpt>
      <trkpt lat="42.89888" lon="0.20054">
        <ele>1954.232</ele>
        <time>2022-07-03T07:36:04Z</time>
      </trkpt>
      <trkpt lat="42.89888" lon="0.20047">
        <ele>1955.752</ele>
        <time>2022-07-03T07:36:10Z</time>
      </trkpt>
      <trkpt lat="42.89886" lon="0.20041">
        <ele>1957.35</ele>
        <time>2022-07-03T07:36:18Z</time>
      </trkpt>
      <trkpt lat="42.89881" lon="0.20042">
        <ele>1958.612</ele>
        <time>2022-07-03T07:36:32Z</time>
      </trkpt>
      <trkpt lat="42.89878" lon="0.20045">
        <ele>1959.794</ele>
        <time>2022-07-03T07:36:38Z</time>
      </trkpt>
      <trkpt lat="42.89874" lon="0.20049">
        <ele>1961.829</ele>
        <time>2022-07-03T07:36:41Z</time>
      </trkpt>
      <trkpt lat="42.89869" lon="0.2005">
        <ele>1963.622</ele>
        <time>2022-07-03T07:36:49Z</time>
      </trkpt>
      <trkpt lat="42.89866" lon="0.20055">
        <ele>1964.062</ele>
        <time>2022-07-03T07:36:57Z</time>
      </trkpt>
      <trkpt lat="42.89863" lon="0.2006">
        <ele>1964.008</ele>
        <time>2022-07-03T07:37:13Z</time>
      </trkpt>
      <trkpt lat="42.89858" lon="0.20062">
        <ele>1964.009</ele>
        <time>2022-07-03T07:37:18Z</time>
      </trkpt>
      <trkpt lat="42.89853" lon="0.20061">
        <ele>1962.833</ele>
        <time>2022-07-03T07:37:24Z</time>
      </trkpt>
      <trkpt lat="42.89847" lon="0.20061">
        <ele>1961.522</ele>
        <time>2022-07-03T07:37:32Z</time>
      </trkpt>
      <trkpt lat="42.89843" lon="0.2006">
        <ele>1961.519</ele>
        <time>2022-07-03T07:37:37Z</time>
      </trkpt>
      <trkpt lat="42.89838" lon="0.20058">
        <ele>1961.532</ele>
        <time>2022-07-03T07:37:45Z</time>
      </trkpt>
      <trkpt lat="42.89834" lon="0.20057">
        <ele>1961.932</ele>
        <time>2022-07-03T07:37:53Z</time>
      </trkpt>
      <trkpt lat="42.8983" lon="0.20054">
        <ele>1962.84</ele>
        <time>2022-07-03T07:38:00Z</time>
      </trkpt>
      <trkpt lat="42.89824" lon="0.20053">
        <ele>1964.042</ele>
        <time>2022-07-03T07:38:08Z</time>
      </trkpt>
      <trkpt lat="42.8982" lon="0.20051">
        <ele>1965.354</ele>
        <time>2022-07-03T07:38:14Z</time>
      </trkpt>
      <trkpt lat="42.89815" lon="0.20051">
        <ele>1966.749</ele>
        <time>2022-07-03T07:38:21Z</time>
      </trkpt>
      <trkpt lat="42.8981" lon="0.20049">
        <ele>1968.177</ele>
        <time>2022-07-03T07:38:26Z</time>
      </trkpt>
      <trkpt lat="42.89805" lon="0.20048">
        <ele>1969.261</ele>
        <time>2022-07-03T07:38:35Z</time>
      </trkpt>
      <trkpt lat="42.89801" lon="0.20046">
        <ele>1970.027</ele>
        <time>2022-07-03T07:38:42Z</time>
      </trkpt>
      <trkpt lat="42.89796" lon="0.20044">
        <ele>1971.109</ele>
        <time>2022-07-03T07:38:48Z</time>
      </trkpt>
      <trkpt lat="42.89791" lon="0.20042">
        <ele>1972.438</ele>
        <time>2022-07-03T07:38:54Z</time>
      </trkpt>
      <trkpt lat="42.89787" lon="0.2004">
        <ele>1973.337</ele>
        <time>2022-07-03T07:39:05Z</time>
      </trkpt>
      <trkpt lat="42.89783" lon="0.20036">
        <ele>1973.954</ele>
        <time>2022-07-03T07:39:11Z</time>
      </trkpt>
      <trkpt lat="42.89778" lon="0.20034">
        <ele>1975.047</ele>
        <time>2022-07-03T07:39:19Z</time>
      </trkpt>
      <trkpt lat="42.89772" lon="0.2003">
        <ele>1976.377</ele>
        <time>2022-07-03T07:39:28Z</time>
      </trkpt>
      <trkpt lat="42.89767" lon="0.20026">
        <ele>1977.965</ele>
        <time>2022-07-03T07:39:35Z</time>
      </trkpt>
      <trkpt lat="42.89762" lon="0.20025">
        <ele>1979.427</ele>
        <time>2022-07-03T07:39:47Z</time>
      </trkpt>
      <trkpt lat="42.89758" lon="0.20021">
        <ele>1980.339</ele>
        <time>2022-07-03T07:39:58Z</time>
      </trkpt>
      <trkpt lat="42.89754" lon="0.20019">
        <ele>1981.424</ele>
        <time>2022-07-03T07:40:08Z</time>
      </trkpt>
      <trkpt lat="42.89752" lon="0.20013">
        <ele>1983.487</ele>
        <time>2022-07-03T07:40:21Z</time>
      </trkpt>
      <trkpt lat="42.89748" lon="0.2001">
        <ele>1985.342</ele>
        <time>2022-07-03T07:40:28Z</time>
      </trkpt>
      <trkpt lat="42.89743" lon="0.2001">
        <ele>1987.426</ele>
        <time>2022-07-03T07:40:36Z</time>
      </trkpt>
      <trkpt lat="42.89738" lon="0.20009">
        <ele>1989.109</ele>
        <time>2022-07-03T07:40:41Z</time>
      </trkpt>
      <trkpt lat="42.89735" lon="0.20005">
        <ele>1990.119</ele>
        <time>2022-07-03T07:40:46Z</time>
      </trkpt>
      <trkpt lat="42.8973" lon="0.20008">
        <ele>1990.638</ele>
        <time>2022-07-03T07:40:51Z</time>
      </trkpt>
      <trkpt lat="42.89727" lon="0.20013">
        <ele>1990.865</ele>
        <time>2022-07-03T07:40:56Z</time>
      </trkpt>
      <trkpt lat="42.89723" lon="0.20016">
        <ele>1990.968</ele>
        <time>2022-07-03T07:41:01Z</time>
      </trkpt>
      <trkpt lat="42.89718" lon="0.20017">
        <ele>1991.038</ele>
        <time>2022-07-03T07:41:06Z</time>
      </trkpt>
      <trkpt lat="42.89713" lon="0.20017">
        <ele>1991.166</ele>
        <time>2022-07-03T07:41:11Z</time>
      </trkpt>
      <trkpt lat="42.89708" lon="0.20021">
        <ele>1991.288</ele>
        <time>2022-07-03T07:41:17Z</time>
      </trkpt>
      <trkpt lat="42.89703" lon="0.2002">
        <ele>1991.43</ele>
        <time>2022-07-03T07:41:24Z</time>
      </trkpt>
      <trkpt lat="42.89698" lon="0.20024">
        <ele>1991.885</ele>
        <time>2022-07-03T07:41:33Z</time>
      </trkpt>
      <trkpt lat="42.89694" lon="0.20026">
        <ele>1992.542</ele>
        <time>2022-07-03T07:41:38Z</time>
      </trkpt>
      <trkpt lat="42.89689" lon="0.20029">
        <ele>1993.422</ele>
        <time>2022-07-03T07:41:42Z</time>
      </trkpt>
      <trkpt lat="42.89684" lon="0.20031">
        <ele>1994.314</ele>
        <time>2022-07-03T07:41:48Z</time>
      </trkpt>
      <trkpt lat="42.89679" lon="0.20034">
        <ele>1994.709</ele>
        <time>2022-07-03T07:41:56Z</time>
      </trkpt>
      <trkpt lat="42.89676" lon="0.20038">
        <ele>1994.965</ele>
        <time>2022-07-03T07:42:01Z</time>
      </trkpt>
      <trkpt lat="42.89672" lon="0.20042">
        <ele>1995.524</ele>
        <time>2022-07-03T07:42:05Z</time>
      </trkpt>
      <trkpt lat="42.89667" lon="0.20044">
        <ele>1996.061</ele>
        <time>2022-07-03T07:42:09Z</time>
      </trkpt>
      <trkpt lat="42.89663" lon="0.2004">
        <ele>1996.124</ele>
        <time>2022-07-03T07:42:17Z</time>
      </trkpt>
      <trkpt lat="42.89661" lon="0.20033">
        <ele>1996.144</ele>
        <time>2022-07-03T07:42:25Z</time>
      </trkpt>
      <trkpt lat="42.89663" lon="0.20026">
        <ele>1996.442</ele>
        <time>2022-07-03T07:42:38Z</time>
      </trkpt>
      <trkpt lat="42.8966" lon="0.2002">
        <ele>1997.324</ele>
        <time>2022-07-03T07:42:44Z</time>
      </trkpt>
      <trkpt lat="42.89658" lon="0.20015">
        <ele>1999.066</ele>
        <time>2022-07-03T07:42:50Z</time>
      </trkpt>
      <trkpt lat="42.89657" lon="0.20006">
        <ele>2000.671</ele>
        <time>2022-07-03T07:43:00Z</time>
      </trkpt>
      <trkpt lat="42.8966" lon="0.2">
        <ele>2000.959</ele>
        <time>2022-07-03T07:43:11Z</time>
      </trkpt>
      <trkpt lat="42.89659" lon="0.19991">
        <ele>2002.803</ele>
        <time>2022-07-03T07:43:23Z</time>
      </trkpt>
      <trkpt lat="42.89656" lon="0.19998">
        <ele>2005.223</ele>
        <time>2022-07-03T08:00:01Z</time>
      </trkpt>
      <trkpt lat="42.89658" lon="0.19993">
        <ele>2007.109</ele>
        <time>2022-07-03T08:09:45Z</time>
      </trkpt>
      <trkpt lat="42.89655" lon="0.19988">
        <ele>2007.136</ele>
        <time>2022-07-03T08:10:03Z</time>
      </trkpt>
      <trkpt lat="42.89653" lon="0.19982">
        <ele>2007.135</ele>
        <time>2022-07-03T08:10:22Z</time>
      </trkpt>
      <trkpt lat="42.8965" lon="0.19975">
        <ele>2007.142</ele>
        <time>2022-07-03T08:10:27Z</time>
      </trkpt>
      <trkpt lat="42.89648" lon="0.19969">
        <ele>2007.075</ele>
        <time>2022-07-03T08:10:31Z</time>
      </trkpt>
      <trkpt lat="42.89646" lon="0.19962">
        <ele>2006.975</ele>
        <time>2022-07-03T08:10:47Z</time>
      </trkpt>
      <trkpt lat="42.89645" lon="0.19955">
        <ele>2006.933</ele>
        <time>2022-07-03T08:10:53Z</time>
      </trkpt>
      <trkpt lat="42.89643" lon="0.19949">
        <ele>2006.945</ele>
        <time>2022-07-03T08:11:00Z</time>
      </trkpt>
      <trkpt lat="42.89639" lon="0.19944">
        <ele>2007.057</ele>
        <time>2022-07-03T08:11:07Z</time>
      </trkpt>
      <trkpt lat="42.89636" lon="0.19939">
        <ele>2007.372</ele>
        <time>2022-07-03T08:11:12Z</time>
      </trkpt>
      <trkpt lat="42.89634" lon="0.19934">
        <ele>2007.592</ele>
        <time>2022-07-03T08:11:18Z</time>
      </trkpt>
      <trkpt lat="42.89631" lon="0.19929">
        <ele>2007.573</ele>
        <time>2022-07-03T08:11:23Z</time>
      </trkpt>
      <trkpt lat="42.89629" lon="0.19923">
        <ele>2007.52</ele>
        <time>2022-07-03T08:11:30Z</time>
      </trkpt>
      <trkpt lat="42.89629" lon="0.19916">
        <ele>2007.309</ele>
        <time>2022-07-03T08:11:37Z</time>
      </trkpt>
      <trkpt lat="42.89626" lon="0.1991">
        <ele>2007.22</ele>
        <time>2022-07-03T08:11:43Z</time>
      </trkpt>
      <trkpt lat="42.89623" lon="0.19904">
        <ele>2007.219</ele>
        <time>2022-07-03T08:11:52Z</time>
      </trkpt>
      <trkpt lat="42.8962" lon="0.19898">
        <ele>2007.276</ele>
        <time>2022-07-03T08:11:59Z</time>
      </trkpt>
      <trkpt lat="42.89617" lon="0.19892">
        <ele>2007.229</ele>
        <time>2022-07-03T08:12:05Z</time>
      </trkpt>
      <trkpt lat="42.89614" lon="0.19886">
        <ele>2007.289</ele>
        <time>2022-07-03T08:12:10Z</time>
      </trkpt>
      <trkpt lat="42.89609" lon="0.19884">
        <ele>2007.267</ele>
        <time>2022-07-03T08:12:19Z</time>
      </trkpt>
      <trkpt lat="42.89606" lon="0.19878">
        <ele>2007.189</ele>
        <time>2022-07-03T08:12:24Z</time>
      </trkpt>
      <trkpt lat="42.89601" lon="0.19874">
        <ele>2006.971</ele>
        <time>2022-07-03T08:12:29Z</time>
      </trkpt>
      <trkpt lat="42.89597" lon="0.19871">
        <ele>2006.846</ele>
        <time>2022-07-03T08:12:36Z</time>
      </trkpt>
      <trkpt lat="42.89595" lon="0.19865">
        <ele>2006.795</ele>
        <time>2022-07-03T08:12:42Z</time>
      </trkpt>
      <trkpt lat="42.89591" lon="0.19861">
        <ele>2006.749</ele>
        <time>2022-07-03T08:12:49Z</time>
      </trkpt>
      <trkpt lat="42.89586" lon="0.19859">
        <ele>2006.723</ele>
        <time>2022-07-03T08:13:01Z</time>
      </trkpt>
      <trkpt lat="42.89581" lon="0.19859">
        <ele>2007.009</ele>
        <time>2022-07-03T08:13:08Z</time>
      </trkpt>
      <trkpt lat="42.89575" lon="0.19859">
        <ele>2007.66</ele>
        <time>2022-07-03T08:13:16Z</time>
      </trkpt>
      <trkpt lat="42.89571" lon="0.19859">
        <ele>2007.989</ele>
        <time>2022-07-03T08:13:24Z</time>
      </trkpt>
      <trkpt lat="42.89566" lon="0.19859">
        <ele>2007.966</ele>
        <time>2022-07-03T08:13:28Z</time>
      </trkpt>
      <trkpt lat="42.89562" lon="0.19854">
        <ele>2007.969</ele>
        <time>2022-07-03T08:13:34Z</time>
      </trkpt>
      <trkpt lat="42.89557" lon="0.19851">
        <ele>2007.899</ele>
        <time>2022-07-03T08:13:40Z</time>
      </trkpt>
      <trkpt lat="42.89554" lon="0.19847">
        <ele>2007.867</ele>
        <time>2022-07-03T08:13:48Z</time>
      </trkpt>
      <trkpt lat="42.89546" lon="0.19845">
        <ele>2007.799</ele>
        <time>2022-07-03T08:13:54Z</time>
      </trkpt>
      <trkpt lat="42.89542" lon="0.19842">
        <ele>2007.831</ele>
        <time>2022-07-03T08:14:03Z</time>
      </trkpt>
      <trkpt lat="42.89539" lon="0.19837">
        <ele>2007.846</ele>
        <time>2022-07-03T08:14:10Z</time>
      </trkpt>
      <trkpt lat="42.89533" lon="0.19835">
        <ele>2007.862</ele>
        <time>2022-07-03T08:14:18Z</time>
      </trkpt>
      <trkpt lat="42.89529" lon="0.19834">
        <ele>2007.683</ele>
        <time>2022-07-03T08:14:29Z</time>
      </trkpt>
      <trkpt lat="42.89524" lon="0.19831">
        <ele>2007.311</ele>
        <time>2022-07-03T08:14:37Z</time>
      </trkpt>
      <trkpt lat="42.89522" lon="0.19825">
        <ele>2007.309</ele>
        <time>2022-07-03T08:14:47Z</time>
      </trkpt>
      <trkpt lat="42.89517" lon="0.19823">
        <ele>2007.377</ele>
        <time>2022-07-03T08:14:55Z</time>
      </trkpt>
      <trkpt lat="42.89513" lon="0.19823">
        <ele>2007.516</ele>
        <time>2022-07-03T08:15:01Z</time>
      </trkpt>
      <trkpt lat="42.89508" lon="0.19821">
        <ele>2007.833</ele>
        <time>2022-07-03T08:15:05Z</time>
      </trkpt>
      <trkpt lat="42.89504" lon="0.19819">
        <ele>2007.976</ele>
        <time>2022-07-03T08:15:11Z</time>
      </trkpt>
      <trkpt lat="42.895" lon="0.19816">
        <ele>2008.016</ele>
        <time>2022-07-03T08:15:16Z</time>
      </trkpt>
      <trkpt lat="42.89495" lon="0.19817">
        <ele>2008.024</ele>
        <time>2022-07-03T08:15:22Z</time>
      </trkpt>
      <trkpt lat="42.89492" lon="0.19812">
        <ele>2008.036</ele>
        <time>2022-07-03T08:15:27Z</time>
      </trkpt>
      <trkpt lat="42.89489" lon="0.19809">
        <ele>2008.468</ele>
        <time>2022-07-03T08:15:35Z</time>
      </trkpt>
      <trkpt lat="42.89485" lon="0.19805">
        <ele>2008.453</ele>
        <time>2022-07-03T08:15:40Z</time>
      </trkpt>
      <trkpt lat="42.89482" lon="0.19799">
        <ele>2008.483</ele>
        <time>2022-07-03T08:15:44Z</time>
      </trkpt>
      <trkpt lat="42.8948" lon="0.19793">
        <ele>2008.425</ele>
        <time>2022-07-03T08:15:48Z</time>
      </trkpt>
      <trkpt lat="42.89476" lon="0.19788">
        <ele>2008.417</ele>
        <time>2022-07-03T08:15:58Z</time>
      </trkpt>
      <trkpt lat="42.89471" lon="0.19785">
        <ele>2008.109</ele>
        <time>2022-07-03T08:16:04Z</time>
      </trkpt>
      <trkpt lat="42.89467" lon="0.1978">
        <ele>2008.079</ele>
        <time>2022-07-03T08:16:10Z</time>
      </trkpt>
      <trkpt lat="42.89464" lon="0.19775">
        <ele>2008.088</ele>
        <time>2022-07-03T08:16:16Z</time>
      </trkpt>
      <trkpt lat="42.89458" lon="0.19774">
        <ele>2008.085</ele>
        <time>2022-07-03T08:16:22Z</time>
      </trkpt>
      <trkpt lat="42.89453" lon="0.19774">
        <ele>2007.948</ele>
        <time>2022-07-03T08:16:28Z</time>
      </trkpt>
      <trkpt lat="42.8945" lon="0.19769">
        <ele>2007.928</ele>
        <time>2022-07-03T08:16:35Z</time>
      </trkpt>
      <trkpt lat="42.89447" lon="0.19762">
        <ele>2007.946</ele>
        <time>2022-07-03T08:16:43Z</time>
      </trkpt>
      <trkpt lat="42.89446" lon="0.19756">
        <ele>2008.278</ele>
        <time>2022-07-03T08:16:49Z</time>
      </trkpt>
      <trkpt lat="42.89443" lon="0.19752">
        <ele>2008.94</ele>
        <time>2022-07-03T08:16:57Z</time>
      </trkpt>
      <trkpt lat="42.89439" lon="0.19747">
        <ele>2009.715</ele>
        <time>2022-07-03T08:17:03Z</time>
      </trkpt>
      <trkpt lat="42.89435" lon="0.19743">
        <ele>2010.535</ele>
        <time>2022-07-03T08:17:08Z</time>
      </trkpt>
      <trkpt lat="42.89434" lon="0.19737">
        <ele>2011.286</ele>
        <time>2022-07-03T08:17:16Z</time>
      </trkpt>
      <trkpt lat="42.89431" lon="0.19731">
        <ele>2011.814</ele>
        <time>2022-07-03T08:17:23Z</time>
      </trkpt>
      <trkpt lat="42.89426" lon="0.1973">
        <ele>2012.809</ele>
        <time>2022-07-03T08:17:30Z</time>
      </trkpt>
      <trkpt lat="42.8942" lon="0.19729">
        <ele>2013.624</ele>
        <time>2022-07-03T08:17:34Z</time>
      </trkpt>
      <trkpt lat="42.89416" lon="0.19724">
        <ele>2014.043</ele>
        <time>2022-07-03T08:17:41Z</time>
      </trkpt>
      <trkpt lat="42.89415" lon="0.19718">
        <ele>2014.21</ele>
        <time>2022-07-03T08:17:49Z</time>
      </trkpt>
      <trkpt lat="42.89412" lon="0.19712">
        <ele>2014.363</ele>
        <time>2022-07-03T08:17:58Z</time>
      </trkpt>
      <trkpt lat="42.89408" lon="0.19709">
        <ele>2015.133</ele>
        <time>2022-07-03T08:18:04Z</time>
      </trkpt>
      <trkpt lat="42.89404" lon="0.19712">
        <ele>2016.481</ele>
        <time>2022-07-03T08:18:13Z</time>
      </trkpt>
      <trkpt lat="42.89401" lon="0.19717">
        <ele>2017.223</ele>
        <time>2022-07-03T08:18:20Z</time>
      </trkpt>
      <trkpt lat="42.89397" lon="0.19721">
        <ele>2018.165</ele>
        <time>2022-07-03T08:18:24Z</time>
      </trkpt>
      <trkpt lat="42.89395" lon="0.19726">
        <ele>2018.93</ele>
        <time>2022-07-03T08:18:30Z</time>
      </trkpt>
      <trkpt lat="42.8939" lon="0.19727">
        <ele>2019.122</ele>
        <time>2022-07-03T08:18:39Z</time>
      </trkpt>
      <trkpt lat="42.89384" lon="0.19725">
        <ele>2019.262</ele>
        <time>2022-07-03T08:18:46Z</time>
      </trkpt>
      <trkpt lat="42.89381" lon="0.1973">
        <ele>2019.608</ele>
        <time>2022-07-03T08:18:52Z</time>
      </trkpt>
      <trkpt lat="42.89377" lon="0.19728">
        <ele>2020.609</ele>
        <time>2022-07-03T08:19:01Z</time>
      </trkpt>
      <trkpt lat="42.89371" lon="0.19729">
        <ele>2021.923</ele>
        <time>2022-07-03T08:19:09Z</time>
      </trkpt>
      <trkpt lat="42.89367" lon="0.1973">
        <ele>2022.752</ele>
        <time>2022-07-03T08:19:14Z</time>
      </trkpt>
      <trkpt lat="42.89364" lon="0.19736">
        <ele>2022.889</ele>
        <time>2022-07-03T08:19:21Z</time>
      </trkpt>
      <trkpt lat="42.89361" lon="0.19741">
        <ele>2022.952</ele>
        <time>2022-07-03T08:19:25Z</time>
      </trkpt>
      <trkpt lat="42.89355" lon="0.19745">
        <ele>2022.972</ele>
        <time>2022-07-03T08:19:32Z</time>
      </trkpt>
      <trkpt lat="42.8935" lon="0.19744">
        <ele>2022.83</ele>
        <time>2022-07-03T08:19:37Z</time>
      </trkpt>
      <trkpt lat="42.89345" lon="0.19743">
        <ele>2022.772</ele>
        <time>2022-07-03T08:19:42Z</time>
      </trkpt>
      <trkpt lat="42.89341" lon="0.19742">
        <ele>2022.784</ele>
        <time>2022-07-03T08:19:48Z</time>
      </trkpt>
      <trkpt lat="42.89336" lon="0.19744">
        <ele>2022.839</ele>
        <time>2022-07-03T08:19:52Z</time>
      </trkpt>
      <trkpt lat="42.89332" lon="0.19742">
        <ele>2023.033</ele>
        <time>2022-07-03T08:19:57Z</time>
      </trkpt>
      <trkpt lat="42.89328" lon="0.19748">
        <ele>2023.623</ele>
        <time>2022-07-03T08:20:07Z</time>
      </trkpt>
      <trkpt lat="42.89325" lon="0.19754">
        <ele>2024.315</ele>
        <time>2022-07-03T08:20:22Z</time>
      </trkpt>
      <trkpt lat="42.89323" lon="0.19749">
        <ele>2025.509</ele>
        <time>2022-07-03T08:20:29Z</time>
      </trkpt>
      <trkpt lat="42.89318" lon="0.19748">
        <ele>2027.644</ele>
        <time>2022-07-03T08:20:40Z</time>
      </trkpt>
      <trkpt lat="42.89313" lon="0.19748">
        <ele>2029.253</ele>
        <time>2022-07-03T08:20:47Z</time>
      </trkpt>
      <trkpt lat="42.89312" lon="0.19742">
        <ele>2030.71</ele>
        <time>2022-07-03T08:20:54Z</time>
      </trkpt>
      <trkpt lat="42.89307" lon="0.19741">
        <ele>2032.273</ele>
        <time>2022-07-03T08:21:02Z</time>
      </trkpt>
      <trkpt lat="42.89303" lon="0.19737">
        <ele>2033.273</ele>
        <time>2022-07-03T08:21:10Z</time>
      </trkpt>
      <trkpt lat="42.893" lon="0.19742">
        <ele>2034.451</ele>
        <time>2022-07-03T08:21:15Z</time>
      </trkpt>
      <trkpt lat="42.89296" lon="0.19745">
        <ele>2035.673</ele>
        <time>2022-07-03T08:21:20Z</time>
      </trkpt>
      <trkpt lat="42.89292" lon="0.1975">
        <ele>2036.535</ele>
        <time>2022-07-03T08:21:32Z</time>
      </trkpt>
      <trkpt lat="42.89283" lon="0.1976">
        <ele>2037.64</ele>
        <time>2022-07-03T08:22:47Z</time>
      </trkpt>
      <trkpt lat="42.89281" lon="0.19766">
        <ele>2039.524</ele>
        <time>2022-07-03T08:22:52Z</time>
      </trkpt>
      <trkpt lat="42.89278" lon="0.19772">
        <ele>2040.904</ele>
        <time>2022-07-03T08:22:56Z</time>
      </trkpt>
      <trkpt lat="42.89278" lon="0.19778">
        <ele>2041.214</ele>
        <time>2022-07-03T08:23:01Z</time>
      </trkpt>
      <trkpt lat="42.89274" lon="0.19783">
        <ele>2041.309</ele>
        <time>2022-07-03T08:23:06Z</time>
      </trkpt>
      <trkpt lat="42.8927" lon="0.19787">
        <ele>2041.343</ele>
        <time>2022-07-03T08:23:10Z</time>
      </trkpt>
      <trkpt lat="42.89265" lon="0.19789">
        <ele>2041.482</ele>
        <time>2022-07-03T08:23:14Z</time>
      </trkpt>
      <trkpt lat="42.89262" lon="0.19795">
        <ele>2041.539</ele>
        <time>2022-07-03T08:23:20Z</time>
      </trkpt>
      <trkpt lat="42.89259" lon="0.19799">
        <ele>2041.752</ele>
        <time>2022-07-03T08:23:24Z</time>
      </trkpt>
      <trkpt lat="42.89254" lon="0.198">
        <ele>2042.052</ele>
        <time>2022-07-03T08:23:30Z</time>
      </trkpt>
      <trkpt lat="42.89251" lon="0.19805">
        <ele>2042.36</ele>
        <time>2022-07-03T08:23:38Z</time>
      </trkpt>
      <trkpt lat="42.89249" lon="0.19811">
        <ele>2042.632</ele>
        <time>2022-07-03T08:23:42Z</time>
      </trkpt>
      <trkpt lat="42.89247" lon="0.19819">
        <ele>2043.314</ele>
        <time>2022-07-03T08:23:46Z</time>
      </trkpt>
      <trkpt lat="42.89244" lon="0.19826">
        <ele>2044.089</ele>
        <time>2022-07-03T08:23:52Z</time>
      </trkpt>
      <trkpt lat="42.89241" lon="0.19831">
        <ele>2044.136</ele>
        <time>2022-07-03T08:23:58Z</time>
      </trkpt>
      <trkpt lat="42.89238" lon="0.19836">
        <ele>2044.117</ele>
        <time>2022-07-03T08:24:01Z</time>
      </trkpt>
      <trkpt lat="42.89233" lon="0.1984">
        <ele>2044.218</ele>
        <time>2022-07-03T08:24:06Z</time>
      </trkpt>
      <trkpt lat="42.89238" lon="0.19843">
        <ele>2044.309</ele>
        <time>2022-07-03T08:24:13Z</time>
      </trkpt>
      <trkpt lat="42.8924" lon="0.19849">
        <ele>2044.654</ele>
        <time>2022-07-03T08:24:21Z</time>
      </trkpt>
      <trkpt lat="42.89246" lon="0.19852">
        <ele>2045.373</ele>
        <time>2022-07-03T08:24:26Z</time>
      </trkpt>
      <trkpt lat="42.89249" lon="0.19856">
        <ele>2046.65</ele>
        <time>2022-07-03T08:24:31Z</time>
      </trkpt>
      <trkpt lat="42.89251" lon="0.19864">
        <ele>2047.763</ele>
        <time>2022-07-03T08:24:36Z</time>
      </trkpt>
      <trkpt lat="42.89255" lon="0.19869">
        <ele>2048.133</ele>
        <time>2022-07-03T08:24:42Z</time>
      </trkpt>
      <trkpt lat="42.89259" lon="0.19873">
        <ele>2048.271</ele>
        <time>2022-07-03T08:24:47Z</time>
      </trkpt>
      <trkpt lat="42.89263" lon="0.19875">
        <ele>2048.453</ele>
        <time>2022-07-03T08:24:54Z</time>
      </trkpt>
      <trkpt lat="42.89265" lon="0.19882">
        <ele>2048.945</ele>
        <time>2022-07-03T08:25:01Z</time>
      </trkpt>
      <trkpt lat="42.8927" lon="0.19886">
        <ele>2049.95</ele>
        <time>2022-07-03T08:25:06Z</time>
      </trkpt>
      <trkpt lat="42.89274" lon="0.1989">
        <ele>2051.254</ele>
        <time>2022-07-03T08:25:11Z</time>
      </trkpt>
      <trkpt lat="42.89277" lon="0.19896">
        <ele>2052.256</ele>
        <time>2022-07-03T08:25:15Z</time>
      </trkpt>
      <trkpt lat="42.89278" lon="0.19902">
        <ele>2052.611</ele>
        <time>2022-07-03T08:25:20Z</time>
      </trkpt>
      <trkpt lat="42.8928" lon="0.19908">
        <ele>2052.609</ele>
        <time>2022-07-03T08:25:24Z</time>
      </trkpt>
      <trkpt lat="42.89284" lon="0.19912">
        <ele>2052.676</ele>
        <time>2022-07-03T08:25:28Z</time>
      </trkpt>
      <trkpt lat="42.89285" lon="0.19919">
        <ele>2052.665</ele>
        <time>2022-07-03T08:25:32Z</time>
      </trkpt>
      <trkpt lat="42.89287" lon="0.19924">
        <ele>2052.762</ele>
        <time>2022-07-03T08:25:36Z</time>
      </trkpt>
      <trkpt lat="42.89282" lon="0.1993">
        <ele>2052.885</ele>
        <time>2022-07-03T08:25:44Z</time>
      </trkpt>
      <trkpt lat="42.89285" lon="0.19935">
        <ele>2052.985</ele>
        <time>2022-07-03T08:25:50Z</time>
      </trkpt>
      <trkpt lat="42.89283" lon="0.1994">
        <ele>2053.623</ele>
        <time>2022-07-03T08:25:59Z</time>
      </trkpt>
      <trkpt lat="42.8928" lon="0.19945">
        <ele>2054.755</ele>
        <time>2022-07-03T08:26:04Z</time>
      </trkpt>
      <trkpt lat="42.89275" lon="0.19949">
        <ele>2055.767</ele>
        <time>2022-07-03T08:26:12Z</time>
      </trkpt>
      <trkpt lat="42.8928" lon="0.19953">
        <ele>2056.732</ele>
        <time>2022-07-03T08:26:26Z</time>
      </trkpt>
      <trkpt lat="42.89284" lon="0.19955">
        <ele>2057.786</ele>
        <time>2022-07-03T08:26:35Z</time>
      </trkpt>
      <trkpt lat="42.89289" lon="0.19957">
        <ele>2059.36</ele>
        <time>2022-07-03T08:26:43Z</time>
      </trkpt>
      <trkpt lat="42.89293" lon="0.1996">
        <ele>2061.026</ele>
        <time>2022-07-03T08:26:48Z</time>
      </trkpt>
      <trkpt lat="42.89296" lon="0.19967">
        <ele>2062.209</ele>
        <time>2022-07-03T08:26:54Z</time>
      </trkpt>
      <trkpt lat="42.893" lon="0.19971">
        <ele>2063.069</ele>
        <time>2022-07-03T08:26:59Z</time>
      </trkpt>
      <trkpt lat="42.89299" lon="0.19977">
        <ele>2063.488</ele>
        <time>2022-07-03T08:27:03Z</time>
      </trkpt>
      <trkpt lat="42.89302" lon="0.19982">
        <ele>2063.835</ele>
        <time>2022-07-03T08:27:07Z</time>
      </trkpt>
      <trkpt lat="42.89303" lon="0.19989">
        <ele>2064.138</ele>
        <time>2022-07-03T08:27:13Z</time>
      </trkpt>
      <trkpt lat="42.89303" lon="0.19996">
        <ele>2064.228</ele>
        <time>2022-07-03T08:27:21Z</time>
      </trkpt>
      <trkpt lat="42.89303" lon="0.20002">
        <ele>2064.436</ele>
        <time>2022-07-03T08:27:28Z</time>
      </trkpt>
      <trkpt lat="42.89297" lon="0.20004">
        <ele>2065.088</ele>
        <time>2022-07-03T08:27:34Z</time>
      </trkpt>
      <trkpt lat="42.89293" lon="0.20003">
        <ele>2066.02</ele>
        <time>2022-07-03T08:27:40Z</time>
      </trkpt>
      <trkpt lat="42.89287" lon="0.20008">
        <ele>2067.225</ele>
        <time>2022-07-03T08:28:04Z</time>
      </trkpt>
      <trkpt lat="42.89283" lon="0.20013">
        <ele>2068.482</ele>
        <time>2022-07-03T08:28:13Z</time>
      </trkpt>
      <trkpt lat="42.89287" lon="0.20016">
        <ele>2072.143</ele>
        <time>2022-07-03T08:28:23Z</time>
      </trkpt>
      <trkpt lat="42.89288" lon="0.20023">
        <ele>2072.917</ele>
        <time>2022-07-03T08:28:35Z</time>
      </trkpt>
      <trkpt lat="42.89286" lon="0.20028">
        <ele>2075.009</ele>
        <time>2022-07-03T08:28:46Z</time>
      </trkpt>
      <trkpt lat="42.89281" lon="0.20027">
        <ele>2075.929</ele>
        <time>2022-07-03T08:28:54Z</time>
      </trkpt>
      <trkpt lat="42.89275" lon="0.20027">
        <ele>2077.688</ele>
        <time>2022-07-03T08:29:04Z</time>
      </trkpt>
      <trkpt lat="42.8927" lon="0.20031">
        <ele>2079.365</ele>
        <time>2022-07-03T08:29:12Z</time>
      </trkpt>
      <trkpt lat="42.89275" lon="0.20032">
        <ele>2080.888</ele>
        <time>2022-07-03T08:29:16Z</time>
      </trkpt>
      <trkpt lat="42.89278" lon="0.20038">
        <ele>2082.118</ele>
        <time>2022-07-03T08:29:25Z</time>
      </trkpt>
      <trkpt lat="42.89279" lon="0.20044">
        <ele>2083.086</ele>
        <time>2022-07-03T08:29:33Z</time>
      </trkpt>
      <trkpt lat="42.89277" lon="0.20051">
        <ele>2083.868</ele>
        <time>2022-07-03T08:29:40Z</time>
      </trkpt>
      <trkpt lat="42.89276" lon="0.20057">
        <ele>2085.04</ele>
        <time>2022-07-03T08:29:48Z</time>
      </trkpt>
      <trkpt lat="42.89274" lon="0.20062">
        <ele>2085.865</ele>
        <time>2022-07-03T08:29:54Z</time>
      </trkpt>
      <trkpt lat="42.89272" lon="0.20068">
        <ele>2086.783</ele>
        <time>2022-07-03T08:30:05Z</time>
      </trkpt>
      <trkpt lat="42.89271" lon="0.20075">
        <ele>2087.725</ele>
        <time>2022-07-03T08:30:12Z</time>
      </trkpt>
      <trkpt lat="42.89266" lon="0.20076">
        <ele>2088.917</ele>
        <time>2022-07-03T08:30:20Z</time>
      </trkpt>
      <trkpt lat="42.89261" lon="0.20077">
        <ele>2090.209</ele>
        <time>2022-07-03T08:30:27Z</time>
      </trkpt>
      <trkpt lat="42.89257" lon="0.20081">
        <ele>2091.049</ele>
        <time>2022-07-03T08:30:33Z</time>
      </trkpt>
      <trkpt lat="42.89252" lon="0.20083">
        <ele>2091.358</ele>
        <time>2022-07-03T08:30:38Z</time>
      </trkpt>
      <trkpt lat="42.89248" lon="0.20086">
        <ele>2091.455</ele>
        <time>2022-07-03T08:30:45Z</time>
      </trkpt>
      <trkpt lat="42.89243" lon="0.20085">
        <ele>2091.518</ele>
        <time>2022-07-03T08:30:50Z</time>
      </trkpt>
      <trkpt lat="42.89238" lon="0.20088">
        <ele>2091.568</ele>
        <time>2022-07-03T08:30:55Z</time>
      </trkpt>
      <trkpt lat="42.89234" lon="0.2009">
        <ele>2091.536</ele>
        <time>2022-07-03T08:31:01Z</time>
      </trkpt>
      <trkpt lat="42.89229" lon="0.20086">
        <ele>2091.628</ele>
        <time>2022-07-03T08:31:07Z</time>
      </trkpt>
      <trkpt lat="42.89225" lon="0.20085">
        <ele>2091.74</ele>
        <time>2022-07-03T08:31:14Z</time>
      </trkpt>
      <trkpt lat="42.8922" lon="0.20088">
        <ele>2091.825</ele>
        <time>2022-07-03T08:31:20Z</time>
      </trkpt>
      <trkpt lat="42.89216" lon="0.20092">
        <ele>2091.847</ele>
        <time>2022-07-03T08:31:29Z</time>
      </trkpt>
      <trkpt lat="42.89211" lon="0.20096">
        <ele>2091.829</ele>
        <time>2022-07-03T08:31:34Z</time>
      </trkpt>
      <trkpt lat="42.89205" lon="0.201">
        <ele>2091.421</ele>
        <time>2022-07-03T08:31:40Z</time>
      </trkpt>
      <trkpt lat="42.89201" lon="0.20103">
        <ele>2091.209</ele>
        <time>2022-07-03T08:31:44Z</time>
      </trkpt>
      <trkpt lat="42.89196" lon="0.20105">
        <ele>2091.265</ele>
        <time>2022-07-03T08:31:49Z</time>
      </trkpt>
      <trkpt lat="42.89191" lon="0.20103">
        <ele>2090.984</ele>
        <time>2022-07-03T08:31:54Z</time>
      </trkpt>
      <trkpt lat="42.89186" lon="0.20104">
        <ele>2090.711</ele>
        <time>2022-07-03T08:31:58Z</time>
      </trkpt>
      <trkpt lat="42.89181" lon="0.20105">
        <ele>2090.624</ele>
        <time>2022-07-03T08:32:03Z</time>
      </trkpt>
      <trkpt lat="42.89176" lon="0.20106">
        <ele>2090.684</ele>
        <time>2022-07-03T08:32:09Z</time>
      </trkpt>
      <trkpt lat="42.89173" lon="0.201">
        <ele>2090.652</ele>
        <time>2022-07-03T08:32:16Z</time>
      </trkpt>
      <trkpt lat="42.8917" lon="0.20094">
        <ele>2091.114</ele>
        <time>2022-07-03T08:32:25Z</time>
      </trkpt>
      <trkpt lat="42.89166" lon="0.20098">
        <ele>2091.846</ele>
        <time>2022-07-03T08:32:32Z</time>
      </trkpt>
      <trkpt lat="42.89163" lon="0.20093">
        <ele>2093.071</ele>
        <time>2022-07-03T08:32:43Z</time>
      </trkpt>
      <trkpt lat="42.89159" lon="0.2009">
        <ele>2094.497</ele>
        <time>2022-07-03T08:32:51Z</time>
      </trkpt>
      <trkpt lat="42.89155" lon="0.20086">
        <ele>2095.623</ele>
        <time>2022-07-03T08:33:03Z</time>
      </trkpt>
      <trkpt lat="42.8915" lon="0.20088">
        <ele>2096.925</ele>
        <time>2022-07-03T08:33:10Z</time>
      </trkpt>
      <trkpt lat="42.89147" lon="0.20083">
        <ele>2098.509</ele>
        <time>2022-07-03T08:33:18Z</time>
      </trkpt>
      <trkpt lat="42.89143" lon="0.20087">
        <ele>2099.94</ele>
        <time>2022-07-03T08:33:27Z</time>
      </trkpt>
      <trkpt lat="42.89137" lon="0.20089">
        <ele>2101.359</ele>
        <time>2022-07-03T08:33:41Z</time>
      </trkpt>
      <trkpt lat="42.89132" lon="0.20087">
        <ele>2103.046</ele>
        <time>2022-07-03T08:33:49Z</time>
      </trkpt>
      <trkpt lat="42.89128" lon="0.20083">
        <ele>2104.979</ele>
        <time>2022-07-03T08:33:58Z</time>
      </trkpt>
      <trkpt lat="42.89133" lon="0.20082">
        <ele>2106.249</ele>
        <time>2022-07-03T08:35:42Z</time>
      </trkpt>
      <trkpt lat="42.89137" lon="0.20086">
        <ele>2106.487</ele>
        <time>2022-07-03T08:35:49Z</time>
      </trkpt>
      <trkpt lat="42.89137" lon="0.20096">
        <ele>2106.659</ele>
        <time>2022-07-03T08:36:05Z</time>
      </trkpt>
      <trkpt lat="42.89137" lon="0.20102">
        <ele>2106.821</ele>
        <time>2022-07-03T08:36:11Z</time>
      </trkpt>
      <trkpt lat="42.89133" lon="0.20107">
        <ele>2107.466</ele>
        <time>2022-07-03T08:36:14Z</time>
      </trkpt>
      <trkpt lat="42.89129" lon="0.2011">
        <ele>2108.724</ele>
        <time>2022-07-03T08:36:24Z</time>
      </trkpt>
      <trkpt lat="42.89124" lon="0.20109">
        <ele>2109.404</ele>
        <time>2022-07-03T08:36:33Z</time>
      </trkpt>
      <trkpt lat="42.89119" lon="0.20111">
        <ele>2110.214</ele>
        <time>2022-07-03T08:36:44Z</time>
      </trkpt>
      <trkpt lat="42.89119" lon="0.20117">
        <ele>2111.809</ele>
        <time>2022-07-03T08:36:50Z</time>
      </trkpt>
      <trkpt lat="42.89117" lon="0.20124">
        <ele>2113.493</ele>
        <time>2022-07-03T08:36:57Z</time>
      </trkpt>
      <trkpt lat="42.89116" lon="0.2013">
        <ele>2114.572</ele>
        <time>2022-07-03T08:37:05Z</time>
      </trkpt>
      <trkpt lat="42.89112" lon="0.20131">
        <ele>2115.669</ele>
        <time>2022-07-03T08:37:11Z</time>
      </trkpt>
      <trkpt lat="42.89107" lon="0.20134">
        <ele>2117.022</ele>
        <time>2022-07-03T08:37:17Z</time>
      </trkpt>
      <trkpt lat="42.89104" lon="0.2014">
        <ele>2118.482</ele>
        <time>2022-07-03T08:37:24Z</time>
      </trkpt>
      <trkpt lat="42.89101" lon="0.20145">
        <ele>2119.59</ele>
        <time>2022-07-03T08:37:30Z</time>
      </trkpt>
      <trkpt lat="42.89098" lon="0.20151">
        <ele>2120.162</ele>
        <time>2022-07-03T08:37:37Z</time>
      </trkpt>
      <trkpt lat="42.89093" lon="0.20153">
        <ele>2120.644</ele>
        <time>2022-07-03T08:37:44Z</time>
      </trkpt>
      <trkpt lat="42.89091" lon="0.20159">
        <ele>2120.879</ele>
        <time>2022-07-03T08:37:50Z</time>
      </trkpt>
      <trkpt lat="42.89087" lon="0.20163">
        <ele>2120.933</ele>
        <time>2022-07-03T08:37:56Z</time>
      </trkpt>
      <trkpt lat="42.89082" lon="0.20161">
        <ele>2120.923</ele>
        <time>2022-07-03T08:38:07Z</time>
      </trkpt>
      <trkpt lat="42.89077" lon="0.20162">
        <ele>2120.915</ele>
        <time>2022-07-03T08:38:15Z</time>
      </trkpt>
      <trkpt lat="42.89075" lon="0.20169">
        <ele>2120.609</ele>
        <time>2022-07-03T08:38:24Z</time>
      </trkpt>
      <trkpt lat="42.89075" lon="0.20175">
        <ele>2119.734</ele>
        <time>2022-07-03T08:38:27Z</time>
      </trkpt>
      <trkpt lat="42.89074" lon="0.20181">
        <ele>2118.473</ele>
        <time>2022-07-03T08:38:33Z</time>
      </trkpt>
      <trkpt lat="42.89071" lon="0.20187">
        <ele>2117.68</ele>
        <time>2022-07-03T08:38:39Z</time>
      </trkpt>
      <trkpt lat="42.89068" lon="0.20195">
        <ele>2117.063</ele>
        <time>2022-07-03T08:38:44Z</time>
      </trkpt>
      <trkpt lat="42.89065" lon="0.202">
        <ele>2116.283</ele>
        <time>2022-07-03T08:38:50Z</time>
      </trkpt>
      <trkpt lat="42.89061" lon="0.20206">
        <ele>2116.271</ele>
        <time>2022-07-03T08:38:58Z</time>
      </trkpt>
      <trkpt lat="42.89056" lon="0.2021">
        <ele>2115.823</ele>
        <time>2022-07-03T08:39:10Z</time>
      </trkpt>
      <trkpt lat="42.89051" lon="0.20213">
        <ele>2116.655</ele>
        <time>2022-07-03T08:39:14Z</time>
      </trkpt>
      <trkpt lat="42.89048" lon="0.20219">
        <ele>2119.34</ele>
        <time>2022-07-03T08:39:22Z</time>
      </trkpt>
      <trkpt lat="42.89043" lon="0.20219">
        <ele>2119.338</ele>
        <time>2022-07-03T08:39:30Z</time>
      </trkpt>
      <trkpt lat="42.89043" lon="0.20226">
        <ele>2119.27</ele>
        <time>2022-07-03T08:40:09Z</time>
      </trkpt>
      <trkpt lat="42.89043" lon="0.20233">
        <ele>2119.217</ele>
        <time>2022-07-03T08:40:14Z</time>
      </trkpt>
      <trkpt lat="42.89043" lon="0.20239">
        <ele>2118.609</ele>
        <time>2022-07-03T08:40:19Z</time>
      </trkpt>
      <trkpt lat="42.89038" lon="0.20241">
        <ele>2117.954</ele>
        <time>2022-07-03T08:40:25Z</time>
      </trkpt>
      <trkpt lat="42.89034" lon="0.20245">
        <ele>2117.653</ele>
        <time>2022-07-03T08:40:30Z</time>
      </trkpt>
      <trkpt lat="42.8903" lon="0.20248">
        <ele>2117.29</ele>
        <time>2022-07-03T08:40:37Z</time>
      </trkpt>
      <trkpt lat="42.89023" lon="0.20261">
        <ele>2115.843</ele>
        <time>2022-07-03T08:40:59Z</time>
      </trkpt>
      <trkpt lat="42.89018" lon="0.20263">
        <ele>2114.883</ele>
        <time>2022-07-03T08:41:34Z</time>
      </trkpt>
      <trkpt lat="42.89014" lon="0.20267">
        <ele>2111.811</ele>
        <time>2022-07-03T08:41:46Z</time>
      </trkpt>
      <trkpt lat="42.89009" lon="0.20271">
        <ele>2109.583</ele>
        <time>2022-07-03T08:42:19Z</time>
      </trkpt>
      <trkpt lat="42.89005" lon="0.20275">
        <ele>2109.165</ele>
        <time>2022-07-03T08:42:23Z</time>
      </trkpt>
      <trkpt lat="42.89" lon="0.20282">
        <ele>2107.69</ele>
        <time>2022-07-03T08:42:27Z</time>
      </trkpt>
      <trkpt lat="42.88997" lon="0.20288">
        <ele>2107.162</ele>
        <time>2022-07-03T08:42:35Z</time>
      </trkpt>
      <trkpt lat="42.88996" lon="0.20294">
        <ele>2106.283</ele>
        <time>2022-07-03T08:42:42Z</time>
      </trkpt>
      <trkpt lat="42.88992" lon="0.20299">
        <ele>2105.211</ele>
        <time>2022-07-03T08:42:47Z</time>
      </trkpt>
      <trkpt lat="42.88988" lon="0.20305">
        <ele>2104.709</ele>
        <time>2022-07-03T08:42:52Z</time>
      </trkpt>
      <trkpt lat="42.88984" lon="0.20311">
        <ele>2104.457</ele>
        <time>2022-07-03T08:43:05Z</time>
      </trkpt>
      <trkpt lat="42.88984" lon="0.20319">
        <ele>2104.096</ele>
        <time>2022-07-03T08:43:13Z</time>
      </trkpt>
      <trkpt lat="42.88976" lon="0.2033">
        <ele>2103.353</ele>
        <time>2022-07-03T08:43:57Z</time>
      </trkpt>
      <trkpt lat="42.88974" lon="0.20336">
        <ele>2101.236</ele>
        <time>2022-07-03T08:44:04Z</time>
      </trkpt>
      <trkpt lat="42.88969" lon="0.20338">
        <ele>2098.936</ele>
        <time>2022-07-03T08:44:19Z</time>
      </trkpt>
      <trkpt lat="42.88968" lon="0.20344">
        <ele>2098.494</ele>
        <time>2022-07-03T08:44:23Z</time>
      </trkpt>
      <trkpt lat="42.88969" lon="0.2035">
        <ele>2095.446</ele>
        <time>2022-07-03T08:44:31Z</time>
      </trkpt>
      <trkpt lat="42.88966" lon="0.20355">
        <ele>2095.288</ele>
        <time>2022-07-03T08:44:36Z</time>
      </trkpt>
      <trkpt lat="42.88962" lon="0.20359">
        <ele>2094.813</ele>
        <time>2022-07-03T08:44:43Z</time>
      </trkpt>
      <trkpt lat="42.88958" lon="0.20364">
        <ele>2094.498</ele>
        <time>2022-07-03T08:44:50Z</time>
      </trkpt>
      <trkpt lat="42.88944" lon="0.20383">
        <ele>2092.315</ele>
        <time>2022-07-03T08:46:56Z</time>
      </trkpt>
      <trkpt lat="42.8894" lon="0.20387">
        <ele>2087.326</ele>
        <time>2022-07-03T08:47:05Z</time>
      </trkpt>
      <trkpt lat="42.88936" lon="0.20386">
        <ele>2085.909</ele>
        <time>2022-07-03T08:47:25Z</time>
      </trkpt>
      <trkpt lat="42.88923" lon="0.20399">
        <ele>2084.38</ele>
        <time>2022-07-03T08:48:08Z</time>
      </trkpt>
      <trkpt lat="42.8892" lon="0.20406">
        <ele>2081.179</ele>
        <time>2022-07-03T08:48:16Z</time>
      </trkpt>
      <trkpt lat="42.88916" lon="0.20411">
        <ele>2079.246</ele>
        <time>2022-07-03T08:48:24Z</time>
      </trkpt>
      <trkpt lat="42.88917" lon="0.20417">
        <ele>2079.389</ele>
        <time>2022-07-03T08:48:29Z</time>
      </trkpt>
      <trkpt lat="42.88914" lon="0.20423">
        <ele>2079.429</ele>
        <time>2022-07-03T08:48:34Z</time>
      </trkpt>
      <trkpt lat="42.88909" lon="0.20427">
        <ele>2079.467</ele>
        <time>2022-07-03T08:48:43Z</time>
      </trkpt>
      <trkpt lat="42.88905" lon="0.20429">
        <ele>2079.849</ele>
        <time>2022-07-03T08:48:52Z</time>
      </trkpt>
      <trkpt lat="42.88901" lon="0.20434">
        <ele>2080.511</ele>
        <time>2022-07-03T08:49:00Z</time>
      </trkpt>
      <trkpt lat="42.88896" lon="0.20434">
        <ele>2080.876</ele>
        <time>2022-07-03T08:49:07Z</time>
      </trkpt>
      <trkpt lat="42.88893" lon="0.2044">
        <ele>2080.889</ele>
        <time>2022-07-03T08:49:12Z</time>
      </trkpt>
      <trkpt lat="42.8889" lon="0.20445">
        <ele>2080.806</ele>
        <time>2022-07-03T08:49:18Z</time>
      </trkpt>
      <trkpt lat="42.88885" lon="0.20445">
        <ele>2080.626</ele>
        <time>2022-07-03T08:49:33Z</time>
      </trkpt>
      <trkpt lat="42.8888" lon="0.20447">
        <ele>2080.309</ele>
        <time>2022-07-03T08:49:39Z</time>
      </trkpt>
      <trkpt lat="42.88873" lon="0.20449">
        <ele>2079.969</ele>
        <time>2022-07-03T08:49:51Z</time>
      </trkpt>
      <trkpt lat="42.88876" lon="0.20455">
        <ele>2079.348</ele>
        <time>2022-07-03T08:50:03Z</time>
      </trkpt>
      <trkpt lat="42.88874" lon="0.20447">
        <ele>2077.685</ele>
        <time>2022-07-03T08:50:42Z</time>
      </trkpt>
      <trkpt lat="42.8888" lon="0.20446">
        <ele>2077.628</ele>
        <time>2022-07-03T08:51:18Z</time>
      </trkpt>
      <trkpt lat="42.88885" lon="0.20445">
        <ele>2077.668</ele>
        <time>2022-07-03T08:51:26Z</time>
      </trkpt>
      <trkpt lat="42.88889" lon="0.20441">
        <ele>2078.176</ele>
        <time>2022-07-03T08:51:33Z</time>
      </trkpt>
      <trkpt lat="42.88891" lon="0.20436">
        <ele>2078.988</ele>
        <time>2022-07-03T08:51:36Z</time>
      </trkpt>
      <trkpt lat="42.88897" lon="0.20435">
        <ele>2079.32</ele>
        <time>2022-07-03T08:51:46Z</time>
      </trkpt>
      <trkpt lat="42.88902" lon="0.20438">
        <ele>2079.875</ele>
        <time>2022-07-03T08:52:15Z</time>
      </trkpt>
      <trkpt lat="42.88901" lon="0.20444">
        <ele>2080.264</ele>
        <time>2022-07-03T08:52:21Z</time>
      </trkpt>
      <trkpt lat="42.88901" lon="0.20452">
        <ele>2080.306</ele>
        <time>2022-07-03T08:52:28Z</time>
      </trkpt>
      <trkpt lat="42.88902" lon="0.20459">
        <ele>2080.516</ele>
        <time>2022-07-03T08:52:33Z</time>
      </trkpt>
      <trkpt lat="42.88901" lon="0.20466">
        <ele>2080.609</ele>
        <time>2022-07-03T08:52:41Z</time>
      </trkpt>
      <trkpt lat="42.88899" lon="0.20472">
        <ele>2080.767</ele>
        <time>2022-07-03T08:52:47Z</time>
      </trkpt>
      <trkpt lat="42.88895" lon="0.20473">
        <ele>2080.786</ele>
        <time>2022-07-03T08:52:53Z</time>
      </trkpt>
      <trkpt lat="42.88896" lon="0.2048">
        <ele>2080.673</ele>
        <time>2022-07-03T08:53:02Z</time>
      </trkpt>
      <trkpt lat="42.88894" lon="0.20486">
        <ele>2080.836</ele>
        <time>2022-07-03T08:53:11Z</time>
      </trkpt>
      <trkpt lat="42.88891" lon="0.20492">
        <ele>2080.916</ele>
        <time>2022-07-03T08:53:17Z</time>
      </trkpt>
      <trkpt lat="42.88889" lon="0.20497">
        <ele>2080.924</ele>
        <time>2022-07-03T08:53:25Z</time>
      </trkpt>
      <trkpt lat="42.88885" lon="0.20502">
        <ele>2081.526</ele>
        <time>2022-07-03T08:53:31Z</time>
      </trkpt>
      <trkpt lat="42.88883" lon="0.20508">
        <ele>2082.778</ele>
        <time>2022-07-03T08:53:39Z</time>
      </trkpt>
      <trkpt lat="42.88882" lon="0.20515">
        <ele>2083.753</ele>
        <time>2022-07-03T08:53:46Z</time>
      </trkpt>
      <trkpt lat="42.88879" lon="0.2052">
        <ele>2084.747</ele>
        <time>2022-07-03T08:53:53Z</time>
      </trkpt>
      <trkpt lat="42.88874" lon="0.20519">
        <ele>2085.829</ele>
        <time>2022-07-03T08:54:00Z</time>
      </trkpt>
      <trkpt lat="42.8887" lon="0.20518">
        <ele>2086.821</ele>
        <time>2022-07-03T08:54:08Z</time>
      </trkpt>
      <trkpt lat="42.88865" lon="0.20516">
        <ele>2087.509</ele>
        <time>2022-07-03T08:54:14Z</time>
      </trkpt>
      <trkpt lat="42.88861" lon="0.20514">
        <ele>2087.825</ele>
        <time>2022-07-03T08:54:21Z</time>
      </trkpt>
      <trkpt lat="42.88856" lon="0.20513">
        <ele>2088.274</ele>
        <time>2022-07-03T08:54:26Z</time>
      </trkpt>
      <trkpt lat="42.88851" lon="0.20515">
        <ele>2088.551</ele>
        <time>2022-07-03T08:54:32Z</time>
      </trkpt>
      <trkpt lat="42.88847" lon="0.20518">
        <ele>2088.584</ele>
        <time>2022-07-03T08:54:36Z</time>
      </trkpt>
      <trkpt lat="42.88842" lon="0.20521">
        <ele>2088.744</ele>
        <time>2022-07-03T08:54:43Z</time>
      </trkpt>
      <trkpt lat="42.88839" lon="0.20515">
        <ele>2088.732</ele>
        <time>2022-07-03T08:54:52Z</time>
      </trkpt>
      <trkpt lat="42.88835" lon="0.20514">
        <ele>2088.744</ele>
        <time>2022-07-03T08:54:59Z</time>
      </trkpt>
      <trkpt lat="42.8883" lon="0.20517">
        <ele>2088.746</ele>
        <time>2022-07-03T08:55:05Z</time>
      </trkpt>
      <trkpt lat="42.88825" lon="0.20518">
        <ele>2088.431</ele>
        <time>2022-07-03T08:55:11Z</time>
      </trkpt>
      <trkpt lat="42.88821" lon="0.20517">
        <ele>2088.212</ele>
        <time>2022-07-03T08:55:20Z</time>
      </trkpt>
      <trkpt lat="42.88816" lon="0.20515">
        <ele>2088.032</ele>
        <time>2022-07-03T08:55:27Z</time>
      </trkpt>
      <trkpt lat="42.8881" lon="0.20515">
        <ele>2087.805</ele>
        <time>2022-07-03T08:55:46Z</time>
      </trkpt>
      <trkpt lat="42.88805" lon="0.20516">
        <ele>2087.709</ele>
        <time>2022-07-03T08:55:52Z</time>
      </trkpt>
      <trkpt lat="42.88801" lon="0.20521">
        <ele>2086.982</ele>
        <time>2022-07-03T08:55:57Z</time>
      </trkpt>
      <trkpt lat="42.88795" lon="0.20521">
        <ele>2086.151</ele>
        <time>2022-07-03T08:56:05Z</time>
      </trkpt>
      <trkpt lat="42.8879" lon="0.20521">
        <ele>2086.118</ele>
        <time>2022-07-03T08:56:11Z</time>
      </trkpt>
      <trkpt lat="42.88785" lon="0.2052">
        <ele>2086.081</ele>
        <time>2022-07-03T08:56:17Z</time>
      </trkpt>
      <trkpt lat="42.8878" lon="0.20518">
        <ele>2085.941</ele>
        <time>2022-07-03T08:56:25Z</time>
      </trkpt>
      <trkpt lat="42.88774" lon="0.20521">
        <ele>2085.969</ele>
        <time>2022-07-03T08:56:32Z</time>
      </trkpt>
      <trkpt lat="42.8877" lon="0.20517">
        <ele>2086.031</ele>
        <time>2022-07-03T08:56:37Z</time>
      </trkpt>
      <trkpt lat="42.88768" lon="0.20524">
        <ele>2085.943</ele>
        <time>2022-07-03T08:56:45Z</time>
      </trkpt>
      <trkpt lat="42.88763" lon="0.20523">
        <ele>2086.168</ele>
        <time>2022-07-03T08:56:56Z</time>
      </trkpt>
      <trkpt lat="42.88759" lon="0.20521">
        <ele>2086.968</ele>
        <time>2022-07-03T08:57:00Z</time>
      </trkpt>
      <trkpt lat="42.88753" lon="0.2052">
        <ele>2088.542</ele>
        <time>2022-07-03T08:57:09Z</time>
      </trkpt>
      <trkpt lat="42.88749" lon="0.20523">
        <ele>2089.826</ele>
        <time>2022-07-03T08:57:15Z</time>
      </trkpt>
      <trkpt lat="42.88748" lon="0.20529">
        <ele>2090.409</ele>
        <time>2022-07-03T08:57:21Z</time>
      </trkpt>
      <trkpt lat="42.88745" lon="0.20534">
        <ele>2090.767</ele>
        <time>2022-07-03T08:57:26Z</time>
      </trkpt>
      <trkpt lat="42.88742" lon="0.20538">
        <ele>2090.916</ele>
        <time>2022-07-03T08:57:32Z</time>
      </trkpt>
      <trkpt lat="42.88737" lon="0.20534">
        <ele>2090.913</ele>
        <time>2022-07-03T08:57:42Z</time>
      </trkpt>
      <trkpt lat="42.88731" lon="0.20533">
        <ele>2090.766</ele>
        <time>2022-07-03T08:57:48Z</time>
      </trkpt>
      <trkpt lat="42.88727" lon="0.20536">
        <ele>2090.426</ele>
        <time>2022-07-03T08:57:53Z</time>
      </trkpt>
      <trkpt lat="42.88722" lon="0.20537">
        <ele>2089.784</ele>
        <time>2022-07-03T08:58:02Z</time>
      </trkpt>
      <trkpt lat="42.88718" lon="0.20536">
        <ele>2088.936</ele>
        <time>2022-07-03T08:58:13Z</time>
      </trkpt>
      <trkpt lat="42.88713" lon="0.20535">
        <ele>2088.048</ele>
        <time>2022-07-03T08:58:20Z</time>
      </trkpt>
      <trkpt lat="42.88709" lon="0.20537">
        <ele>2086.693</ele>
        <time>2022-07-03T08:58:29Z</time>
      </trkpt>
      <trkpt lat="42.88704" lon="0.20537">
        <ele>2085.287</ele>
        <time>2022-07-03T08:58:40Z</time>
      </trkpt>
      <trkpt lat="42.88699" lon="0.20537">
        <ele>2084.042</ele>
        <time>2022-07-03T08:58:49Z</time>
      </trkpt>
      <trkpt lat="42.88694" lon="0.20539">
        <ele>2082.526</ele>
        <time>2022-07-03T08:58:57Z</time>
      </trkpt>
      <trkpt lat="42.88687" lon="0.20539">
        <ele>2081.509</ele>
        <time>2022-07-03T08:59:08Z</time>
      </trkpt>
      <trkpt lat="42.88682" lon="0.20544">
        <ele>2081.339</ele>
        <time>2022-07-03T08:59:14Z</time>
      </trkpt>
      <trkpt lat="42.88677" lon="0.20542">
        <ele>2080.698</ele>
        <time>2022-07-03T08:59:20Z</time>
      </trkpt>
      <trkpt lat="42.88673" lon="0.2054">
        <ele>2080.455</ele>
        <time>2022-07-03T08:59:29Z</time>
      </trkpt>
      <trkpt lat="42.88668" lon="0.20542">
        <ele>2080.278</ele>
        <time>2022-07-03T08:59:34Z</time>
      </trkpt>
      <trkpt lat="42.88664" lon="0.20546">
        <ele>2079.748</ele>
        <time>2022-07-03T08:59:38Z</time>
      </trkpt>
      <trkpt lat="42.88662" lon="0.20552">
        <ele>2078.616</ele>
        <time>2022-07-03T08:59:44Z</time>
      </trkpt>
      <trkpt lat="42.88658" lon="0.20557">
        <ele>2078.698</ele>
        <time>2022-07-03T08:59:51Z</time>
      </trkpt>
      <trkpt lat="42.88654" lon="0.2056">
        <ele>2078.55</ele>
        <time>2022-07-03T08:59:59Z</time>
      </trkpt>
      <trkpt lat="42.88652" lon="0.20566">
        <ele>2078.595</ele>
        <time>2022-07-03T09:00:06Z</time>
      </trkpt>
      <trkpt lat="42.88649" lon="0.20573">
        <ele>2079.116</ele>
        <time>2022-07-03T09:00:13Z</time>
      </trkpt>
      <trkpt lat="42.88645" lon="0.20577">
        <ele>2079.576</ele>
        <time>2022-07-03T09:00:20Z</time>
      </trkpt>
      <trkpt lat="42.88643" lon="0.20582">
        <ele>2080.113</ele>
        <time>2022-07-03T09:00:26Z</time>
      </trkpt>
      <trkpt lat="42.8864" lon="0.20588">
        <ele>2080.409</ele>
        <time>2022-07-03T09:00:31Z</time>
      </trkpt>
      <trkpt lat="42.88638" lon="0.20594">
        <ele>2080.452</ele>
        <time>2022-07-03T09:00:36Z</time>
      </trkpt>
      <trkpt lat="42.88634" lon="0.20599">
        <ele>2080.421</ele>
        <time>2022-07-03T09:00:41Z</time>
      </trkpt>
      <trkpt lat="42.8863" lon="0.20603">
        <ele>2080.488</ele>
        <time>2022-07-03T09:00:48Z</time>
      </trkpt>
      <trkpt lat="42.88627" lon="0.2061">
        <ele>2080.451</ele>
        <time>2022-07-03T09:00:52Z</time>
      </trkpt>
      <trkpt lat="42.88623" lon="0.20614">
        <ele>2080.781</ele>
        <time>2022-07-03T09:01:00Z</time>
      </trkpt>
      <trkpt lat="42.88622" lon="0.20621">
        <ele>2081.269</ele>
        <time>2022-07-03T09:01:07Z</time>
      </trkpt>
      <trkpt lat="42.8862" lon="0.20627">
        <ele>2082.181</ele>
        <time>2022-07-03T09:01:14Z</time>
      </trkpt>
      <trkpt lat="42.88615" lon="0.20631">
        <ele>2083.583</ele>
        <time>2022-07-03T09:01:20Z</time>
      </trkpt>
      <trkpt lat="42.8861" lon="0.20629">
        <ele>2083.788</ele>
        <time>2022-07-03T09:01:34Z</time>
      </trkpt>
      <trkpt lat="42.88607" lon="0.20634">
        <ele>2083.762</ele>
        <time>2022-07-03T09:01:41Z</time>
      </trkpt>
      <trkpt lat="42.88604" lon="0.20638">
        <ele>2083.783</ele>
        <time>2022-07-03T09:01:46Z</time>
      </trkpt>
      <trkpt lat="42.88599" lon="0.20634">
        <ele>2082.911</ele>
        <time>2022-07-03T09:01:55Z</time>
      </trkpt>
      <trkpt lat="42.88594" lon="0.20631">
        <ele>2082.209</ele>
        <time>2022-07-03T09:02:05Z</time>
      </trkpt>
      <trkpt lat="42.88589" lon="0.20633">
        <ele>2081.427</ele>
        <time>2022-07-03T09:02:14Z</time>
      </trkpt>
      <trkpt lat="42.88584" lon="0.20638">
        <ele>2079.436</ele>
        <time>2022-07-03T09:02:23Z</time>
      </trkpt>
      <trkpt lat="42.88579" lon="0.2064">
        <ele>2078.243</ele>
        <time>2022-07-03T09:02:31Z</time>
      </trkpt>
      <trkpt lat="42.88576" lon="0.20645">
        <ele>2078.396</ele>
        <time>2022-07-03T09:02:36Z</time>
      </trkpt>
      <trkpt lat="42.88572" lon="0.20648">
        <ele>2078.316</ele>
        <time>2022-07-03T09:02:41Z</time>
      </trkpt>
      <trkpt lat="42.88569" lon="0.20653">
        <ele>2078.334</ele>
        <time>2022-07-03T09:02:49Z</time>
      </trkpt>
      <trkpt lat="42.88564" lon="0.20656">
        <ele>2078.646</ele>
        <time>2022-07-03T09:02:55Z</time>
      </trkpt>
      <trkpt lat="42.8856" lon="0.20654">
        <ele>2079.248</ele>
        <time>2022-07-03T09:03:02Z</time>
      </trkpt>
      <trkpt lat="42.88554" lon="0.20652">
        <ele>2079.553</ele>
        <time>2022-07-03T09:03:08Z</time>
      </trkpt>
      <trkpt lat="42.8855" lon="0.20654">
        <ele>2080.026</ele>
        <time>2022-07-03T09:03:13Z</time>
      </trkpt>
      <trkpt lat="42.88544" lon="0.20653">
        <ele>2080.947</ele>
        <time>2022-07-03T09:03:18Z</time>
      </trkpt>
      <trkpt lat="42.88539" lon="0.20654">
        <ele>2081.311</ele>
        <time>2022-07-03T09:03:23Z</time>
      </trkpt>
      <trkpt lat="42.88535" lon="0.20651">
        <ele>2081.309</ele>
        <time>2022-07-03T09:03:28Z</time>
      </trkpt>
      <trkpt lat="42.88531" lon="0.20647">
        <ele>2081.393</ele>
        <time>2022-07-03T09:03:33Z</time>
      </trkpt>
      <trkpt lat="42.8853" lon="0.2064">
        <ele>2081.332</ele>
        <time>2022-07-03T09:03:39Z</time>
      </trkpt>
      <trkpt lat="42.88532" lon="0.20633">
        <ele>2081.339</ele>
        <time>2022-07-03T09:03:44Z</time>
      </trkpt>
      <trkpt lat="42.88536" lon="0.2063">
        <ele>2081.322</ele>
        <time>2022-07-03T09:03:50Z</time>
      </trkpt>
      <trkpt lat="42.88533" lon="0.20624">
        <ele>2081.382</ele>
        <time>2022-07-03T09:03:55Z</time>
      </trkpt>
      <trkpt lat="42.88531" lon="0.20618">
        <ele>2081.32</ele>
        <time>2022-07-03T09:04:02Z</time>
      </trkpt>
      <trkpt lat="42.88528" lon="0.20612">
        <ele>2081.322</ele>
        <time>2022-07-03T09:04:11Z</time>
      </trkpt>
      <trkpt lat="42.88528" lon="0.20605">
        <ele>2081.444</ele>
        <time>2022-07-03T09:04:15Z</time>
      </trkpt>
      <trkpt lat="42.88527" lon="0.20598">
        <ele>2082.149</ele>
        <time>2022-07-03T09:04:22Z</time>
      </trkpt>
      <trkpt lat="42.88525" lon="0.20593">
        <ele>2083.088</ele>
        <time>2022-07-03T09:04:30Z</time>
      </trkpt>
      <trkpt lat="42.88523" lon="0.20587">
        <ele>2083.724</ele>
        <time>2022-07-03T09:04:36Z</time>
      </trkpt>
      <trkpt lat="42.88522" lon="0.20581">
        <ele>2084.326</ele>
        <time>2022-07-03T09:04:40Z</time>
      </trkpt>
      <trkpt lat="42.8852" lon="0.20574">
        <ele>2084.709</ele>
        <time>2022-07-03T09:04:48Z</time>
      </trkpt>
      <trkpt lat="42.88522" lon="0.20567">
        <ele>2084.889</ele>
        <time>2022-07-03T09:04:54Z</time>
      </trkpt>
      <trkpt lat="42.88521" lon="0.20561">
        <ele>2085.328</ele>
        <time>2022-07-03T09:05:00Z</time>
      </trkpt>
      <trkpt lat="42.88517" lon="0.20556">
        <ele>2086.285</ele>
        <time>2022-07-03T09:05:07Z</time>
      </trkpt>
      <trkpt lat="42.88515" lon="0.20551">
        <ele>2087.038</ele>
        <time>2022-07-03T09:05:16Z</time>
      </trkpt>
      <trkpt lat="42.88509" lon="0.20554">
        <ele>2087.948</ele>
        <time>2022-07-03T09:05:23Z</time>
      </trkpt>
      <trkpt lat="42.88505" lon="0.20554">
        <ele>2088.436</ele>
        <time>2022-07-03T09:05:28Z</time>
      </trkpt>
      <trkpt lat="42.885" lon="0.20553">
        <ele>2088.488</ele>
        <time>2022-07-03T09:05:35Z</time>
      </trkpt>
      <trkpt lat="42.88497" lon="0.20548">
        <ele>2088.42</ele>
        <time>2022-07-03T09:05:40Z</time>
      </trkpt>
      <trkpt lat="42.88493" lon="0.20544">
        <ele>2088.195</ele>
        <time>2022-07-03T09:05:43Z</time>
      </trkpt>
      <trkpt lat="42.88488" lon="0.20541">
        <ele>2088.093</ele>
        <time>2022-07-03T09:05:48Z</time>
      </trkpt>
      <trkpt lat="42.88486" lon="0.20535">
        <ele>2088.065</ele>
        <time>2022-07-03T09:05:53Z</time>
      </trkpt>
      <trkpt lat="42.88484" lon="0.2053">
        <ele>2088.021</ele>
        <time>2022-07-03T09:06:00Z</time>
      </trkpt>
      <trkpt lat="42.8848" lon="0.20527">
        <ele>2088.409</ele>
        <time>2022-07-03T09:06:09Z</time>
      </trkpt>
      <trkpt lat="42.88475" lon="0.20525">
        <ele>2088.96</ele>
        <time>2022-07-03T09:06:35Z</time>
      </trkpt>
      <trkpt lat="42.88471" lon="0.20521">
        <ele>2089.529</ele>
        <time>2022-07-03T09:06:45Z</time>
      </trkpt>
      <trkpt lat="42.88467" lon="0.20518">
        <ele>2091.046</ele>
        <time>2022-07-03T09:06:58Z</time>
      </trkpt>
      <trkpt lat="42.8847" lon="0.20512">
        <ele>2093.239</ele>
        <time>2022-07-03T09:07:12Z</time>
      </trkpt>
      <trkpt lat="42.88474" lon="0.20508">
        <ele>2095.389</ele>
        <time>2022-07-03T09:07:19Z</time>
      </trkpt>
      <trkpt lat="42.88473" lon="0.205">
        <ele>2097.587</ele>
        <time>2022-07-03T09:07:24Z</time>
      </trkpt>
      <trkpt lat="42.88477" lon="0.20496">
        <ele>2099.089</ele>
        <time>2022-07-03T09:07:30Z</time>
      </trkpt>
      <trkpt lat="42.88477" lon="0.20489">
        <ele>2099.971</ele>
        <time>2022-07-03T09:07:36Z</time>
      </trkpt>
      <trkpt lat="42.88477" lon="0.20483">
        <ele>2100.866</ele>
        <time>2022-07-03T09:07:43Z</time>
      </trkpt>
      <trkpt lat="42.88472" lon="0.20485">
        <ele>2101.578</ele>
        <time>2022-07-03T09:07:51Z</time>
      </trkpt>
      <trkpt lat="42.88467" lon="0.20486">
        <ele>2102.133</ele>
        <time>2022-07-03T09:07:58Z</time>
      </trkpt>
      <trkpt lat="42.88463" lon="0.20485">
        <ele>2103.426</ele>
        <time>2022-07-03T09:08:07Z</time>
      </trkpt>
      <trkpt lat="42.88458" lon="0.20485">
        <ele>2104.909</ele>
        <time>2022-07-03T09:08:15Z</time>
      </trkpt>
      <trkpt lat="42.88454" lon="0.20482">
        <ele>2106.178</ele>
        <time>2022-07-03T09:08:22Z</time>
      </trkpt>
      <trkpt lat="42.88459" lon="0.20487">
        <ele>2107.537</ele>
        <time>2022-07-03T09:09:07Z</time>
      </trkpt>
      <trkpt lat="42.88454" lon="0.20483">
        <ele>2108.844</ele>
        <time>2022-07-03T09:09:13Z</time>
      </trkpt>
      <trkpt lat="42.88449" lon="0.20478">
        <ele>2109.567</ele>
        <time>2022-07-03T09:09:22Z</time>
      </trkpt>
      <trkpt lat="42.88447" lon="0.20471">
        <ele>2110.187</ele>
        <time>2022-07-03T09:09:33Z</time>
      </trkpt>
      <trkpt lat="42.88441" lon="0.20471">
        <ele>2111.375</ele>
        <time>2022-07-03T09:09:47Z</time>
      </trkpt>
      <trkpt lat="42.88443" lon="0.20463">
        <ele>2113.687</ele>
        <time>2022-07-03T09:09:55Z</time>
      </trkpt>
      <trkpt lat="42.88446" lon="0.20457">
        <ele>2115.559</ele>
        <time>2022-07-03T09:10:10Z</time>
      </trkpt>
      <trkpt lat="42.88451" lon="0.20454">
        <ele>2116.944</ele>
        <time>2022-07-03T09:10:18Z</time>
      </trkpt>
      <trkpt lat="42.8845" lon="0.20445">
        <ele>2119.463</ele>
        <time>2022-07-03T09:10:42Z</time>
      </trkpt>
      <trkpt lat="42.88445" lon="0.20447">
        <ele>2120.444</ele>
        <time>2022-07-03T09:11:05Z</time>
      </trkpt>
      <trkpt lat="42.88441" lon="0.20448">
        <ele>2124.318</ele>
        <time>2022-07-03T09:11:09Z</time>
      </trkpt>
      <trkpt lat="42.88437" lon="0.20445">
        <ele>2124.809</ele>
        <time>2022-07-03T09:11:15Z</time>
      </trkpt>
      <trkpt lat="42.88433" lon="0.20442">
        <ele>2125.427</ele>
        <time>2022-07-03T09:11:21Z</time>
      </trkpt>
      <trkpt lat="42.88427" lon="0.20439">
        <ele>2125.956</ele>
        <time>2022-07-03T09:11:27Z</time>
      </trkpt>
      <trkpt lat="42.88423" lon="0.20439">
        <ele>2126.623</ele>
        <time>2022-07-03T09:11:33Z</time>
      </trkpt>
      <trkpt lat="42.88419" lon="0.20435">
        <ele>2127.456</ele>
        <time>2022-07-03T09:11:45Z</time>
      </trkpt>
      <trkpt lat="42.88417" lon="0.20429">
        <ele>2128.366</ele>
        <time>2022-07-03T09:11:57Z</time>
      </trkpt>
      <trkpt lat="42.88415" lon="0.20423">
        <ele>2129.734</ele>
        <time>2022-07-03T09:12:13Z</time>
      </trkpt>
      <trkpt lat="42.8841" lon="0.2042">
        <ele>2131.726</ele>
        <time>2022-07-03T09:12:24Z</time>
      </trkpt>
      <trkpt lat="42.88406" lon="0.20434">
        <ele>2134.738</ele>
        <time>2022-07-03T09:12:43Z</time>
      </trkpt>
      <trkpt lat="42.88402" lon="0.20441">
        <ele>2137.223</ele>
        <time>2022-07-03T09:14:15Z</time>
      </trkpt>
      <trkpt lat="42.88401" lon="0.20448">
        <ele>2137.436</ele>
        <time>2022-07-03T09:14:21Z</time>
      </trkpt>
      <trkpt lat="42.88397" lon="0.20452">
        <ele>2137.517</ele>
        <time>2022-07-03T09:14:29Z</time>
      </trkpt>
      <trkpt lat="42.88393" lon="0.20456">
        <ele>2137.618</ele>
        <time>2022-07-03T09:14:36Z</time>
      </trkpt>
      <trkpt lat="42.88392" lon="0.20463">
        <ele>2138.009</ele>
        <time>2022-07-03T09:14:41Z</time>
      </trkpt>
      <trkpt lat="42.88389" lon="0.20467">
        <ele>2137.584</ele>
        <time>2022-07-03T09:15:57Z</time>
      </trkpt>
      <trkpt lat="42.88385" lon="0.20473">
        <ele>2137.463</ele>
        <time>2022-07-03T09:16:03Z</time>
      </trkpt>
      <trkpt lat="42.88387" lon="0.20479">
        <ele>2137.57</ele>
        <time>2022-07-03T09:16:07Z</time>
      </trkpt>
      <trkpt lat="42.88387" lon="0.20486">
        <ele>2137.673</ele>
        <time>2022-07-03T09:16:39Z</time>
      </trkpt>
      <trkpt lat="42.88388" lon="0.20493">
        <ele>2137.643</ele>
        <time>2022-07-03T09:16:45Z</time>
      </trkpt>
      <trkpt lat="42.88384" lon="0.20499">
        <ele>2137.641</ele>
        <time>2022-07-03T09:16:50Z</time>
      </trkpt>
      <trkpt lat="42.8838" lon="0.20503">
        <ele>2137.733</ele>
        <time>2022-07-03T09:17:11Z</time>
      </trkpt>
      <trkpt lat="42.88375" lon="0.20501">
        <ele>2137.835</ele>
        <time>2022-07-03T09:17:18Z</time>
      </trkpt>
      <trkpt lat="42.88371" lon="0.20504">
        <ele>2138.33</ele>
        <time>2022-07-03T09:17:23Z</time>
      </trkpt>
      <trkpt lat="42.88366" lon="0.20509">
        <ele>2139.486</ele>
        <time>2022-07-03T09:17:30Z</time>
      </trkpt>
      <trkpt lat="42.88361" lon="0.20509">
        <ele>2140.06</ele>
        <time>2022-07-03T09:17:38Z</time>
      </trkpt>
      <trkpt lat="42.88357" lon="0.20507">
        <ele>2141.226</ele>
        <time>2022-07-03T09:17:47Z</time>
      </trkpt>
      <trkpt lat="42.88353" lon="0.20511">
        <ele>2142.109</ele>
        <time>2022-07-03T09:18:02Z</time>
      </trkpt>
      <trkpt lat="42.88349" lon="0.20515">
        <ele>2143.279</ele>
        <time>2022-07-03T09:18:14Z</time>
      </trkpt>
      <trkpt lat="42.88344" lon="0.20513">
        <ele>2145.118</ele>
        <time>2022-07-03T09:18:21Z</time>
      </trkpt>
      <trkpt lat="42.8834" lon="0.20515">
        <ele>2147.345</ele>
        <time>2022-07-03T09:18:27Z</time>
      </trkpt>
      <trkpt lat="42.88335" lon="0.20513">
        <ele>2149.058</ele>
        <time>2022-07-03T09:18:49Z</time>
      </trkpt>
      <trkpt lat="42.8833" lon="0.20515">
        <ele>2149.858</ele>
        <time>2022-07-03T09:18:57Z</time>
      </trkpt>
      <trkpt lat="42.88324" lon="0.20517">
        <ele>2151.576</ele>
        <time>2022-07-03T09:19:05Z</time>
      </trkpt>
      <trkpt lat="42.88319" lon="0.20516">
        <ele>2153.418</ele>
        <time>2022-07-03T09:19:09Z</time>
      </trkpt>
      <trkpt lat="42.88314" lon="0.20517">
        <ele>2154.15</ele>
        <time>2022-07-03T09:19:16Z</time>
      </trkpt>
      <trkpt lat="42.88309" lon="0.20517">
        <ele>2154.455</ele>
        <time>2022-07-03T09:19:20Z</time>
      </trkpt>
      <trkpt lat="42.88304" lon="0.20516">
        <ele>2154.525</ele>
        <time>2022-07-03T09:19:26Z</time>
      </trkpt>
      <trkpt lat="42.88299" lon="0.20518">
        <ele>2154.726</ele>
        <time>2022-07-03T09:19:32Z</time>
      </trkpt>
      <trkpt lat="42.88293" lon="0.20519">
        <ele>2155.108</ele>
        <time>2022-07-03T09:19:38Z</time>
      </trkpt>
      <trkpt lat="42.88289" lon="0.20522">
        <ele>2155.909</ele>
        <time>2022-07-03T09:19:44Z</time>
      </trkpt>
      <trkpt lat="42.88284" lon="0.20525">
        <ele>2156.643</ele>
        <time>2022-07-03T09:19:50Z</time>
      </trkpt>
      <trkpt lat="42.88278" lon="0.20524">
        <ele>2156.812</ele>
        <time>2022-07-03T09:19:58Z</time>
      </trkpt>
      <trkpt lat="42.88275" lon="0.20517">
        <ele>2157.459</ele>
        <time>2022-07-03T09:20:12Z</time>
      </trkpt>
      <trkpt lat="42.88272" lon="0.20513">
        <ele>2157.522</ele>
        <time>2022-07-03T09:20:18Z</time>
      </trkpt>
      <trkpt lat="42.88268" lon="0.20509">
        <ele>2157.822</ele>
        <time>2022-07-03T09:20:23Z</time>
      </trkpt>
      <trkpt lat="42.88264" lon="0.20505">
        <ele>2158.41</ele>
        <time>2022-07-03T09:20:29Z</time>
      </trkpt>
      <trkpt lat="42.8826" lon="0.205">
        <ele>2159.042</ele>
        <time>2022-07-03T09:20:36Z</time>
      </trkpt>
      <trkpt lat="42.88255" lon="0.20498">
        <ele>2159.784</ele>
        <time>2022-07-03T09:20:41Z</time>
      </trkpt>
      <trkpt lat="42.88251" lon="0.20494">
        <ele>2160.339</ele>
        <time>2022-07-03T09:20:45Z</time>
      </trkpt>
      <trkpt lat="42.88248" lon="0.20488">
        <ele>2160.736</ele>
        <time>2022-07-03T09:20:54Z</time>
      </trkpt>
      <trkpt lat="42.88247" lon="0.20481">
        <ele>2161.217</ele>
        <time>2022-07-03T09:21:01Z</time>
      </trkpt>
      <trkpt lat="42.88241" lon="0.20479">
        <ele>2161.818</ele>
        <time>2022-07-03T09:21:08Z</time>
      </trkpt>
      <trkpt lat="42.88239" lon="0.20474">
        <ele>2162.609</ele>
        <time>2022-07-03T09:21:15Z</time>
      </trkpt>
      <trkpt lat="42.88237" lon="0.20465">
        <ele>2163.724</ele>
        <time>2022-07-03T09:21:25Z</time>
      </trkpt>
      <trkpt lat="42.88237" lon="0.20456">
        <ele>2164.133</ele>
        <time>2022-07-03T09:21:42Z</time>
      </trkpt>
      <trkpt lat="42.88233" lon="0.20452">
        <ele>2165.65</ele>
        <time>2022-07-03T09:21:51Z</time>
      </trkpt>
      <trkpt lat="42.88232" lon="0.20446">
        <ele>2168.693</ele>
        <time>2022-07-03T09:22:00Z</time>
      </trkpt>
      <trkpt lat="42.88227" lon="0.20444">
        <ele>2169.173</ele>
        <time>2022-07-03T09:22:08Z</time>
      </trkpt>
      <trkpt lat="42.88222" lon="0.2044">
        <ele>2169.661</ele>
        <time>2022-07-03T09:22:14Z</time>
      </trkpt>
      <trkpt lat="42.88219" lon="0.20435">
        <ele>2170.453</ele>
        <time>2022-07-03T09:22:24Z</time>
      </trkpt>
      <trkpt lat="42.88215" lon="0.2043">
        <ele>2171.265</ele>
        <time>2022-07-03T09:22:33Z</time>
      </trkpt>
      <trkpt lat="42.8821" lon="0.2043">
        <ele>2172.02</ele>
        <time>2022-07-03T09:22:42Z</time>
      </trkpt>
      <trkpt lat="42.88205" lon="0.20427">
        <ele>2172.127</ele>
        <time>2022-07-03T09:22:50Z</time>
      </trkpt>
      <trkpt lat="42.882" lon="0.20429">
        <ele>2172.168</ele>
        <time>2022-07-03T09:22:56Z</time>
      </trkpt>
      <trkpt lat="42.88197" lon="0.20434">
        <ele>2172.114</ele>
        <time>2022-07-03T09:23:02Z</time>
      </trkpt>
      <trkpt lat="42.88192" lon="0.20437">
        <ele>2171.809</ele>
        <time>2022-07-03T09:23:09Z</time>
      </trkpt>
      <trkpt lat="42.88187" lon="0.20437">
        <ele>2171.753</ele>
        <time>2022-07-03T09:23:14Z</time>
      </trkpt>
      <trkpt lat="42.88183" lon="0.20438">
        <ele>2171.522</ele>
        <time>2022-07-03T09:23:20Z</time>
      </trkpt>
      <trkpt lat="42.88178" lon="0.20435">
        <ele>2171.429</ele>
        <time>2022-07-03T09:23:28Z</time>
      </trkpt>
      <trkpt lat="42.88174" lon="0.20432">
        <ele>2171.272</ele>
        <time>2022-07-03T09:23:34Z</time>
      </trkpt>
      <trkpt lat="42.88169" lon="0.2043">
        <ele>2170.862</ele>
        <time>2022-07-03T09:23:43Z</time>
      </trkpt>
      <trkpt lat="42.88171" lon="0.20436">
        <ele>2170.35</ele>
        <time>2022-07-03T10:50:54Z</time>
      </trkpt>
      <trkpt lat="42.88175" lon="0.2044">
        <ele>2169.962</ele>
        <time>2022-07-03T10:51:00Z</time>
      </trkpt>
      <trkpt lat="42.88179" lon="0.20444">
        <ele>2168.644</ele>
        <time>2022-07-03T10:51:06Z</time>
      </trkpt>
      <trkpt lat="42.88184" lon="0.20445">
        <ele>2167.339</ele>
        <time>2022-07-03T10:51:14Z</time>
      </trkpt>
      <trkpt lat="42.88189" lon="0.20445">
        <ele>2167.282</ele>
        <time>2022-07-03T10:51:21Z</time>
      </trkpt>
      <trkpt lat="42.88192" lon="0.2044">
        <ele>2167.243</ele>
        <time>2022-07-03T10:51:28Z</time>
      </trkpt>
      <trkpt lat="42.88195" lon="0.20434">
        <ele>2167.217</ele>
        <time>2022-07-03T10:51:36Z</time>
      </trkpt>
      <trkpt lat="42.88199" lon="0.20432">
        <ele>2167.209</ele>
        <time>2022-07-03T10:51:41Z</time>
      </trkpt>
      <trkpt lat="42.88203" lon="0.20427">
        <ele>2167.229</ele>
        <time>2022-07-03T10:51:46Z</time>
      </trkpt>
      <trkpt lat="42.88207" lon="0.20426">
        <ele>2167.258</ele>
        <time>2022-07-03T10:51:53Z</time>
      </trkpt>
      <trkpt lat="42.88212" lon="0.20428">
        <ele>2167.245</ele>
        <time>2022-07-03T10:51:59Z</time>
      </trkpt>
      <trkpt lat="42.88215" lon="0.20422">
        <ele>2167.288</ele>
        <time>2022-07-03T10:52:07Z</time>
      </trkpt>
      <trkpt lat="42.88215" lon="0.20415">
        <ele>2167.168</ele>
        <time>2022-07-03T10:52:12Z</time>
      </trkpt>
      <trkpt lat="42.88219" lon="0.20417">
        <ele>2167.146</ele>
        <time>2022-07-03T10:53:34Z</time>
      </trkpt>
      <trkpt lat="42.88224" lon="0.2042">
        <ele>2167.178</ele>
        <time>2022-07-03T10:53:41Z</time>
      </trkpt>
      <trkpt lat="42.88222" lon="0.20426">
        <ele>2167.43</ele>
        <time>2022-07-03T10:53:48Z</time>
      </trkpt>
      <trkpt lat="42.88222" lon="0.20432">
        <ele>2167.955</ele>
        <time>2022-07-03T10:53:58Z</time>
      </trkpt>
      <trkpt lat="42.88223" lon="0.20438">
        <ele>2167.928</ele>
        <time>2022-07-03T10:54:18Z</time>
      </trkpt>
      <trkpt lat="42.88227" lon="0.20441">
        <ele>2167.989</ele>
        <time>2022-07-03T10:54:23Z</time>
      </trkpt>
      <trkpt lat="42.88232" lon="0.20445">
        <ele>2167.917</ele>
        <time>2022-07-03T10:54:29Z</time>
      </trkpt>
      <trkpt lat="42.88233" lon="0.20452">
        <ele>2167.409</ele>
        <time>2022-07-03T10:54:35Z</time>
      </trkpt>
      <trkpt lat="42.88235" lon="0.20457">
        <ele>2167.023</ele>
        <time>2022-07-03T10:54:41Z</time>
      </trkpt>
      <trkpt lat="42.88238" lon="0.20463">
        <ele>2166.332</ele>
        <time>2022-07-03T10:54:48Z</time>
      </trkpt>
      <trkpt lat="42.8824" lon="0.20469">
        <ele>2165.479</ele>
        <time>2022-07-03T10:54:55Z</time>
      </trkpt>
      <trkpt lat="42.88242" lon="0.20475">
        <ele>2164.232</ele>
        <time>2022-07-03T10:55:00Z</time>
      </trkpt>
      <trkpt lat="42.88245" lon="0.20479">
        <ele>2163.182</ele>
        <time>2022-07-03T10:55:06Z</time>
      </trkpt>
      <trkpt lat="42.88249" lon="0.20483">
        <ele>2162.26</ele>
        <time>2022-07-03T10:55:13Z</time>
      </trkpt>
      <trkpt lat="42.88251" lon="0.2049">
        <ele>2161.082</ele>
        <time>2022-07-03T10:55:18Z</time>
      </trkpt>
      <trkpt lat="42.88254" lon="0.20494">
        <ele>2159.664</ele>
        <time>2022-07-03T10:55:24Z</time>
      </trkpt>
      <trkpt lat="42.88259" lon="0.20497">
        <ele>2158.849</ele>
        <time>2022-07-03T10:55:29Z</time>
      </trkpt>
      <trkpt lat="42.88263" lon="0.20502">
        <ele>2158.175</ele>
        <time>2022-07-03T10:55:34Z</time>
      </trkpt>
      <trkpt lat="42.88267" lon="0.20506">
        <ele>2157.428</ele>
        <time>2022-07-03T10:55:39Z</time>
      </trkpt>
      <trkpt lat="42.8827" lon="0.2051">
        <ele>2157.02</ele>
        <time>2022-07-03T10:55:44Z</time>
      </trkpt>
      <trkpt lat="42.88273" lon="0.20515">
        <ele>2156.609</ele>
        <time>2022-07-03T10:55:49Z</time>
      </trkpt>
      <trkpt lat="42.88276" lon="0.2052">
        <ele>2156.218</ele>
        <time>2022-07-03T10:55:54Z</time>
      </trkpt>
      <trkpt lat="42.8828" lon="0.20523">
        <ele>2155.677</ele>
        <time>2022-07-03T10:55:58Z</time>
      </trkpt>
      <trkpt lat="42.88286" lon="0.20522">
        <ele>2154.724</ele>
        <time>2022-07-03T10:56:04Z</time>
      </trkpt>
      <trkpt lat="42.8829" lon="0.20519">
        <ele>2154.247</ele>
        <time>2022-07-03T10:56:10Z</time>
      </trkpt>
      <trkpt lat="42.88295" lon="0.20518">
        <ele>2153.877</ele>
        <time>2022-07-03T10:56:14Z</time>
      </trkpt>
      <trkpt lat="42.883" lon="0.20517">
        <ele>2153.255</ele>
        <time>2022-07-03T10:56:19Z</time>
      </trkpt>
      <trkpt lat="42.88305" lon="0.20516">
        <ele>2152.967</ele>
        <time>2022-07-03T10:56:24Z</time>
      </trkpt>
      <trkpt lat="42.8831" lon="0.20516">
        <ele>2152.669</ele>
        <time>2022-07-03T10:56:32Z</time>
      </trkpt>
      <trkpt lat="42.88316" lon="0.20515">
        <ele>2152.314</ele>
        <time>2022-07-03T10:56:38Z</time>
      </trkpt>
      <trkpt lat="42.8832" lon="0.20516">
        <ele>2151.957</ele>
        <time>2022-07-03T10:56:42Z</time>
      </trkpt>
      <trkpt lat="42.88325" lon="0.20516">
        <ele>2151.5</ele>
        <time>2022-07-03T10:56:46Z</time>
      </trkpt>
      <trkpt lat="42.88331" lon="0.20515">
        <ele>2151.32</ele>
        <time>2022-07-03T10:56:52Z</time>
      </trkpt>
      <trkpt lat="42.88335" lon="0.20515">
        <ele>2151.309</ele>
        <time>2022-07-03T10:56:59Z</time>
      </trkpt>
      <trkpt lat="42.88341" lon="0.20516">
        <ele>2151.136</ele>
        <time>2022-07-03T10:57:16Z</time>
      </trkpt>
      <trkpt lat="42.88345" lon="0.20514">
        <ele>2150.535</ele>
        <time>2022-07-03T10:57:21Z</time>
      </trkpt>
      <trkpt lat="42.8835" lon="0.20514">
        <ele>2148.992</ele>
        <time>2022-07-03T10:57:28Z</time>
      </trkpt>
      <trkpt lat="42.88354" lon="0.20511">
        <ele>2147.465</ele>
        <time>2022-07-03T10:57:34Z</time>
      </trkpt>
      <trkpt lat="42.88359" lon="0.20511">
        <ele>2146.755</ele>
        <time>2022-07-03T10:57:44Z</time>
      </trkpt>
      <trkpt lat="42.88364" lon="0.20513">
        <ele>2145.823</ele>
        <time>2022-07-03T10:58:02Z</time>
      </trkpt>
      <trkpt lat="42.88368" lon="0.20509">
        <ele>2144.575</ele>
        <time>2022-07-03T10:58:06Z</time>
      </trkpt>
      <trkpt lat="42.88371" lon="0.20503">
        <ele>2142.567</ele>
        <time>2022-07-03T10:58:11Z</time>
      </trkpt>
      <trkpt lat="42.88372" lon="0.20497">
        <ele>2140.772</ele>
        <time>2022-07-03T10:58:16Z</time>
      </trkpt>
      <trkpt lat="42.88376" lon="0.20499">
        <ele>2139.854</ele>
        <time>2022-07-03T10:58:22Z</time>
      </trkpt>
      <trkpt lat="42.88378" lon="0.20504">
        <ele>2139.056</ele>
        <time>2022-07-03T10:58:27Z</time>
      </trkpt>
      <trkpt lat="42.88383" lon="0.20501">
        <ele>2138.311</ele>
        <time>2022-07-03T10:58:34Z</time>
      </trkpt>
      <trkpt lat="42.88385" lon="0.20494">
        <ele>2137.709</ele>
        <time>2022-07-03T10:58:38Z</time>
      </trkpt>
      <trkpt lat="42.88386" lon="0.20488">
        <ele>2136.856</ele>
        <time>2022-07-03T10:58:44Z</time>
      </trkpt>
      <trkpt lat="42.88387" lon="0.20481">
        <ele>2135.965</ele>
        <time>2022-07-03T10:58:48Z</time>
      </trkpt>
      <trkpt lat="42.88386" lon="0.20475">
        <ele>2135.382</ele>
        <time>2022-07-03T10:58:52Z</time>
      </trkpt>
      <trkpt lat="42.88385" lon="0.20469">
        <ele>2135.015</ele>
        <time>2022-07-03T10:58:56Z</time>
      </trkpt>
      <trkpt lat="42.8839" lon="0.20465">
        <ele>2134.845</ele>
        <time>2022-07-03T10:59:01Z</time>
      </trkpt>
      <trkpt lat="42.88393" lon="0.20459">
        <ele>2134.833</ele>
        <time>2022-07-03T10:59:07Z</time>
      </trkpt>
      <trkpt lat="42.88396" lon="0.20454">
        <ele>2134.845</ele>
        <time>2022-07-03T10:59:13Z</time>
      </trkpt>
      <trkpt lat="42.88399" lon="0.20449">
        <ele>2134.747</ele>
        <time>2022-07-03T10:59:20Z</time>
      </trkpt>
      <trkpt lat="42.88402" lon="0.20444">
        <ele>2134.652</ele>
        <time>2022-07-03T10:59:25Z</time>
      </trkpt>
      <trkpt lat="42.88404" lon="0.20439">
        <ele>2134.582</ele>
        <time>2022-07-03T10:59:30Z</time>
      </trkpt>
      <trkpt lat="42.88407" lon="0.20433">
        <ele>2134.443</ele>
        <time>2022-07-03T10:59:39Z</time>
      </trkpt>
      <trkpt lat="42.8841" lon="0.20429">
        <ele>2134.417</ele>
        <time>2022-07-03T10:59:46Z</time>
      </trkpt>
      <trkpt lat="42.88413" lon="0.20424">
        <ele>2134.409</ele>
        <time>2022-07-03T10:59:52Z</time>
      </trkpt>
      <trkpt lat="42.88418" lon="0.20424">
        <ele>2134.099</ele>
        <time>2022-07-03T11:00:00Z</time>
      </trkpt>
      <trkpt lat="42.8842" lon="0.20429">
        <ele>2134.088</ele>
        <time>2022-07-03T11:00:14Z</time>
      </trkpt>
      <trkpt lat="42.88423" lon="0.20435">
        <ele>2134.095</ele>
        <time>2022-07-03T11:00:27Z</time>
      </trkpt>
      <trkpt lat="42.88427" lon="0.20438">
        <ele>2132.568</ele>
        <time>2022-07-03T11:00:36Z</time>
      </trkpt>
      <trkpt lat="42.88432" lon="0.20442">
        <ele>2130.258</ele>
        <time>2022-07-03T11:00:45Z</time>
      </trkpt>
      <trkpt lat="42.88436" lon="0.20446">
        <ele>2127.936</ele>
        <time>2022-07-03T11:00:56Z</time>
      </trkpt>
      <trkpt lat="42.88439" lon="0.2045">
        <ele>2125.868</ele>
        <time>2022-07-03T11:01:06Z</time>
      </trkpt>
      <trkpt lat="42.88442" lon="0.20457">
        <ele>2123.91</ele>
        <time>2022-07-03T11:01:19Z</time>
      </trkpt>
      <trkpt lat="42.88442" lon="0.20464">
        <ele>2121.755</ele>
        <time>2022-07-03T11:01:36Z</time>
      </trkpt>
      <trkpt lat="42.88442" lon="0.2047">
        <ele>2119.245</ele>
        <time>2022-07-03T11:01:53Z</time>
      </trkpt>
      <trkpt lat="42.88445" lon="0.20475">
        <ele>2116.547</ele>
        <time>2022-07-03T11:02:03Z</time>
      </trkpt>
      <trkpt lat="42.8845" lon="0.20475">
        <ele>2113.911</ele>
        <time>2022-07-03T11:02:12Z</time>
      </trkpt>
      <trkpt lat="42.88452" lon="0.2048">
        <ele>2111.809</ele>
        <time>2022-07-03T11:02:22Z</time>
      </trkpt>
      <trkpt lat="42.88456" lon="0.20485">
        <ele>2110.385</ele>
        <time>2022-07-03T11:02:30Z</time>
      </trkpt>
      <trkpt lat="42.88459" lon="0.20491">
        <ele>2108.854</ele>
        <time>2022-07-03T11:02:40Z</time>
      </trkpt>
      <trkpt lat="42.88463" lon="0.20495">
        <ele>2107.031</ele>
        <time>2022-07-03T11:02:51Z</time>
      </trkpt>
      <trkpt lat="42.88465" lon="0.20502">
        <ele>2105.374</ele>
        <time>2022-07-03T11:03:02Z</time>
      </trkpt>
      <trkpt lat="42.88464" lon="0.20509">
        <ele>2103.424</ele>
        <time>2022-07-03T11:03:10Z</time>
      </trkpt>
      <trkpt lat="42.88466" lon="0.20515">
        <ele>2100.942</ele>
        <time>2022-07-03T11:03:22Z</time>
      </trkpt>
      <trkpt lat="42.88469" lon="0.2052">
        <ele>2098.564</ele>
        <time>2022-07-03T11:03:30Z</time>
      </trkpt>
      <trkpt lat="42.88473" lon="0.20524">
        <ele>2096.376</ele>
        <time>2022-07-03T11:03:39Z</time>
      </trkpt>
      <trkpt lat="42.88477" lon="0.20525">
        <ele>2093.961</ele>
        <time>2022-07-03T11:03:49Z</time>
      </trkpt>
      <trkpt lat="42.88482" lon="0.20528">
        <ele>2091.975</ele>
        <time>2022-07-03T11:04:03Z</time>
      </trkpt>
      <trkpt lat="42.88487" lon="0.20531">
        <ele>2090.028</ele>
        <time>2022-07-03T11:04:11Z</time>
      </trkpt>
      <trkpt lat="42.88489" lon="0.20536">
        <ele>2087.72</ele>
        <time>2022-07-03T11:04:16Z</time>
      </trkpt>
      <trkpt lat="42.88491" lon="0.20543">
        <ele>2085.709</ele>
        <time>2022-07-03T11:04:21Z</time>
      </trkpt>
      <trkpt lat="42.88495" lon="0.20546">
        <ele>2084.788</ele>
        <time>2022-07-03T11:04:27Z</time>
      </trkpt>
      <trkpt lat="42.88499" lon="0.2055">
        <ele>2084.447</ele>
        <time>2022-07-03T11:04:31Z</time>
      </trkpt>
      <trkpt lat="42.88503" lon="0.20555">
        <ele>2083.954</ele>
        <time>2022-07-03T11:04:37Z</time>
      </trkpt>
      <trkpt lat="42.88508" lon="0.20555">
        <ele>2083.567</ele>
        <time>2022-07-03T11:04:44Z</time>
      </trkpt>
      <trkpt lat="42.88512" lon="0.20553">
        <ele>2083.587</ele>
        <time>2022-07-03T11:04:49Z</time>
      </trkpt>
      <trkpt lat="42.88518" lon="0.20553">
        <ele>2083.535</ele>
        <time>2022-07-03T11:04:57Z</time>
      </trkpt>
      <trkpt lat="42.88519" lon="0.20559">
        <ele>2083.687</ele>
        <time>2022-07-03T11:05:13Z</time>
      </trkpt>
      <trkpt lat="42.88523" lon="0.20569">
        <ele>2083.879</ele>
        <time>2022-07-03T11:05:45Z</time>
      </trkpt>
      <trkpt lat="42.88522" lon="0.20576">
        <ele>2083.844</ele>
        <time>2022-07-03T11:05:53Z</time>
      </trkpt>
      <trkpt lat="42.88524" lon="0.20584">
        <ele>2083.543</ele>
        <time>2022-07-03T11:06:01Z</time>
      </trkpt>
      <trkpt lat="42.88525" lon="0.20592">
        <ele>2082.464</ele>
        <time>2022-07-03T11:06:08Z</time>
      </trkpt>
      <trkpt lat="42.88526" lon="0.20598">
        <ele>2081.91</ele>
        <time>2022-07-03T11:06:12Z</time>
      </trkpt>
      <trkpt lat="42.88529" lon="0.20604">
        <ele>2081.309</ele>
        <time>2022-07-03T11:06:20Z</time>
      </trkpt>
      <trkpt lat="42.8853" lon="0.20611">
        <ele>2080.955</ele>
        <time>2022-07-03T11:06:27Z</time>
      </trkpt>
      <trkpt lat="42.88532" lon="0.20616">
        <ele>2080.754</ele>
        <time>2022-07-03T11:06:36Z</time>
      </trkpt>
      <trkpt lat="42.88532" lon="0.20624">
        <ele>2080.031</ele>
        <time>2022-07-03T11:06:43Z</time>
      </trkpt>
      <trkpt lat="42.88536" lon="0.20629">
        <ele>2079.184</ele>
        <time>2022-07-03T11:06:51Z</time>
      </trkpt>
      <trkpt lat="42.88533" lon="0.20634">
        <ele>2078.264</ele>
        <time>2022-07-03T11:06:56Z</time>
      </trkpt>
      <trkpt lat="42.8853" lon="0.20639">
        <ele>2077.392</ele>
        <time>2022-07-03T11:07:01Z</time>
      </trkpt>
      <trkpt lat="42.88529" lon="0.20646">
        <ele>2077.024</ele>
        <time>2022-07-03T11:07:07Z</time>
      </trkpt>
      <trkpt lat="42.88532" lon="0.20651">
        <ele>2077.036</ele>
        <time>2022-07-03T11:07:12Z</time>
      </trkpt>
      <trkpt lat="42.88537" lon="0.20653">
        <ele>2077.051</ele>
        <time>2022-07-03T11:07:20Z</time>
      </trkpt>
      <trkpt lat="42.88553" lon="0.20655">
        <ele>2077.178</ele>
        <time>2022-07-03T11:08:41Z</time>
      </trkpt>
      <trkpt lat="42.88558" lon="0.20654">
        <ele>2077.233</ele>
        <time>2022-07-03T11:08:46Z</time>
      </trkpt>
      <trkpt lat="42.88563" lon="0.20655">
        <ele>2077.226</ele>
        <time>2022-07-03T11:08:52Z</time>
      </trkpt>
      <trkpt lat="42.88569" lon="0.20653">
        <ele>2077.109</ele>
        <time>2022-07-03T11:08:58Z</time>
      </trkpt>
      <trkpt lat="42.88573" lon="0.20649">
        <ele>2076.938</ele>
        <time>2022-07-03T11:09:07Z</time>
      </trkpt>
      <trkpt lat="42.88576" lon="0.20643">
        <ele>2076.557</ele>
        <time>2022-07-03T11:09:13Z</time>
      </trkpt>
      <trkpt lat="42.88579" lon="0.2064">
        <ele>2076.084</ele>
        <time>2022-07-03T11:09:17Z</time>
      </trkpt>
      <trkpt lat="42.88583" lon="0.20634">
        <ele>2075.677</ele>
        <time>2022-07-03T11:09:34Z</time>
      </trkpt>
      <trkpt lat="42.88589" lon="0.20637">
        <ele>2075.177</ele>
        <time>2022-07-03T11:10:14Z</time>
      </trkpt>
      <trkpt lat="42.88593" lon="0.20633">
        <ele>2074.435</ele>
        <time>2022-07-03T11:10:22Z</time>
      </trkpt>
      <trkpt lat="42.88601" lon="0.20633">
        <ele>2074.067</ele>
        <time>2022-07-03T11:10:35Z</time>
      </trkpt>
      <trkpt lat="42.88606" lon="0.20634">
        <ele>2074.059</ele>
        <time>2022-07-03T11:10:47Z</time>
      </trkpt>
      <trkpt lat="42.88611" lon="0.20629">
        <ele>2074.634</ele>
        <time>2022-07-03T11:10:55Z</time>
      </trkpt>
      <trkpt lat="42.88616" lon="0.20628">
        <ele>2076.425</ele>
        <time>2022-07-03T11:11:07Z</time>
      </trkpt>
      <trkpt lat="42.8862" lon="0.20625">
        <ele>2077.326</ele>
        <time>2022-07-03T11:11:17Z</time>
      </trkpt>
      <trkpt lat="42.88622" lon="0.20618">
        <ele>2077.808</ele>
        <time>2022-07-03T11:11:24Z</time>
      </trkpt>
      <trkpt lat="42.88624" lon="0.20611">
        <ele>2079.109</ele>
        <time>2022-07-03T11:11:34Z</time>
      </trkpt>
      <trkpt lat="42.88627" lon="0.20606">
        <ele>2079.643</ele>
        <time>2022-07-03T11:11:49Z</time>
      </trkpt>
      <trkpt lat="42.88629" lon="0.206">
        <ele>2079.622</ele>
        <time>2022-07-03T11:11:56Z</time>
      </trkpt>
      <trkpt lat="42.88633" lon="0.20596">
        <ele>2079.689</ele>
        <time>2022-07-03T11:12:03Z</time>
      </trkpt>
      <trkpt lat="42.88637" lon="0.20591">
        <ele>2078.962</ele>
        <time>2022-07-03T11:12:11Z</time>
      </trkpt>
      <trkpt lat="42.8864" lon="0.20584">
        <ele>2078.042</ele>
        <time>2022-07-03T11:12:17Z</time>
      </trkpt>
      <trkpt lat="42.88643" lon="0.20579">
        <ele>2077.22</ele>
        <time>2022-07-03T11:12:22Z</time>
      </trkpt>
      <trkpt lat="42.88646" lon="0.20574">
        <ele>2076.692</ele>
        <time>2022-07-03T11:12:27Z</time>
      </trkpt>
      <trkpt lat="42.8865" lon="0.20569">
        <ele>2076.684</ele>
        <time>2022-07-03T11:12:36Z</time>
      </trkpt>
      <trkpt lat="42.88654" lon="0.20566">
        <ele>2076.679</ele>
        <time>2022-07-03T11:12:41Z</time>
      </trkpt>
      <trkpt lat="42.88655" lon="0.2056">
        <ele>2076.251</ele>
        <time>2022-07-03T11:12:52Z</time>
      </trkpt>
      <trkpt lat="42.88658" lon="0.20555">
        <ele>2076.201</ele>
        <time>2022-07-03T11:12:58Z</time>
      </trkpt>
      <trkpt lat="42.88662" lon="0.20551">
        <ele>2076.111</ele>
        <time>2022-07-03T11:13:08Z</time>
      </trkpt>
      <trkpt lat="42.88665" lon="0.20546">
        <ele>2075.509</ele>
        <time>2022-07-03T11:13:15Z</time>
      </trkpt>
      <trkpt lat="42.8867" lon="0.20543">
        <ele>2075.156</ele>
        <time>2022-07-03T11:13:21Z</time>
      </trkpt>
      <trkpt lat="42.88674" lon="0.20542">
        <ele>2074.625</ele>
        <time>2022-07-03T11:13:26Z</time>
      </trkpt>
      <trkpt lat="42.88679" lon="0.20542">
        <ele>2074.582</ele>
        <time>2022-07-03T11:13:34Z</time>
      </trkpt>
      <trkpt lat="42.88684" lon="0.20544">
        <ele>2074.535</ele>
        <time>2022-07-03T11:13:42Z</time>
      </trkpt>
      <trkpt lat="42.88689" lon="0.20539">
        <ele>2074.535</ele>
        <time>2022-07-03T11:13:48Z</time>
      </trkpt>
      <trkpt lat="42.88695" lon="0.20539">
        <ele>2075.533</ele>
        <time>2022-07-03T11:13:53Z</time>
      </trkpt>
      <trkpt lat="42.88699" lon="0.20537">
        <ele>2076.145</ele>
        <time>2022-07-03T11:13:58Z</time>
      </trkpt>
      <trkpt lat="42.88704" lon="0.20538">
        <ele>2076.117</ele>
        <time>2022-07-03T11:14:10Z</time>
      </trkpt>
      <trkpt lat="42.88709" lon="0.20537">
        <ele>2076.242</ele>
        <time>2022-07-03T11:14:17Z</time>
      </trkpt>
      <trkpt lat="42.88714" lon="0.20537">
        <ele>2076.923</ele>
        <time>2022-07-03T11:14:27Z</time>
      </trkpt>
      <trkpt lat="42.88719" lon="0.20536">
        <ele>2077.783</ele>
        <time>2022-07-03T11:14:33Z</time>
      </trkpt>
      <trkpt lat="42.88725" lon="0.20534">
        <ele>2078.111</ele>
        <time>2022-07-03T11:14:48Z</time>
      </trkpt>
      <trkpt lat="42.8873" lon="0.20536">
        <ele>2078.809</ele>
        <time>2022-07-03T11:15:00Z</time>
      </trkpt>
      <trkpt lat="42.88735" lon="0.20533">
        <ele>2081.553</ele>
        <time>2022-07-03T11:15:07Z</time>
      </trkpt>
      <trkpt lat="42.88739" lon="0.20534">
        <ele>2082.582</ele>
        <time>2022-07-03T11:15:18Z</time>
      </trkpt>
      <trkpt lat="42.88744" lon="0.20532">
        <ele>2083.789</ele>
        <time>2022-07-03T11:15:25Z</time>
      </trkpt>
      <trkpt lat="42.88747" lon="0.20527">
        <ele>2084.642</ele>
        <time>2022-07-03T11:15:33Z</time>
      </trkpt>
      <trkpt lat="42.8875" lon="0.20521">
        <ele>2085.782</ele>
        <time>2022-07-03T11:15:40Z</time>
      </trkpt>
      <trkpt lat="42.88756" lon="0.20519">
        <ele>2086.34</ele>
        <time>2022-07-03T11:15:48Z</time>
      </trkpt>
      <trkpt lat="42.88762" lon="0.20519">
        <ele>2086.492</ele>
        <time>2022-07-03T11:16:07Z</time>
      </trkpt>
      <trkpt lat="42.88767" lon="0.20521">
        <ele>2086.414</ele>
        <time>2022-07-03T11:16:12Z</time>
      </trkpt>
      <trkpt lat="42.88771" lon="0.20517">
        <ele>2086.329</ele>
        <time>2022-07-03T11:16:25Z</time>
      </trkpt>
      <trkpt lat="42.88775" lon="0.20516">
        <ele>2085.929</ele>
        <time>2022-07-03T11:16:34Z</time>
      </trkpt>
      <trkpt lat="42.8878" lon="0.20518">
        <ele>2084.8</ele>
        <time>2022-07-03T11:16:40Z</time>
      </trkpt>
      <trkpt lat="42.88784" lon="0.20519">
        <ele>2083.42</ele>
        <time>2022-07-03T11:16:44Z</time>
      </trkpt>
      <trkpt lat="42.88789" lon="0.20521">
        <ele>2082.609</ele>
        <time>2022-07-03T11:16:50Z</time>
      </trkpt>
      <trkpt lat="42.88793" lon="0.20521">
        <ele>2082.643</ele>
        <time>2022-07-03T11:16:57Z</time>
      </trkpt>
      <trkpt lat="42.88798" lon="0.20521">
        <ele>2082.682</ele>
        <time>2022-07-03T11:17:07Z</time>
      </trkpt>
      <trkpt lat="42.88803" lon="0.20518">
        <ele>2082.769</ele>
        <time>2022-07-03T11:17:14Z</time>
      </trkpt>
      <trkpt lat="42.88808" lon="0.20514">
        <ele>2082.812</ele>
        <time>2022-07-03T11:17:20Z</time>
      </trkpt>
      <trkpt lat="42.88813" lon="0.20516">
        <ele>2082.872</ele>
        <time>2022-07-03T11:17:24Z</time>
      </trkpt>
      <trkpt lat="42.88817" lon="0.20516">
        <ele>2082.82</ele>
        <time>2022-07-03T11:17:29Z</time>
      </trkpt>
      <trkpt lat="42.88823" lon="0.20516">
        <ele>2082.952</ele>
        <time>2022-07-03T11:17:37Z</time>
      </trkpt>
      <trkpt lat="42.88828" lon="0.20517">
        <ele>2082.954</ele>
        <time>2022-07-03T11:17:44Z</time>
      </trkpt>
      <trkpt lat="42.88832" lon="0.20513">
        <ele>2082.979</ele>
        <time>2022-07-03T11:17:52Z</time>
      </trkpt>
      <trkpt lat="42.88837" lon="0.20511">
        <ele>2083.263</ele>
        <time>2022-07-03T11:17:57Z</time>
      </trkpt>
      <trkpt lat="42.88841" lon="0.20514">
        <ele>2083.444</ele>
        <time>2022-07-03T11:18:02Z</time>
      </trkpt>
      <trkpt lat="42.88844" lon="0.20518">
        <ele>2083.818</ele>
        <time>2022-07-03T11:18:12Z</time>
      </trkpt>
      <trkpt lat="42.88849" lon="0.20515">
        <ele>2084.109</ele>
        <time>2022-07-03T11:18:15Z</time>
      </trkpt>
      <trkpt lat="42.88854" lon="0.20512">
        <ele>2084.457</ele>
        <time>2022-07-03T11:18:23Z</time>
      </trkpt>
      <trkpt lat="42.88858" lon="0.20512">
        <ele>2084.886</ele>
        <time>2022-07-03T11:18:27Z</time>
      </trkpt>
      <trkpt lat="42.88863" lon="0.20516">
        <ele>2084.883</ele>
        <time>2022-07-03T11:18:34Z</time>
      </trkpt>
      <trkpt lat="42.88868" lon="0.20517">
        <ele>2084.886</ele>
        <time>2022-07-03T11:18:39Z</time>
      </trkpt>
      <trkpt lat="42.88873" lon="0.20516">
        <ele>2084.646</ele>
        <time>2022-07-03T11:18:48Z</time>
      </trkpt>
      <trkpt lat="42.88878" lon="0.20517">
        <ele>2084.244</ele>
        <time>2022-07-03T11:18:54Z</time>
      </trkpt>
      <trkpt lat="42.88881" lon="0.20511">
        <ele>2084.066</ele>
        <time>2022-07-03T11:19:02Z</time>
      </trkpt>
      <trkpt lat="42.88884" lon="0.20505">
        <ele>2083.758</ele>
        <time>2022-07-03T11:19:08Z</time>
      </trkpt>
      <trkpt lat="42.88886" lon="0.20499">
        <ele>2083.433</ele>
        <time>2022-07-03T11:19:16Z</time>
      </trkpt>
      <trkpt lat="42.88889" lon="0.20492">
        <ele>2083.074</ele>
        <time>2022-07-03T11:19:25Z</time>
      </trkpt>
      <trkpt lat="42.88892" lon="0.20487">
        <ele>2082.756</ele>
        <time>2022-07-03T11:19:33Z</time>
      </trkpt>
      <trkpt lat="42.88894" lon="0.20482">
        <ele>2081.921</ele>
        <time>2022-07-03T11:19:40Z</time>
      </trkpt>
      <trkpt lat="42.88895" lon="0.20475">
        <ele>2080.809</ele>
        <time>2022-07-03T11:19:49Z</time>
      </trkpt>
      <trkpt lat="42.88895" lon="0.20468">
        <ele>2079.868</ele>
        <time>2022-07-03T11:19:55Z</time>
      </trkpt>
      <trkpt lat="42.889" lon="0.20466">
        <ele>2078.537</ele>
        <time>2022-07-03T11:20:02Z</time>
      </trkpt>
      <trkpt lat="42.88901" lon="0.2046">
        <ele>2077.644</ele>
        <time>2022-07-03T11:20:07Z</time>
      </trkpt>
      <trkpt lat="42.88902" lon="0.20454">
        <ele>2077.647</ele>
        <time>2022-07-03T11:20:14Z</time>
      </trkpt>
      <trkpt lat="42.88901" lon="0.20446">
        <ele>2077.627</ele>
        <time>2022-07-03T11:20:23Z</time>
      </trkpt>
      <trkpt lat="42.889" lon="0.2044">
        <ele>2077.545</ele>
        <time>2022-07-03T11:20:29Z</time>
      </trkpt>
      <trkpt lat="42.88901" lon="0.20433">
        <ele>2077.677</ele>
        <time>2022-07-03T11:20:40Z</time>
      </trkpt>
      <trkpt lat="42.88903" lon="0.20427">
        <ele>2077.619</ele>
        <time>2022-07-03T11:20:45Z</time>
      </trkpt>
      <trkpt lat="42.88907" lon="0.20423">
        <ele>2077.684</ele>
        <time>2022-07-03T11:20:52Z</time>
      </trkpt>
      <trkpt lat="42.88912" lon="0.20422">
        <ele>2077.549</ele>
        <time>2022-07-03T11:20:59Z</time>
      </trkpt>
      <trkpt lat="42.88915" lon="0.20416">
        <ele>2077.402</ele>
        <time>2022-07-03T11:21:04Z</time>
      </trkpt>
      <trkpt lat="42.88917" lon="0.2041">
        <ele>2077.222</ele>
        <time>2022-07-03T11:21:11Z</time>
      </trkpt>
      <trkpt lat="42.88919" lon="0.20403">
        <ele>2076.909</ele>
        <time>2022-07-03T11:21:15Z</time>
      </trkpt>
      <trkpt lat="42.88923" lon="0.20399">
        <ele>2076.415</ele>
        <time>2022-07-03T11:21:21Z</time>
      </trkpt>
      <trkpt lat="42.88925" lon="0.20393">
        <ele>2075.944</ele>
        <time>2022-07-03T11:21:26Z</time>
      </trkpt>
      <trkpt lat="42.88928" lon="0.20388">
        <ele>2075.871</ele>
        <time>2022-07-03T11:21:33Z</time>
      </trkpt>
      <trkpt lat="42.88931" lon="0.20382">
        <ele>2075.854</ele>
        <time>2022-07-03T11:21:39Z</time>
      </trkpt>
      <trkpt lat="42.88935" lon="0.20378">
        <ele>2075.894</ele>
        <time>2022-07-03T11:21:47Z</time>
      </trkpt>
      <trkpt lat="42.88934" lon="0.20386">
        <ele>2075.982</ele>
        <time>2022-07-03T11:21:52Z</time>
      </trkpt>
      <trkpt lat="42.8894" lon="0.20387">
        <ele>2076.474</ele>
        <time>2022-07-03T11:22:13Z</time>
      </trkpt>
      <trkpt lat="42.88942" lon="0.20381">
        <ele>2077.316</ele>
        <time>2022-07-03T11:22:18Z</time>
      </trkpt>
      <trkpt lat="42.88945" lon="0.20377">
        <ele>2079.011</ele>
        <time>2022-07-03T11:22:26Z</time>
      </trkpt>
      <trkpt lat="42.88948" lon="0.20372">
        <ele>2080.774</ele>
        <time>2022-07-03T11:22:33Z</time>
      </trkpt>
      <trkpt lat="42.88952" lon="0.20369">
        <ele>2081.656</ele>
        <time>2022-07-03T11:22:40Z</time>
      </trkpt>
      <trkpt lat="42.88956" lon="0.20366">
        <ele>2082.621</ele>
        <time>2022-07-03T11:22:49Z</time>
      </trkpt>
      <trkpt lat="42.88959" lon="0.20361">
        <ele>2083.309</ele>
        <time>2022-07-03T11:22:59Z</time>
      </trkpt>
      <trkpt lat="42.88962" lon="0.20357">
        <ele>2084.588</ele>
        <time>2022-07-03T11:23:06Z</time>
      </trkpt>
      <trkpt lat="42.88966" lon="0.20349">
        <ele>2086.167</ele>
        <time>2022-07-03T11:23:20Z</time>
      </trkpt>
      <trkpt lat="42.88968" lon="0.20343">
        <ele>2087.244</ele>
        <time>2022-07-03T11:23:27Z</time>
      </trkpt>
      <trkpt lat="42.88969" lon="0.20335">
        <ele>2088.537</ele>
        <time>2022-07-03T11:23:34Z</time>
      </trkpt>
      <trkpt lat="42.88973" lon="0.20331">
        <ele>2090.227</ele>
        <time>2022-07-03T11:23:48Z</time>
      </trkpt>
      <trkpt lat="42.88976" lon="0.20326">
        <ele>2090.625</ele>
        <time>2022-07-03T11:23:57Z</time>
      </trkpt>
      <trkpt lat="42.88979" lon="0.20321">
        <ele>2091.777</ele>
        <time>2022-07-03T11:24:07Z</time>
      </trkpt>
      <trkpt lat="42.88983" lon="0.20311">
        <ele>2094.029</ele>
        <time>2022-07-03T11:24:28Z</time>
      </trkpt>
      <trkpt lat="42.8898" lon="0.20305">
        <ele>2095.544</ele>
        <time>2022-07-03T11:24:37Z</time>
      </trkpt>
      <trkpt lat="42.88988" lon="0.20303">
        <ele>2098.815</ele>
        <time>2022-07-03T11:29:08Z</time>
      </trkpt>
      <trkpt lat="42.88989" lon="0.20295">
        <ele>2098.865</ele>
        <time>2022-07-03T11:29:12Z</time>
      </trkpt>
      <trkpt lat="42.88994" lon="0.20292">
        <ele>2098.811</ele>
        <time>2022-07-03T11:29:17Z</time>
      </trkpt>
      <trkpt lat="42.88996" lon="0.20285">
        <ele>2098.709</ele>
        <time>2022-07-03T11:29:23Z</time>
      </trkpt>
      <trkpt lat="42.89" lon="0.20281">
        <ele>2098.772</ele>
        <time>2022-07-03T11:29:28Z</time>
      </trkpt>
      <trkpt lat="42.89003" lon="0.20275">
        <ele>2098.791</ele>
        <time>2022-07-03T11:29:33Z</time>
      </trkpt>
      <trkpt lat="42.89006" lon="0.2027">
        <ele>2098.698</ele>
        <time>2022-07-03T11:29:38Z</time>
      </trkpt>
      <trkpt lat="42.89011" lon="0.20268">
        <ele>2098.611</ele>
        <time>2022-07-03T11:29:43Z</time>
      </trkpt>
      <trkpt lat="42.89014" lon="0.20264">
        <ele>2098.761</ele>
        <time>2022-07-03T11:29:50Z</time>
      </trkpt>
      <trkpt lat="42.89019" lon="0.20262">
        <ele>2098.979</ele>
        <time>2022-07-03T11:29:57Z</time>
      </trkpt>
      <trkpt lat="42.89023" lon="0.20258">
        <ele>2100.361</ele>
        <time>2022-07-03T11:30:04Z</time>
      </trkpt>
      <trkpt lat="42.89027" lon="0.20254">
        <ele>2101.933</ele>
        <time>2022-07-03T11:30:14Z</time>
      </trkpt>
      <trkpt lat="42.8903" lon="0.2025">
        <ele>2102.618</ele>
        <time>2022-07-03T11:30:19Z</time>
      </trkpt>
      <trkpt lat="42.89033" lon="0.20245">
        <ele>2103.298</ele>
        <time>2022-07-03T11:30:26Z</time>
      </trkpt>
      <trkpt lat="42.89037" lon="0.20241">
        <ele>2103.715</ele>
        <time>2022-07-03T11:30:34Z</time>
      </trkpt>
      <trkpt lat="42.8904" lon="0.20237">
        <ele>2104.526</ele>
        <time>2022-07-03T11:30:44Z</time>
      </trkpt>
      <trkpt lat="42.89041" lon="0.2023">
        <ele>2106.009</ele>
        <time>2022-07-03T11:30:49Z</time>
      </trkpt>
      <trkpt lat="42.8904" lon="0.20223">
        <ele>2107.84</ele>
        <time>2022-07-03T11:30:55Z</time>
      </trkpt>
      <trkpt lat="42.89043" lon="0.20218">
        <ele>2109.029</ele>
        <time>2022-07-03T11:31:01Z</time>
      </trkpt>
      <trkpt lat="42.89048" lon="0.20217">
        <ele>2110.026</ele>
        <time>2022-07-03T11:31:09Z</time>
      </trkpt>
      <trkpt lat="42.89051" lon="0.20212">
        <ele>2111.249</ele>
        <time>2022-07-03T11:31:14Z</time>
      </trkpt>
      <trkpt lat="42.89055" lon="0.20208">
        <ele>2112.579</ele>
        <time>2022-07-03T11:31:19Z</time>
      </trkpt>
      <trkpt lat="42.89059" lon="0.20206">
        <ele>2113.397</ele>
        <time>2022-07-03T11:31:25Z</time>
      </trkpt>
      <trkpt lat="42.89061" lon="0.202">
        <ele>2113.369</ele>
        <time>2022-07-03T11:31:34Z</time>
      </trkpt>
      <trkpt lat="42.89065" lon="0.20196">
        <ele>2113.361</ele>
        <time>2022-07-03T11:31:41Z</time>
      </trkpt>
      <trkpt lat="42.89068" lon="0.20191">
        <ele>2112.846</ele>
        <time>2022-07-03T11:31:47Z</time>
      </trkpt>
      <trkpt lat="42.89071" lon="0.20184">
        <ele>2111.772</ele>
        <time>2022-07-03T11:31:52Z</time>
      </trkpt>
      <trkpt lat="42.89073" lon="0.20178">
        <ele>2110.713</ele>
        <time>2022-07-03T11:31:59Z</time>
      </trkpt>
      <trkpt lat="42.89074" lon="0.20171">
        <ele>2110.714</ele>
        <time>2022-07-03T11:32:06Z</time>
      </trkpt>
      <trkpt lat="42.89076" lon="0.20164">
        <ele>2110.709</ele>
        <time>2022-07-03T11:32:12Z</time>
      </trkpt>
      <trkpt lat="42.8908" lon="0.20162">
        <ele>2110.958</ele>
        <time>2022-07-03T11:32:26Z</time>
      </trkpt>
      <trkpt lat="42.89085" lon="0.20164">
        <ele>2112.327</ele>
        <time>2022-07-03T11:32:31Z</time>
      </trkpt>
      <trkpt lat="42.89089" lon="0.2016">
        <ele>2114.334</ele>
        <time>2022-07-03T11:32:36Z</time>
      </trkpt>
      <trkpt lat="42.89092" lon="0.20155">
        <ele>2116.037</ele>
        <time>2022-07-03T11:32:40Z</time>
      </trkpt>
      <trkpt lat="42.89097" lon="0.20153">
        <ele>2116.837</ele>
        <time>2022-07-03T11:32:46Z</time>
      </trkpt>
      <trkpt lat="42.89098" lon="0.20146">
        <ele>2117.235</ele>
        <time>2022-07-03T11:32:51Z</time>
      </trkpt>
      <trkpt lat="42.89102" lon="0.20142">
        <ele>2117.567</ele>
        <time>2022-07-03T11:32:58Z</time>
      </trkpt>
      <trkpt lat="42.89103" lon="0.20135">
        <ele>2117.739</ele>
        <time>2022-07-03T11:33:04Z</time>
      </trkpt>
      <trkpt lat="42.89107" lon="0.20131">
        <ele>2117.754</ele>
        <time>2022-07-03T11:33:10Z</time>
      </trkpt>
      <trkpt lat="42.89112" lon="0.20128">
        <ele>2117.737</ele>
        <time>2022-07-03T11:33:17Z</time>
      </trkpt>
      <trkpt lat="42.89116" lon="0.20126">
        <ele>2117.649</ele>
        <time>2022-07-03T11:33:24Z</time>
      </trkpt>
      <trkpt lat="42.89116" lon="0.20119">
        <ele>2117.213</ele>
        <time>2022-07-03T11:33:31Z</time>
      </trkpt>
      <trkpt lat="42.89117" lon="0.20113">
        <ele>2116.409</ele>
        <time>2022-07-03T11:33:39Z</time>
      </trkpt>
      <trkpt lat="42.89121" lon="0.2011">
        <ele>2115.484</ele>
        <time>2022-07-03T11:33:47Z</time>
      </trkpt>
      <trkpt lat="42.89126" lon="0.20108">
        <ele>2114.283</ele>
        <time>2022-07-03T11:33:55Z</time>
      </trkpt>
      <trkpt lat="42.8913" lon="0.20104">
        <ele>2112.67</ele>
        <time>2022-07-03T11:34:02Z</time>
      </trkpt>
      <trkpt lat="42.89135" lon="0.20102">
        <ele>2111.193</ele>
        <time>2022-07-03T11:34:11Z</time>
      </trkpt>
      <trkpt lat="42.89136" lon="0.20095">
        <ele>2110.053</ele>
        <time>2022-07-03T11:34:16Z</time>
      </trkpt>
      <trkpt lat="42.89138" lon="0.20089">
        <ele>2108.861</ele>
        <time>2022-07-03T11:34:30Z</time>
      </trkpt>
      <trkpt lat="42.89142" lon="0.20086">
        <ele>2108.033</ele>
        <time>2022-07-03T11:34:38Z</time>
      </trkpt>
      <trkpt lat="42.89147" lon="0.20088">
        <ele>2106.895</ele>
        <time>2022-07-03T11:34:47Z</time>
      </trkpt>
      <trkpt lat="42.89152" lon="0.20086">
        <ele>2104.53</ele>
        <time>2022-07-03T11:34:56Z</time>
      </trkpt>
      <trkpt lat="42.89155" lon="0.20091">
        <ele>2102.422</ele>
        <time>2022-07-03T11:35:05Z</time>
      </trkpt>
      <trkpt lat="42.89159" lon="0.20096">
        <ele>2100.462</ele>
        <time>2022-07-03T11:35:13Z</time>
      </trkpt>
      <trkpt lat="42.89165" lon="0.20095">
        <ele>2098.608</ele>
        <time>2022-07-03T11:35:24Z</time>
      </trkpt>
      <trkpt lat="42.89169" lon="0.20092">
        <ele>2097.209</ele>
        <time>2022-07-03T11:35:35Z</time>
      </trkpt>
      <trkpt lat="42.89173" lon="0.20096">
        <ele>2095.463</ele>
        <time>2022-07-03T11:35:42Z</time>
      </trkpt>
      <trkpt lat="42.89176" lon="0.201">
        <ele>2093.632</ele>
        <time>2022-07-03T11:35:49Z</time>
      </trkpt>
      <trkpt lat="42.89181" lon="0.20101">
        <ele>2092.479</ele>
        <time>2022-07-03T11:35:56Z</time>
      </trkpt>
      <trkpt lat="42.89186" lon="0.20102">
        <ele>2091.652</ele>
        <time>2022-07-03T11:36:00Z</time>
      </trkpt>
      <trkpt lat="42.89191" lon="0.20102">
        <ele>2090.482</ele>
        <time>2022-07-03T11:36:04Z</time>
      </trkpt>
      <trkpt lat="42.89196" lon="0.20102">
        <ele>2089.24</ele>
        <time>2022-07-03T11:36:09Z</time>
      </trkpt>
      <trkpt lat="42.89201" lon="0.201">
        <ele>2088.742</ele>
        <time>2022-07-03T11:36:14Z</time>
      </trkpt>
      <trkpt lat="42.89206" lon="0.20098">
        <ele>2088.474</ele>
        <time>2022-07-03T11:36:20Z</time>
      </trkpt>
      <trkpt lat="42.8921" lon="0.20095">
        <ele>2087.839</ele>
        <time>2022-07-03T11:36:25Z</time>
      </trkpt>
      <trkpt lat="42.89214" lon="0.20091">
        <ele>2087.425</ele>
        <time>2022-07-03T11:36:30Z</time>
      </trkpt>
      <trkpt lat="42.89218" lon="0.20087">
        <ele>2087.426</ele>
        <time>2022-07-03T11:36:37Z</time>
      </trkpt>
      <trkpt lat="42.89223" lon="0.20086">
        <ele>2087.408</ele>
        <time>2022-07-03T11:36:43Z</time>
      </trkpt>
      <trkpt lat="42.89228" lon="0.20085">
        <ele>2087.609</ele>
        <time>2022-07-03T11:36:47Z</time>
      </trkpt>
      <trkpt lat="42.89232" lon="0.20089">
        <ele>2088.053</ele>
        <time>2022-07-03T11:36:53Z</time>
      </trkpt>
      <trkpt lat="42.89237" lon="0.20089">
        <ele>2088.232</ele>
        <time>2022-07-03T11:37:00Z</time>
      </trkpt>
      <trkpt lat="42.89242" lon="0.20088">
        <ele>2088.229</ele>
        <time>2022-07-03T11:37:04Z</time>
      </trkpt>
      <trkpt lat="42.89247" lon="0.20086">
        <ele>2088.222</ele>
        <time>2022-07-03T11:37:10Z</time>
      </trkpt>
      <trkpt lat="42.8925" lon="0.20091">
        <ele>2088.172</ele>
        <time>2022-07-03T11:37:13Z</time>
      </trkpt>
      <trkpt lat="42.89255" lon="0.20091">
        <ele>2088.07</ele>
        <time>2022-07-03T11:37:18Z</time>
      </trkpt>
      <trkpt lat="42.89257" lon="0.20086">
        <ele>2088.022</ele>
        <time>2022-07-03T11:37:23Z</time>
      </trkpt>
      <trkpt lat="42.89259" lon="0.2008">
        <ele>2088.024</ele>
        <time>2022-07-03T11:37:28Z</time>
      </trkpt>
      <trkpt lat="42.89262" lon="0.20075">
        <ele>2088.089</ele>
        <time>2022-07-03T11:37:32Z</time>
      </trkpt>
      <trkpt lat="42.89268" lon="0.20077">
        <ele>2088.121</ele>
        <time>2022-07-03T11:37:40Z</time>
      </trkpt>
      <trkpt lat="42.8927" lon="0.20072">
        <ele>2088.141</ele>
        <time>2022-07-03T11:37:46Z</time>
      </trkpt>
      <trkpt lat="42.89272" lon="0.20066">
        <ele>2087.905</ele>
        <time>2022-07-03T11:37:51Z</time>
      </trkpt>
      <trkpt lat="42.89273" lon="0.20059">
        <ele>2087.609</ele>
        <time>2022-07-03T11:37:59Z</time>
      </trkpt>
      <trkpt lat="42.89275" lon="0.20053">
        <ele>2087.273</ele>
        <time>2022-07-03T11:38:04Z</time>
      </trkpt>
      <trkpt lat="42.89278" lon="0.20047">
        <ele>2086.382</ele>
        <time>2022-07-03T11:38:13Z</time>
      </trkpt>
      <trkpt lat="42.89278" lon="0.20039">
        <ele>2085.339</ele>
        <time>2022-07-03T11:38:19Z</time>
      </trkpt>
      <trkpt lat="42.89277" lon="0.20033">
        <ele>2084.232</ele>
        <time>2022-07-03T11:38:29Z</time>
      </trkpt>
      <trkpt lat="42.89273" lon="0.20027">
        <ele>2083.262</ele>
        <time>2022-07-03T11:38:38Z</time>
      </trkpt>
      <trkpt lat="42.89278" lon="0.20026">
        <ele>2082.39</ele>
        <time>2022-07-03T11:38:45Z</time>
      </trkpt>
      <trkpt lat="42.89283" lon="0.20025">
        <ele>2081.132</ele>
        <time>2022-07-03T11:38:52Z</time>
      </trkpt>
      <trkpt lat="42.89287" lon="0.20022">
        <ele>2079.884</ele>
        <time>2022-07-03T11:39:05Z</time>
      </trkpt>
      <trkpt lat="42.89284" lon="0.20018">
        <ele>2078.359</ele>
        <time>2022-07-03T11:39:12Z</time>
      </trkpt>
      <trkpt lat="42.89281" lon="0.20012">
        <ele>2076.248</ele>
        <time>2022-07-03T11:39:23Z</time>
      </trkpt>
      <trkpt lat="42.89284" lon="0.20007">
        <ele>2074.261</ele>
        <time>2022-07-03T11:39:33Z</time>
      </trkpt>
      <trkpt lat="42.89286" lon="0.20001">
        <ele>2072.317</ele>
        <time>2022-07-03T11:39:42Z</time>
      </trkpt>
      <trkpt lat="42.8929" lon="0.2">
        <ele>2070.109</ele>
        <time>2022-07-03T11:39:50Z</time>
      </trkpt>
      <trkpt lat="42.89295" lon="0.20001">
        <ele>2068.185</ele>
        <time>2022-07-03T11:39:56Z</time>
      </trkpt>
      <trkpt lat="42.893" lon="0.20001">
        <ele>2066.424</ele>
        <time>2022-07-03T11:40:04Z</time>
      </trkpt>
      <trkpt lat="42.89301" lon="0.19994">
        <ele>2064.861</ele>
        <time>2022-07-03T11:40:10Z</time>
      </trkpt>
      <trkpt lat="42.89304" lon="0.1999">
        <ele>2063.534</ele>
        <time>2022-07-03T11:40:16Z</time>
      </trkpt>
      <trkpt lat="42.893" lon="0.19982">
        <ele>2062.684</ele>
        <time>2022-07-03T11:40:21Z</time>
      </trkpt>
      <trkpt lat="42.89299" lon="0.19976">
        <ele>2061.722</ele>
        <time>2022-07-03T11:40:25Z</time>
      </trkpt>
      <trkpt lat="42.89297" lon="0.1997">
        <ele>2060.914</ele>
        <time>2022-07-03T11:40:30Z</time>
      </trkpt>
      <trkpt lat="42.89293" lon="0.19965">
        <ele>2060.446</ele>
        <time>2022-07-03T11:40:36Z</time>
      </trkpt>
      <trkpt lat="42.8929" lon="0.19959">
        <ele>2060.041</ele>
        <time>2022-07-03T11:40:40Z</time>
      </trkpt>
      <trkpt lat="42.89286" lon="0.19958">
        <ele>2059.675</ele>
        <time>2022-07-03T11:40:45Z</time>
      </trkpt>
      <trkpt lat="42.89282" lon="0.19954">
        <ele>2059.128</ele>
        <time>2022-07-03T11:40:50Z</time>
      </trkpt>
      <trkpt lat="42.89277" lon="0.19951">
        <ele>2058.72</ele>
        <time>2022-07-03T11:40:56Z</time>
      </trkpt>
      <trkpt lat="42.89277" lon="0.19943">
        <ele>2058.409</ele>
        <time>2022-07-03T11:41:16Z</time>
      </trkpt>
      <trkpt lat="42.89281" lon="0.1994">
        <ele>2057.958</ele>
        <time>2022-07-03T11:41:23Z</time>
      </trkpt>
      <trkpt lat="42.89283" lon="0.19933">
        <ele>2056.067</ele>
        <time>2022-07-03T11:41:32Z</time>
      </trkpt>
      <trkpt lat="42.89283" lon="0.19926">
        <ele>2053.944</ele>
        <time>2022-07-03T11:41:39Z</time>
      </trkpt>
      <trkpt lat="42.8928" lon="0.1992">
        <ele>2052.747</ele>
        <time>2022-07-03T11:41:44Z</time>
      </trkpt>
      <trkpt lat="42.8928" lon="0.19913">
        <ele>2051.567</ele>
        <time>2022-07-03T11:41:48Z</time>
      </trkpt>
      <trkpt lat="42.8928" lon="0.19906">
        <ele>2050.665</ele>
        <time>2022-07-03T11:41:52Z</time>
      </trkpt>
      <trkpt lat="42.89276" lon="0.19901">
        <ele>2049.937</ele>
        <time>2022-07-03T11:41:56Z</time>
      </trkpt>
      <trkpt lat="42.89274" lon="0.19895">
        <ele>2049.159</ele>
        <time>2022-07-03T11:42:00Z</time>
      </trkpt>
      <trkpt lat="42.8927" lon="0.19891">
        <ele>2048.694</ele>
        <time>2022-07-03T11:42:04Z</time>
      </trkpt>
      <trkpt lat="42.89267" lon="0.19886">
        <ele>2048.662</ele>
        <time>2022-07-03T11:42:08Z</time>
      </trkpt>
      <trkpt lat="42.89263" lon="0.19883">
        <ele>2048.683</ele>
        <time>2022-07-03T11:42:13Z</time>
      </trkpt>
      <trkpt lat="42.89259" lon="0.19877">
        <ele>2048.611</ele>
        <time>2022-07-03T11:42:18Z</time>
      </trkpt>
      <trkpt lat="42.89256" lon="0.19873">
        <ele>2048.609</ele>
        <time>2022-07-03T11:42:24Z</time>
      </trkpt>
      <trkpt lat="42.89251" lon="0.1987">
        <ele>2048.537</ele>
        <time>2022-07-03T11:42:28Z</time>
      </trkpt>
      <trkpt lat="42.89249" lon="0.19864">
        <ele>2047.656</ele>
        <time>2022-07-03T11:42:31Z</time>
      </trkpt>
      <trkpt lat="42.89249" lon="0.19858">
        <ele>2046.583</ele>
        <time>2022-07-03T11:42:34Z</time>
      </trkpt>
      <trkpt lat="42.89246" lon="0.19852">
        <ele>2045.986</ele>
        <time>2022-07-03T11:42:38Z</time>
      </trkpt>
      <trkpt lat="42.8924" lon="0.19849">
        <ele>2045.416</ele>
        <time>2022-07-03T11:42:43Z</time>
      </trkpt>
      <trkpt lat="42.89237" lon="0.19844">
        <ele>2044.834</ele>
        <time>2022-07-03T11:42:47Z</time>
      </trkpt>
      <trkpt lat="42.89237" lon="0.19837">
        <ele>2044.486</ele>
        <time>2022-07-03T11:42:54Z</time>
      </trkpt>
      <trkpt lat="42.89239" lon="0.1983">
        <ele>2044.328</ele>
        <time>2022-07-03T11:42:59Z</time>
      </trkpt>
      <trkpt lat="42.89243" lon="0.19826">
        <ele>2043.573</ele>
        <time>2022-07-03T11:43:02Z</time>
      </trkpt>
      <trkpt lat="42.89244" lon="0.19819">
        <ele>2042.137</ele>
        <time>2022-07-03T11:43:06Z</time>
      </trkpt>
      <trkpt lat="42.89245" lon="0.19813">
        <ele>2041.249</ele>
        <time>2022-07-03T11:43:09Z</time>
      </trkpt>
      <trkpt lat="42.89248" lon="0.19807">
        <ele>2040.813</ele>
        <time>2022-07-03T11:43:13Z</time>
      </trkpt>
      <trkpt lat="42.89251" lon="0.19803">
        <ele>2040.709</ele>
        <time>2022-07-03T11:43:17Z</time>
      </trkpt>
      <trkpt lat="42.89254" lon="0.19798">
        <ele>2040.534</ele>
        <time>2022-07-03T11:43:20Z</time>
      </trkpt>
      <trkpt lat="42.89259" lon="0.19793">
        <ele>2040.363</ele>
        <time>2022-07-03T11:43:25Z</time>
      </trkpt>
      <trkpt lat="42.89263" lon="0.1979">
        <ele>2040.28</ele>
        <time>2022-07-03T11:43:33Z</time>
      </trkpt>
      <trkpt lat="42.89267" lon="0.19787">
        <ele>2040.023</ele>
        <time>2022-07-03T11:43:40Z</time>
      </trkpt>
      <trkpt lat="42.89272" lon="0.19785">
        <ele>2039.073</ele>
        <time>2022-07-03T11:43:45Z</time>
      </trkpt>
      <trkpt lat="42.89276" lon="0.1978">
        <ele>2038.271</ele>
        <time>2022-07-03T11:43:49Z</time>
      </trkpt>
      <trkpt lat="42.89278" lon="0.19774">
        <ele>2038.053</ele>
        <time>2022-07-03T11:43:52Z</time>
      </trkpt>
      <trkpt lat="42.89279" lon="0.19767">
        <ele>2037.575</ele>
        <time>2022-07-03T11:43:57Z</time>
      </trkpt>
      <trkpt lat="42.89279" lon="0.19761">
        <ele>2037.15</ele>
        <time>2022-07-03T11:44:02Z</time>
      </trkpt>
      <trkpt lat="42.89283" lon="0.19754">
        <ele>2036.918</ele>
        <time>2022-07-03T11:44:22Z</time>
      </trkpt>
      <trkpt lat="42.89288" lon="0.19755">
        <ele>2036.898</ele>
        <time>2022-07-03T11:44:56Z</time>
      </trkpt>
      <trkpt lat="42.89292" lon="0.19749">
        <ele>2036.817</ele>
        <time>2022-07-03T11:47:43Z</time>
      </trkpt>
      <trkpt lat="42.89295" lon="0.19742">
        <ele>2036.409</ele>
        <time>2022-07-03T11:47:51Z</time>
      </trkpt>
      <trkpt lat="42.893" lon="0.19742">
        <ele>2036.492</ele>
        <time>2022-07-03T11:47:55Z</time>
      </trkpt>
      <trkpt lat="42.89304" lon="0.19738">
        <ele>2036.231</ele>
        <time>2022-07-03T11:48:01Z</time>
      </trkpt>
      <trkpt lat="42.89308" lon="0.19742">
        <ele>2035.818</ele>
        <time>2022-07-03T11:48:09Z</time>
      </trkpt>
      <trkpt lat="42.89312" lon="0.19746">
        <ele>2035.231</ele>
        <time>2022-07-03T11:48:16Z</time>
      </trkpt>
      <trkpt lat="42.89317" lon="0.19749">
        <ele>2033.921</ele>
        <time>2022-07-03T11:48:23Z</time>
      </trkpt>
      <trkpt lat="42.89321" lon="0.1975">
        <ele>2032.539</ele>
        <time>2022-07-03T11:48:30Z</time>
      </trkpt>
      <trkpt lat="42.89325" lon="0.19753">
        <ele>2031.051</ele>
        <time>2022-07-03T11:48:36Z</time>
      </trkpt>
      <trkpt lat="42.89328" lon="0.19748">
        <ele>2029.383</ele>
        <time>2022-07-03T11:48:47Z</time>
      </trkpt>
      <trkpt lat="42.8933" lon="0.19742">
        <ele>2027.538</ele>
        <time>2022-07-03T11:48:55Z</time>
      </trkpt>
      <trkpt lat="42.89336" lon="0.19742">
        <ele>2025.599</ele>
        <time>2022-07-03T11:49:00Z</time>
      </trkpt>
      <trkpt lat="42.89341" lon="0.19742">
        <ele>2023.707</ele>
        <time>2022-07-03T11:49:04Z</time>
      </trkpt>
      <trkpt lat="42.89346" lon="0.19743">
        <ele>2022.527</ele>
        <time>2022-07-03T11:49:07Z</time>
      </trkpt>
      <trkpt lat="42.89351" lon="0.19742">
        <ele>2021.509</ele>
        <time>2022-07-03T11:49:10Z</time>
      </trkpt>
      <trkpt lat="42.89356" lon="0.19744">
        <ele>2020.58</ele>
        <time>2022-07-03T11:49:14Z</time>
      </trkpt>
      <trkpt lat="42.8936" lon="0.19741">
        <ele>2020.059</ele>
        <time>2022-07-03T11:49:20Z</time>
      </trkpt>
      <trkpt lat="42.89365" lon="0.19739">
        <ele>2019.566</ele>
        <time>2022-07-03T11:49:27Z</time>
      </trkpt>
      <trkpt lat="42.89368" lon="0.19734">
        <ele>2019.429</ele>
        <time>2022-07-03T11:49:30Z</time>
      </trkpt>
      <trkpt lat="42.89371" lon="0.1973">
        <ele>2019.479</ele>
        <time>2022-07-03T11:49:34Z</time>
      </trkpt>
      <trkpt lat="42.89376" lon="0.19732">
        <ele>2019.287</ele>
        <time>2022-07-03T11:49:38Z</time>
      </trkpt>
      <trkpt lat="42.8938" lon="0.1973">
        <ele>2019.249</ele>
        <time>2022-07-03T11:49:47Z</time>
      </trkpt>
      <trkpt lat="42.89385" lon="0.19727">
        <ele>2019.241</ele>
        <time>2022-07-03T11:49:53Z</time>
      </trkpt>
      <trkpt lat="42.8939" lon="0.19727">
        <ele>2019.246</ele>
        <time>2022-07-03T11:50:03Z</time>
      </trkpt>
      <trkpt lat="42.89396" lon="0.19722">
        <ele>2018.777</ele>
        <time>2022-07-03T11:50:12Z</time>
      </trkpt>
      <trkpt lat="42.894" lon="0.19717">
        <ele>2016.561</ele>
        <time>2022-07-03T11:50:19Z</time>
      </trkpt>
      <trkpt lat="42.89403" lon="0.19712">
        <ele>2014.927</ele>
        <time>2022-07-03T11:50:23Z</time>
      </trkpt>
      <trkpt lat="42.89407" lon="0.19713">
        <ele>2014.209</ele>
        <time>2022-07-03T11:50:34Z</time>
      </trkpt>
      <trkpt lat="42.89411" lon="0.19717">
        <ele>2014.118</ele>
        <time>2022-07-03T11:50:39Z</time>
      </trkpt>
      <trkpt lat="42.89416" lon="0.19719">
        <ele>2013.577</ele>
        <time>2022-07-03T11:50:45Z</time>
      </trkpt>
      <trkpt lat="42.89416" lon="0.19726">
        <ele>2012.454</ele>
        <time>2022-07-03T11:50:52Z</time>
      </trkpt>
      <trkpt lat="42.8942" lon="0.19729">
        <ele>2011.787</ele>
        <time>2022-07-03T11:51:00Z</time>
      </trkpt>
      <trkpt lat="42.89426" lon="0.19731">
        <ele>2010.967</ele>
        <time>2022-07-03T11:51:06Z</time>
      </trkpt>
      <trkpt lat="42.8943" lon="0.19732">
        <ele>2009.625</ele>
        <time>2022-07-03T11:51:11Z</time>
      </trkpt>
      <trkpt lat="42.89435" lon="0.19733">
        <ele>2008.557</ele>
        <time>2022-07-03T11:51:16Z</time>
      </trkpt>
      <trkpt lat="42.89438" lon="0.19738">
        <ele>2008.059</ele>
        <time>2022-07-03T11:51:21Z</time>
      </trkpt>
      <trkpt lat="42.89441" lon="0.19744">
        <ele>2007.864</ele>
        <time>2022-07-03T11:51:27Z</time>
      </trkpt>
      <trkpt lat="42.89443" lon="0.1975">
        <ele>2007.728</ele>
        <time>2022-07-03T11:51:34Z</time>
      </trkpt>
      <trkpt lat="42.89446" lon="0.19756">
        <ele>2007.589</ele>
        <time>2022-07-03T11:51:40Z</time>
      </trkpt>
      <trkpt lat="42.8945" lon="0.19761">
        <ele>2006.817</ele>
        <time>2022-07-03T11:51:46Z</time>
      </trkpt>
      <trkpt lat="42.89452" lon="0.19767">
        <ele>2005.709</ele>
        <time>2022-07-03T11:51:53Z</time>
      </trkpt>
      <trkpt lat="42.89455" lon="0.19772">
        <ele>2004.923</ele>
        <time>2022-07-03T11:52:02Z</time>
      </trkpt>
      <trkpt lat="42.8946" lon="0.19773">
        <ele>2004.052</ele>
        <time>2022-07-03T11:52:07Z</time>
      </trkpt>
      <trkpt lat="42.89465" lon="0.19776">
        <ele>2002.989</ele>
        <time>2022-07-03T11:52:12Z</time>
      </trkpt>
      <trkpt lat="42.89469" lon="0.19779">
        <ele>2002.042</ele>
        <time>2022-07-03T11:52:17Z</time>
      </trkpt>
      <trkpt lat="42.89472" lon="0.19785">
        <ele>2001.672</ele>
        <time>2022-07-03T11:52:23Z</time>
      </trkpt>
      <trkpt lat="42.89476" lon="0.19789">
        <ele>2001.56</ele>
        <time>2022-07-03T11:52:28Z</time>
      </trkpt>
      <trkpt lat="42.8948" lon="0.19796">
        <ele>2001.532</ele>
        <time>2022-07-03T11:52:34Z</time>
      </trkpt>
      <trkpt lat="42.89482" lon="0.19803">
        <ele>2001.544</ele>
        <time>2022-07-03T11:52:39Z</time>
      </trkpt>
      <trkpt lat="42.89485" lon="0.19808">
        <ele>2002.199</ele>
        <time>2022-07-03T11:52:43Z</time>
      </trkpt>
      <trkpt lat="42.89488" lon="0.19813">
        <ele>2002.676</ele>
        <time>2022-07-03T11:52:47Z</time>
      </trkpt>
      <trkpt lat="42.89493" lon="0.19815">
        <ele>2002.79</ele>
        <time>2022-07-03T11:52:52Z</time>
      </trkpt>
      <trkpt lat="42.89496" lon="0.1982">
        <ele>2002.819</ele>
        <time>2022-07-03T11:52:59Z</time>
      </trkpt>
      <trkpt lat="42.89501" lon="0.19823">
        <ele>2003.109</ele>
        <time>2022-07-03T11:53:04Z</time>
      </trkpt>
      <trkpt lat="42.89506" lon="0.19824">
        <ele>2003.598</ele>
        <time>2022-07-03T11:53:09Z</time>
      </trkpt>
      <trkpt lat="42.89512" lon="0.19826">
        <ele>2003.587</ele>
        <time>2022-07-03T11:53:14Z</time>
      </trkpt>
      <trkpt lat="42.89517" lon="0.19826">
        <ele>2003.584</ele>
        <time>2022-07-03T11:53:20Z</time>
      </trkpt>
      <trkpt lat="42.89521" lon="0.19829">
        <ele>2003.637</ele>
        <time>2022-07-03T11:53:25Z</time>
      </trkpt>
      <trkpt lat="42.89525" lon="0.19833">
        <ele>2003.677</ele>
        <time>2022-07-03T11:53:32Z</time>
      </trkpt>
      <trkpt lat="42.8953" lon="0.19838">
        <ele>2003.435</ele>
        <time>2022-07-03T11:53:41Z</time>
      </trkpt>
      <trkpt lat="42.89534" lon="0.19839">
        <ele>2003.267</ele>
        <time>2022-07-03T11:53:48Z</time>
      </trkpt>
      <trkpt lat="42.8954" lon="0.1984">
        <ele>2002.439</ele>
        <time>2022-07-03T11:53:57Z</time>
      </trkpt>
      <trkpt lat="42.89544" lon="0.19843">
        <ele>2002.084</ele>
        <time>2022-07-03T11:54:04Z</time>
      </trkpt>
      <trkpt lat="42.89547" lon="0.19848">
        <ele>2002.056</ele>
        <time>2022-07-03T11:54:10Z</time>
      </trkpt>
      <trkpt lat="42.89552" lon="0.1985">
        <ele>2002.059</ele>
        <time>2022-07-03T11:54:19Z</time>
      </trkpt>
      <trkpt lat="42.89556" lon="0.19853">
        <ele>2002.314</ele>
        <time>2022-07-03T11:54:25Z</time>
      </trkpt>
      <trkpt lat="42.8956" lon="0.19857">
        <ele>2002.509</ele>
        <time>2022-07-03T11:54:29Z</time>
      </trkpt>
      <trkpt lat="42.89564" lon="0.19856">
        <ele>2002.616</ele>
        <time>2022-07-03T11:54:34Z</time>
      </trkpt>
      <trkpt lat="42.89568" lon="0.1986">
        <ele>2002.915</ele>
        <time>2022-07-03T11:54:39Z</time>
      </trkpt>
      <trkpt lat="42.89574" lon="0.1986">
        <ele>2003.182</ele>
        <time>2022-07-03T11:54:45Z</time>
      </trkpt>
      <trkpt lat="42.89579" lon="0.1986">
        <ele>2003.295</ele>
        <time>2022-07-03T11:54:51Z</time>
      </trkpt>
      <trkpt lat="42.89585" lon="0.1986">
        <ele>2003.475</ele>
        <time>2022-07-03T11:55:01Z</time>
      </trkpt>
      <trkpt lat="42.8959" lon="0.19862">
        <ele>2003.963</ele>
        <time>2022-07-03T11:55:08Z</time>
      </trkpt>
      <trkpt lat="42.89594" lon="0.19864">
        <ele>2004.175</ele>
        <time>2022-07-03T11:55:14Z</time>
      </trkpt>
      <trkpt lat="42.89598" lon="0.19869">
        <ele>2004.187</ele>
        <time>2022-07-03T11:55:20Z</time>
      </trkpt>
      <trkpt lat="42.896" lon="0.19874">
        <ele>2004.172</ele>
        <time>2022-07-03T11:55:25Z</time>
      </trkpt>
      <trkpt lat="42.89604" lon="0.19877">
        <ele>2004.173</ele>
        <time>2022-07-03T11:55:31Z</time>
      </trkpt>
      <trkpt lat="42.89608" lon="0.19882">
        <ele>2004.185</ele>
        <time>2022-07-03T11:55:36Z</time>
      </trkpt>
      <trkpt lat="42.89611" lon="0.19887">
        <ele>2004.113</ele>
        <time>2022-07-03T11:55:40Z</time>
      </trkpt>
      <trkpt lat="42.89615" lon="0.19891">
        <ele>2004.109</ele>
        <time>2022-07-03T11:55:49Z</time>
      </trkpt>
      <trkpt lat="42.89618" lon="0.19896">
        <ele>2004.158</ele>
        <time>2022-07-03T11:55:53Z</time>
      </trkpt>
      <trkpt lat="42.8962" lon="0.19902">
        <ele>2004.577</ele>
        <time>2022-07-03T11:56:00Z</time>
      </trkpt>
      <trkpt lat="42.89624" lon="0.19906">
        <ele>2004.994</ele>
        <time>2022-07-03T11:56:06Z</time>
      </trkpt>
      <trkpt lat="42.89625" lon="0.19912">
        <ele>2005.287</ele>
        <time>2022-07-03T11:56:11Z</time>
      </trkpt>
      <trkpt lat="42.89626" lon="0.19919">
        <ele>2005.567</ele>
        <time>2022-07-03T11:56:16Z</time>
      </trkpt>
      <trkpt lat="42.89626" lon="0.19925">
        <ele>2005.535</ele>
        <time>2022-07-03T11:56:22Z</time>
      </trkpt>
      <trkpt lat="42.89629" lon="0.1993">
        <ele>2005.687</ele>
        <time>2022-07-03T11:56:28Z</time>
      </trkpt>
      <trkpt lat="42.89634" lon="0.19933">
        <ele>2005.659</ele>
        <time>2022-07-03T11:56:35Z</time>
      </trkpt>
      <trkpt lat="42.89638" lon="0.19939">
        <ele>2005.884</ele>
        <time>2022-07-03T11:56:40Z</time>
      </trkpt>
      <trkpt lat="42.89641" lon="0.19945">
        <ele>2005.935</ele>
        <time>2022-07-03T11:56:46Z</time>
      </trkpt>
      <trkpt lat="42.89645" lon="0.1995">
        <ele>2006.286</ele>
        <time>2022-07-03T11:56:52Z</time>
      </trkpt>
      <trkpt lat="42.89646" lon="0.19956">
        <ele>2006.714</ele>
        <time>2022-07-03T11:56:58Z</time>
      </trkpt>
      <trkpt lat="42.89647" lon="0.19964">
        <ele>2006.909</ele>
        <time>2022-07-03T11:57:03Z</time>
      </trkpt>
      <trkpt lat="42.89646" lon="0.19971">
        <ele>2006.734</ele>
        <time>2022-07-03T11:57:07Z</time>
      </trkpt>
      <trkpt lat="42.89648" lon="0.19977">
        <ele>2006.733</ele>
        <time>2022-07-03T11:57:11Z</time>
      </trkpt>
      <trkpt lat="42.8965" lon="0.19982">
        <ele>2006.49</ele>
        <time>2022-07-03T11:57:15Z</time>
      </trkpt>
      <trkpt lat="42.89652" lon="0.19988">
        <ele>2006.423</ele>
        <time>2022-07-03T11:57:19Z</time>
      </trkpt>
      <trkpt lat="42.89655" lon="0.19993">
        <ele>2006.483</ele>
        <time>2022-07-03T11:57:24Z</time>
      </trkpt>
      <trkpt lat="42.89658" lon="0.19998">
        <ele>2006.481</ele>
        <time>2022-07-03T11:57:29Z</time>
      </trkpt>
      <trkpt lat="42.89663" lon="0.19999">
        <ele>2006.353</ele>
        <time>2022-07-03T12:01:19Z</time>
      </trkpt>
      <trkpt lat="42.89659" lon="0.20003">
        <ele>2006.335</ele>
        <time>2022-07-03T12:07:25Z</time>
      </trkpt>
      <trkpt lat="42.89658" lon="0.20009">
        <ele>2005.74</ele>
        <time>2022-07-03T12:07:32Z</time>
      </trkpt>
      <trkpt lat="42.89656" lon="0.20015">
        <ele>2004.615</ele>
        <time>2022-07-03T12:07:39Z</time>
      </trkpt>
      <trkpt lat="42.89658" lon="0.20022">
        <ele>2003.565</ele>
        <time>2022-07-03T12:07:45Z</time>
      </trkpt>
      <trkpt lat="42.89661" lon="0.20029">
        <ele>2001.711</ele>
        <time>2022-07-03T12:07:49Z</time>
      </trkpt>
      <trkpt lat="42.89664" lon="0.20034">
        <ele>2000.209</ele>
        <time>2022-07-03T12:07:53Z</time>
      </trkpt>
      <trkpt lat="42.89664" lon="0.20042">
        <ele>1999.242</ele>
        <time>2022-07-03T12:08:05Z</time>
      </trkpt>
      <trkpt lat="42.89664" lon="0.20049">
        <ele>1998.531</ele>
        <time>2022-07-03T12:08:10Z</time>
      </trkpt>
      <trkpt lat="42.8967" lon="0.20047">
        <ele>1995.518</ele>
        <time>2022-07-03T12:08:15Z</time>
      </trkpt>
      <trkpt lat="42.89675" lon="0.20043">
        <ele>1994.971</ele>
        <time>2022-07-03T12:08:18Z</time>
      </trkpt>
      <trkpt lat="42.89678" lon="0.20039">
        <ele>1993.741</ele>
        <time>2022-07-03T12:08:21Z</time>
      </trkpt>
      <trkpt lat="42.89682" lon="0.20033">
        <ele>1992.949</ele>
        <time>2022-07-03T12:08:25Z</time>
      </trkpt>
      <trkpt lat="42.89687" lon="0.20033">
        <ele>1992.861</ele>
        <time>2022-07-03T12:08:31Z</time>
      </trkpt>
      <trkpt lat="42.89692" lon="0.20031">
        <ele>1992.853</ele>
        <time>2022-07-03T12:08:35Z</time>
      </trkpt>
      <trkpt lat="42.89697" lon="0.20028">
        <ele>1992.848</ele>
        <time>2022-07-03T12:08:39Z</time>
      </trkpt>
      <trkpt lat="42.89702" lon="0.20027">
        <ele>1992.554</ele>
        <time>2022-07-03T12:08:45Z</time>
      </trkpt>
      <trkpt lat="42.89707" lon="0.20025">
        <ele>1992.156</ele>
        <time>2022-07-03T12:08:48Z</time>
      </trkpt>
      <trkpt lat="42.89712" lon="0.20027">
        <ele>1991.511</ele>
        <time>2022-07-03T12:08:52Z</time>
      </trkpt>
      <trkpt lat="42.89718" lon="0.20026">
        <ele>1990.209</ele>
        <time>2022-07-03T12:08:55Z</time>
      </trkpt>
      <trkpt lat="42.89722" lon="0.20023">
        <ele>1988.826</ele>
        <time>2022-07-03T12:08:58Z</time>
      </trkpt>
      <trkpt lat="42.89725" lon="0.20019">
        <ele>1987.775</ele>
        <time>2022-07-03T12:09:01Z</time>
      </trkpt>
      <trkpt lat="42.89729" lon="0.20014">
        <ele>1987.252</ele>
        <time>2022-07-03T12:09:05Z</time>
      </trkpt>
      <trkpt lat="42.89733" lon="0.20011">
        <ele>1987.265</ele>
        <time>2022-07-03T12:09:08Z</time>
      </trkpt>
      <trkpt lat="42.89737" lon="0.20009">
        <ele>1987.235</ele>
        <time>2022-07-03T12:09:15Z</time>
      </trkpt>
      <trkpt lat="42.89741" lon="0.20012">
        <ele>1987.353</ele>
        <time>2022-07-03T12:09:18Z</time>
      </trkpt>
      <trkpt lat="42.89746" lon="0.20013">
        <ele>1987.395</ele>
        <time>2022-07-03T12:09:22Z</time>
      </trkpt>
      <trkpt lat="42.89751" lon="0.20015">
        <ele>1987.347</ele>
        <time>2022-07-03T12:09:28Z</time>
      </trkpt>
      <trkpt lat="42.89753" lon="0.2002">
        <ele>1987.322</ele>
        <time>2022-07-03T12:09:34Z</time>
      </trkpt>
      <trkpt lat="42.89757" lon="0.20024">
        <ele>1987.124</ele>
        <time>2022-07-03T12:09:44Z</time>
      </trkpt>
      <trkpt lat="42.89758" lon="0.2003">
        <ele>1986.604</ele>
        <time>2022-07-03T12:09:49Z</time>
      </trkpt>
      <trkpt lat="42.89763" lon="0.20031">
        <ele>1985.214</ele>
        <time>2022-07-03T12:09:54Z</time>
      </trkpt>
      <trkpt lat="42.89767" lon="0.20034">
        <ele>1983.609</ele>
        <time>2022-07-03T12:09:59Z</time>
      </trkpt>
      <trkpt lat="42.89772" lon="0.20036">
        <ele>1982.133</ele>
        <time>2022-07-03T12:10:03Z</time>
      </trkpt>
      <trkpt lat="42.89776" lon="0.2004">
        <ele>1980.582</ele>
        <time>2022-07-03T12:10:08Z</time>
      </trkpt>
      <trkpt lat="42.89782" lon="0.20043">
        <ele>1979.459</ele>
        <time>2022-07-03T12:10:14Z</time>
      </trkpt>
      <trkpt lat="42.89786" lon="0.20046">
        <ele>1978.342</ele>
        <time>2022-07-03T12:10:19Z</time>
      </trkpt>
      <trkpt lat="42.89791" lon="0.20049">
        <ele>1977.082</ele>
        <time>2022-07-03T12:10:25Z</time>
      </trkpt>
      <trkpt lat="42.89795" lon="0.2005">
        <ele>1975.86</ele>
        <time>2022-07-03T12:10:28Z</time>
      </trkpt>
      <trkpt lat="42.898" lon="0.20052">
        <ele>1974.492</ele>
        <time>2022-07-03T12:10:32Z</time>
      </trkpt>
      <trkpt lat="42.89806" lon="0.20053">
        <ele>1973.484</ele>
        <time>2022-07-03T12:10:38Z</time>
      </trkpt>
      <trkpt lat="42.8981" lon="0.20055">
        <ele>1973.079</ele>
        <time>2022-07-03T12:10:41Z</time>
      </trkpt>
      <trkpt lat="42.89816" lon="0.20055">
        <ele>1972.298</ele>
        <time>2022-07-03T12:10:45Z</time>
      </trkpt>
      <trkpt lat="42.89821" lon="0.20055">
        <ele>1971.415</ele>
        <time>2022-07-03T12:10:49Z</time>
      </trkpt>
      <trkpt lat="42.89826" lon="0.20056">
        <ele>1970.626</ele>
        <time>2022-07-03T12:10:55Z</time>
      </trkpt>
      <trkpt lat="42.89831" lon="0.20059">
        <ele>1969.709</ele>
        <time>2022-07-03T12:11:02Z</time>
      </trkpt>
      <trkpt lat="42.89836" lon="0.20063">
        <ele>1968.79</ele>
        <time>2022-07-03T12:11:08Z</time>
      </trkpt>
      <trkpt lat="42.89841" lon="0.20063">
        <ele>1967.089</ele>
        <time>2022-07-03T12:11:14Z</time>
      </trkpt>
      <trkpt lat="42.89845" lon="0.20066">
        <ele>1965.366</ele>
        <time>2022-07-03T12:11:19Z</time>
      </trkpt>
      <trkpt lat="42.8985" lon="0.20067">
        <ele>1963.699</ele>
        <time>2022-07-03T12:11:24Z</time>
      </trkpt>
      <trkpt lat="42.89856" lon="0.20067">
        <ele>1961.919</ele>
        <time>2022-07-03T12:11:28Z</time>
      </trkpt>
      <trkpt lat="42.8986" lon="0.20068">
        <ele>1960.637</ele>
        <time>2022-07-03T12:11:32Z</time>
      </trkpt>
      <trkpt lat="42.89864" lon="0.20071">
        <ele>1959.859</ele>
        <time>2022-07-03T12:11:37Z</time>
      </trkpt>
      <trkpt lat="42.89869" lon="0.20068">
        <ele>1959.261</ele>
        <time>2022-07-03T12:11:45Z</time>
      </trkpt>
      <trkpt lat="42.89869" lon="0.20074">
        <ele>1958.526</ele>
        <time>2022-07-03T12:11:51Z</time>
      </trkpt>
      <trkpt lat="42.89874" lon="0.20076">
        <ele>1957.431</ele>
        <time>2022-07-03T12:11:57Z</time>
      </trkpt>
      <trkpt lat="42.89875" lon="0.20083">
        <ele>1956.061</ele>
        <time>2022-07-03T12:12:07Z</time>
      </trkpt>
      <trkpt lat="42.89875" lon="0.20089">
        <ele>1954.407</ele>
        <time>2022-07-03T12:12:13Z</time>
      </trkpt>
      <trkpt lat="42.89876" lon="0.20096">
        <ele>1952.409</ele>
        <time>2022-07-03T12:12:20Z</time>
      </trkpt>
      <trkpt lat="42.89876" lon="0.20103">
        <ele>1950.824</ele>
        <time>2022-07-03T12:12:24Z</time>
      </trkpt>
      <trkpt lat="42.89873" lon="0.20109">
        <ele>1949.323</ele>
        <time>2022-07-03T12:12:30Z</time>
      </trkpt>
      <trkpt lat="42.89872" lon="0.20115">
        <ele>1948.19</ele>
        <time>2022-07-03T12:12:36Z</time>
      </trkpt>
      <trkpt lat="42.89869" lon="0.20121">
        <ele>1946.743</ele>
        <time>2022-07-03T12:12:42Z</time>
      </trkpt>
      <trkpt lat="42.89867" lon="0.20126">
        <ele>1944.933</ele>
        <time>2022-07-03T12:12:47Z</time>
      </trkpt>
      <trkpt lat="42.89865" lon="0.20133">
        <ele>1943.551</ele>
        <time>2022-07-03T12:12:53Z</time>
      </trkpt>
      <trkpt lat="42.8986" lon="0.20137">
        <ele>1942.123</ele>
        <time>2022-07-03T12:13:00Z</time>
      </trkpt>
      <trkpt lat="42.89859" lon="0.20143">
        <ele>1940.965</ele>
        <time>2022-07-03T12:13:05Z</time>
      </trkpt>
      <trkpt lat="42.89858" lon="0.2015">
        <ele>1939.33</ele>
        <time>2022-07-03T12:13:10Z</time>
      </trkpt>
      <trkpt lat="42.89857" lon="0.20159">
        <ele>1937.435</ele>
        <time>2022-07-03T12:13:30Z</time>
      </trkpt>
      <trkpt lat="42.8986" lon="0.20166">
        <ele>1936.486</ele>
        <time>2022-07-03T12:13:35Z</time>
      </trkpt>
      <trkpt lat="42.89861" lon="0.20173">
        <ele>1935.214</ele>
        <time>2022-07-03T12:13:38Z</time>
      </trkpt>
      <trkpt lat="42.89861" lon="0.20179">
        <ele>1934.309</ele>
        <time>2022-07-03T12:13:42Z</time>
      </trkpt>
      <trkpt lat="42.89862" lon="0.20185">
        <ele>1934.034</ele>
        <time>2022-07-03T12:13:46Z</time>
      </trkpt>
      <trkpt lat="42.89867" lon="0.2019">
        <ele>1933.573</ele>
        <time>2022-07-03T12:13:51Z</time>
      </trkpt>
      <trkpt lat="42.8987" lon="0.20196">
        <ele>1933.43</ele>
        <time>2022-07-03T12:13:56Z</time>
      </trkpt>
      <trkpt lat="42.89873" lon="0.20201">
        <ele>1933.383</ele>
        <time>2022-07-03T12:14:11Z</time>
      </trkpt>
      <trkpt lat="42.89878" lon="0.20206">
        <ele>1933.323</ele>
        <time>2022-07-03T12:14:15Z</time>
      </trkpt>
      <trkpt lat="42.89882" lon="0.20209">
        <ele>1932.971</ele>
        <time>2022-07-03T12:14:19Z</time>
      </trkpt>
      <trkpt lat="42.89886" lon="0.20214">
        <ele>1932.583</ele>
        <time>2022-07-03T12:14:22Z</time>
      </trkpt>
      <trkpt lat="42.89888" lon="0.20222">
        <ele>1932.015</ele>
        <time>2022-07-03T12:14:27Z</time>
      </trkpt>
      <trkpt lat="42.89891" lon="0.20227">
        <ele>1931.42</ele>
        <time>2022-07-03T12:14:30Z</time>
      </trkpt>
      <trkpt lat="42.89895" lon="0.20233">
        <ele>1931.193</ele>
        <time>2022-07-03T12:14:34Z</time>
      </trkpt>
      <trkpt lat="42.89898" lon="0.20238">
        <ele>1930.465</ele>
        <time>2022-07-03T12:14:38Z</time>
      </trkpt>
      <trkpt lat="42.89903" lon="0.20239">
        <ele>1930.121</ele>
        <time>2022-07-03T12:14:42Z</time>
      </trkpt>
      <trkpt lat="42.89907" lon="0.20244">
        <ele>1930.109</ele>
        <time>2022-07-03T12:14:47Z</time>
      </trkpt>
      <trkpt lat="42.89911" lon="0.2025">
        <ele>1929.92</ele>
        <time>2022-07-03T12:14:51Z</time>
      </trkpt>
      <trkpt lat="42.89915" lon="0.20253">
        <ele>1929.749</ele>
        <time>2022-07-03T12:14:55Z</time>
      </trkpt>
      <trkpt lat="42.89917" lon="0.2026">
        <ele>1929.626</ele>
        <time>2022-07-03T12:14:59Z</time>
      </trkpt>
      <trkpt lat="42.89922" lon="0.20263">
        <ele>1929.519</ele>
        <time>2022-07-03T12:15:03Z</time>
      </trkpt>
      <trkpt lat="42.89926" lon="0.20267">
        <ele>1929.499</ele>
        <time>2022-07-03T12:15:07Z</time>
      </trkpt>
      <trkpt lat="42.89931" lon="0.2027">
        <ele>1929.187</ele>
        <time>2022-07-03T12:15:11Z</time>
      </trkpt>
      <trkpt lat="42.89936" lon="0.20271">
        <ele>1928.469</ele>
        <time>2022-07-03T12:15:16Z</time>
      </trkpt>
      <trkpt lat="42.89939" lon="0.20276">
        <ele>1927.881</ele>
        <time>2022-07-03T12:15:19Z</time>
      </trkpt>
      <trkpt lat="42.89943" lon="0.20281">
        <ele>1927.736</ele>
        <time>2022-07-03T12:15:23Z</time>
      </trkpt>
      <trkpt lat="42.89945" lon="0.20287">
        <ele>1927.656</ele>
        <time>2022-07-03T12:15:27Z</time>
      </trkpt>
      <trkpt lat="42.89947" lon="0.20293">
        <ele>1927.359</ele>
        <time>2022-07-03T12:15:31Z</time>
      </trkpt>
      <trkpt lat="42.89948" lon="0.203">
        <ele>1927.114</ele>
        <time>2022-07-03T12:15:35Z</time>
      </trkpt>
      <trkpt lat="42.89947" lon="0.20307">
        <ele>1927.009</ele>
        <time>2022-07-03T12:15:39Z</time>
      </trkpt>
      <trkpt lat="42.89948" lon="0.20314">
        <ele>1926.386</ele>
        <time>2022-07-03T12:15:43Z</time>
      </trkpt>
      <trkpt lat="42.89951" lon="0.20319">
        <ele>1925.375</ele>
        <time>2022-07-03T12:15:47Z</time>
      </trkpt>
      <trkpt lat="42.89951" lon="0.20326">
        <ele>1924.362</ele>
        <time>2022-07-03T12:16:02Z</time>
      </trkpt>
      <trkpt lat="42.89954" lon="0.20332">
        <ele>1923.435</ele>
        <time>2022-07-03T12:16:07Z</time>
      </trkpt>
      <trkpt lat="42.89955" lon="0.20338">
        <ele>1921.935</ele>
        <time>2022-07-03T12:16:11Z</time>
      </trkpt>
      <trkpt lat="42.89957" lon="0.20343">
        <ele>1920.673</ele>
        <time>2022-07-03T12:16:15Z</time>
      </trkpt>
      <trkpt lat="42.89958" lon="0.2035">
        <ele>1920.165</ele>
        <time>2022-07-03T12:16:18Z</time>
      </trkpt>
      <trkpt lat="42.8996" lon="0.20357">
        <ele>1919.367</ele>
        <time>2022-07-03T12:16:22Z</time>
      </trkpt>
      <trkpt lat="42.89962" lon="0.20363">
        <ele>1918.452</ele>
        <time>2022-07-03T12:16:27Z</time>
      </trkpt>
      <trkpt lat="42.89965" lon="0.20369">
        <ele>1917.759</ele>
        <time>2022-07-03T12:16:31Z</time>
      </trkpt>
      <trkpt lat="42.89967" lon="0.20376">
        <ele>1917.103</ele>
        <time>2022-07-03T12:16:35Z</time>
      </trkpt>
      <trkpt lat="42.89971" lon="0.20382">
        <ele>1915.223</ele>
        <time>2022-07-03T12:16:39Z</time>
      </trkpt>
      <trkpt lat="42.89971" lon="0.20388">
        <ele>1914.909</ele>
        <time>2022-07-03T12:16:44Z</time>
      </trkpt>
      <trkpt lat="42.89973" lon="0.20396">
        <ele>1913.966</ele>
        <time>2022-07-03T12:16:49Z</time>
      </trkpt>
      <trkpt lat="42.89975" lon="0.20403">
        <ele>1912.855</ele>
        <time>2022-07-03T12:16:53Z</time>
      </trkpt>
      <trkpt lat="42.89979" lon="0.20407">
        <ele>1911.562</ele>
        <time>2022-07-03T12:16:59Z</time>
      </trkpt>
      <trkpt lat="42.89984" lon="0.20409">
        <ele>1910.335</ele>
        <time>2022-07-03T12:17:04Z</time>
      </trkpt>
      <trkpt lat="42.89986" lon="0.20416">
        <ele>1909.025</ele>
        <time>2022-07-03T12:17:09Z</time>
      </trkpt>
      <trkpt lat="42.89988" lon="0.20421">
        <ele>1907.723</ele>
        <time>2022-07-03T12:17:14Z</time>
      </trkpt>
      <trkpt lat="42.89992" lon="0.20427">
        <ele>1906.965</ele>
        <time>2022-07-03T12:17:19Z</time>
      </trkpt>
      <trkpt lat="42.89996" lon="0.20432">
        <ele>1905.767</ele>
        <time>2022-07-03T12:17:24Z</time>
      </trkpt>
      <trkpt lat="42.9" lon="0.20434">
        <ele>1904.482</ele>
        <time>2022-07-03T12:17:30Z</time>
      </trkpt>
      <trkpt lat="42.90005" lon="0.20434">
        <ele>1903.338</ele>
        <time>2022-07-03T12:17:36Z</time>
      </trkpt>
      <trkpt lat="42.9001" lon="0.20435">
        <ele>1901.77</ele>
        <time>2022-07-03T12:17:43Z</time>
      </trkpt>
      <trkpt lat="42.90016" lon="0.20435">
        <ele>1900.017</ele>
        <time>2022-07-03T12:17:50Z</time>
      </trkpt>
      <trkpt lat="42.90021" lon="0.20437">
        <ele>1898.409</ele>
        <time>2022-07-03T12:17:57Z</time>
      </trkpt>
      <trkpt lat="42.90026" lon="0.2044">
        <ele>1896.934</ele>
        <time>2022-07-03T12:18:04Z</time>
      </trkpt>
      <trkpt lat="42.90028" lon="0.20445">
        <ele>1895.523</ele>
        <time>2022-07-03T12:18:10Z</time>
      </trkpt>
      <trkpt lat="42.90033" lon="0.20449">
        <ele>1893.67</ele>
        <time>2022-07-03T12:18:16Z</time>
      </trkpt>
      <trkpt lat="42.90037" lon="0.20454">
        <ele>1892.073</ele>
        <time>2022-07-03T12:18:21Z</time>
      </trkpt>
      <trkpt lat="42.9004" lon="0.20458">
        <ele>1890.433</ele>
        <time>2022-07-03T12:18:25Z</time>
      </trkpt>
      <trkpt lat="42.90044" lon="0.20463">
        <ele>1888.961</ele>
        <time>2022-07-03T12:18:31Z</time>
      </trkpt>
      <trkpt lat="42.90047" lon="0.20467">
        <ele>1888.133</ele>
        <time>2022-07-03T12:18:35Z</time>
      </trkpt>
      <trkpt lat="42.9005" lon="0.20473">
        <ele>1887.435</ele>
        <time>2022-07-03T12:18:40Z</time>
      </trkpt>
      <trkpt lat="42.90053" lon="0.20478">
        <ele>1886.49</ele>
        <time>2022-07-03T12:18:45Z</time>
      </trkpt>
      <trkpt lat="42.90057" lon="0.20484">
        <ele>1885.356</ele>
        <time>2022-07-03T12:18:50Z</time>
      </trkpt>
      <trkpt lat="42.9006" lon="0.20489">
        <ele>1884.159</ele>
        <time>2022-07-03T12:18:56Z</time>
      </trkpt>
      <trkpt lat="42.90064" lon="0.20492">
        <ele>1882.914</ele>
        <time>2022-07-03T12:19:02Z</time>
      </trkpt>
      <trkpt lat="42.90068" lon="0.20497">
        <ele>1882.009</ele>
        <time>2022-07-03T12:19:09Z</time>
      </trkpt>
      <trkpt lat="42.9007" lon="0.20502">
        <ele>1880.826</ele>
        <time>2022-07-03T12:19:15Z</time>
      </trkpt>
      <trkpt lat="42.90072" lon="0.20508">
        <ele>1879.555</ele>
        <time>2022-07-03T12:19:20Z</time>
      </trkpt>
      <trkpt lat="42.90076" lon="0.20514">
        <ele>1878.052</ele>
        <time>2022-07-03T12:19:26Z</time>
      </trkpt>
      <trkpt lat="42.90078" lon="0.2052">
        <ele>1876.425</ele>
        <time>2022-07-03T12:19:31Z</time>
      </trkpt>
      <trkpt lat="42.90082" lon="0.20525">
        <ele>1875.145</ele>
        <time>2022-07-03T12:19:36Z</time>
      </trkpt>
      <trkpt lat="42.90085" lon="0.20531">
        <ele>1873.953</ele>
        <time>2022-07-03T12:19:43Z</time>
      </trkpt>
      <trkpt lat="42.90088" lon="0.20537">
        <ele>1872.735</ele>
        <time>2022-07-03T12:19:50Z</time>
      </trkpt>
      <trkpt lat="42.90091" lon="0.20541">
        <ele>1871.067</ele>
        <time>2022-07-03T12:19:56Z</time>
      </trkpt>
      <trkpt lat="42.90093" lon="0.20547">
        <ele>1869.292</ele>
        <time>2022-07-03T12:20:02Z</time>
      </trkpt>
      <trkpt lat="42.90096" lon="0.20552">
        <ele>1867.415</ele>
        <time>2022-07-03T12:20:07Z</time>
      </trkpt>
      <trkpt lat="42.90099" lon="0.20557">
        <ele>1865.765</ele>
        <time>2022-07-03T12:20:12Z</time>
      </trkpt>
      <trkpt lat="42.90101" lon="0.20564">
        <ele>1864.411</ele>
        <time>2022-07-03T12:20:17Z</time>
      </trkpt>
      <trkpt lat="42.90103" lon="0.2057">
        <ele>1863.109</ele>
        <time>2022-07-03T12:20:22Z</time>
      </trkpt>
      <trkpt lat="42.90105" lon="0.20575">
        <ele>1861.842</ele>
        <time>2022-07-03T12:20:28Z</time>
      </trkpt>
      <trkpt lat="42.90108" lon="0.20582">
        <ele>1860.351</ele>
        <time>2022-07-03T12:20:33Z</time>
      </trkpt>
      <trkpt lat="42.90109" lon="0.20588">
        <ele>1858.818</ele>
        <time>2022-07-03T12:20:38Z</time>
      </trkpt>
      <trkpt lat="42.90112" lon="0.20595">
        <ele>1857.431</ele>
        <time>2022-07-03T12:20:44Z</time>
      </trkpt>
      <trkpt lat="42.90114" lon="0.20601">
        <ele>1855.921</ele>
        <time>2022-07-03T12:20:49Z</time>
      </trkpt>
      <trkpt lat="42.90116" lon="0.20608">
        <ele>1854.649</ele>
        <time>2022-07-03T12:20:54Z</time>
      </trkpt>
      <trkpt lat="42.90119" lon="0.20614">
        <ele>1853.441</ele>
        <time>2022-07-03T12:20:58Z</time>
      </trkpt>
      <trkpt lat="42.90122" lon="0.2062">
        <ele>1852.283</ele>
        <time>2022-07-03T12:21:04Z</time>
      </trkpt>
      <trkpt lat="42.90125" lon="0.20626">
        <ele>1851.048</ele>
        <time>2022-07-03T12:21:09Z</time>
      </trkpt>
      <trkpt lat="42.90127" lon="0.20633">
        <ele>1849.163</ele>
        <time>2022-07-03T12:21:14Z</time>
      </trkpt>
      <trkpt lat="42.90129" lon="0.2064">
        <ele>1848.044</ele>
        <time>2022-07-03T12:21:19Z</time>
      </trkpt>
      <trkpt lat="42.9013" lon="0.20646">
        <ele>1847.318</ele>
        <time>2022-07-03T12:21:25Z</time>
      </trkpt>
      <trkpt lat="42.90132" lon="0.20653">
        <ele>1845.809</ele>
        <time>2022-07-03T12:21:30Z</time>
      </trkpt>
      <trkpt lat="42.90134" lon="0.2066">
        <ele>1844.427</ele>
        <time>2022-07-03T12:21:35Z</time>
      </trkpt>
      <trkpt lat="42.90136" lon="0.20665">
        <ele>1843.246</ele>
        <time>2022-07-03T12:21:40Z</time>
      </trkpt>
      <trkpt lat="42.9014" lon="0.2067">
        <ele>1841.933</ele>
        <time>2022-07-03T12:21:45Z</time>
      </trkpt>
      <trkpt lat="42.90143" lon="0.20676">
        <ele>1840.676</ele>
        <time>2022-07-03T12:21:50Z</time>
      </trkpt>
      <trkpt lat="42.90146" lon="0.20681">
        <ele>1839.376</ele>
        <time>2022-07-03T12:21:55Z</time>
      </trkpt>
      <trkpt lat="42.90148" lon="0.20688">
        <ele>1838.044</ele>
        <time>2022-07-03T12:22:00Z</time>
      </trkpt>
      <trkpt lat="42.90149" lon="0.20694">
        <ele>1836.966</ele>
        <time>2022-07-03T12:22:05Z</time>
      </trkpt>
      <trkpt lat="42.90152" lon="0.20701">
        <ele>1835.898</ele>
        <time>2022-07-03T12:22:09Z</time>
      </trkpt>
      <trkpt lat="42.90155" lon="0.20708">
        <ele>1834.663</ele>
        <time>2022-07-03T12:22:14Z</time>
      </trkpt>
      <trkpt lat="42.90157" lon="0.20713">
        <ele>1833.531</ele>
        <time>2022-07-03T12:22:18Z</time>
      </trkpt>
      <trkpt lat="42.90159" lon="0.20719">
        <ele>1832.761</ele>
        <time>2022-07-03T12:22:23Z</time>
      </trkpt>
      <trkpt lat="42.90162" lon="0.20725">
        <ele>1831.807</ele>
        <time>2022-07-03T12:22:28Z</time>
      </trkpt>
      <trkpt lat="42.90164" lon="0.20732">
        <ele>1830.509</ele>
        <time>2022-07-03T12:25:54Z</time>
      </trkpt>
      <trkpt lat="42.90169" lon="0.20733">
        <ele>1829.284</ele>
        <time>2022-07-03T12:29:45Z</time>
      </trkpt>
      <trkpt lat="42.90172" lon="0.20738">
        <ele>1827.533</ele>
        <time>2022-07-03T12:29:52Z</time>
      </trkpt>
      <trkpt lat="42.90176" lon="0.20741">
        <ele>1826.47</ele>
        <time>2022-07-03T12:30:00Z</time>
      </trkpt>
      <trkpt lat="42.9018" lon="0.20743">
        <ele>1825.883</ele>
        <time>2022-07-03T12:30:07Z</time>
      </trkpt>
      <trkpt lat="42.90185" lon="0.20745">
        <ele>1824.673</ele>
        <time>2022-07-03T12:30:13Z</time>
      </trkpt>
      <trkpt lat="42.90184" lon="0.20752">
        <ele>1823.221</ele>
        <time>2022-07-03T12:30:20Z</time>
      </trkpt>
      <trkpt lat="42.90182" lon="0.20757">
        <ele>1821.833</ele>
        <time>2022-07-03T12:30:24Z</time>
      </trkpt>
      <trkpt lat="42.90177" lon="0.2076">
        <ele>1820.275</ele>
        <time>2022-07-03T12:30:32Z</time>
      </trkpt>
      <trkpt lat="42.90173" lon="0.20762">
        <ele>1818.63</ele>
        <time>2022-07-03T12:30:37Z</time>
      </trkpt>
      <trkpt lat="42.90169" lon="0.20766">
        <ele>1817.318</ele>
        <time>2022-07-03T12:30:42Z</time>
      </trkpt>
      <trkpt lat="42.90168" lon="0.20773">
        <ele>1816.198</ele>
        <time>2022-07-03T12:30:49Z</time>
      </trkpt>
      <trkpt lat="42.90171" lon="0.20779">
        <ele>1814.917</ele>
        <time>2022-07-03T12:30:55Z</time>
      </trkpt>
      <trkpt lat="42.90171" lon="0.20786">
        <ele>1813.209</ele>
        <time>2022-07-03T12:31:01Z</time>
      </trkpt>
      <trkpt lat="42.90171" lon="0.20793">
        <ele>1811.462</ele>
        <time>2022-07-03T12:31:08Z</time>
      </trkpt>
      <trkpt lat="42.90175" lon="0.20796">
        <ele>1809.831</ele>
        <time>2022-07-03T12:31:17Z</time>
      </trkpt>
      <trkpt lat="42.9018" lon="0.20796">
        <ele>1807.758</ele>
        <time>2022-07-03T12:31:23Z</time>
      </trkpt>
      <trkpt lat="42.90185" lon="0.20797">
        <ele>1805.421</ele>
        <time>2022-07-03T12:31:29Z</time>
      </trkpt>
      <trkpt lat="42.9019" lon="0.208">
        <ele>1803.831</ele>
        <time>2022-07-03T12:31:36Z</time>
      </trkpt>
      <trkpt lat="42.90194" lon="0.20803">
        <ele>1802.729</ele>
        <time>2022-07-03T12:31:43Z</time>
      </trkpt>
      <trkpt lat="42.90199" lon="0.20804">
        <ele>1801.031</ele>
        <time>2022-07-03T12:31:49Z</time>
      </trkpt>
      <trkpt lat="42.90205" lon="0.20803">
        <ele>1799.043</ele>
        <time>2022-07-03T12:31:55Z</time>
      </trkpt>
      <trkpt lat="42.9021" lon="0.20804">
        <ele>1797.438</ele>
        <time>2022-07-03T12:31:59Z</time>
      </trkpt>
      <trkpt lat="42.90212" lon="0.20809">
        <ele>1796.045</ele>
        <time>2022-07-03T12:32:04Z</time>
      </trkpt>
      <trkpt lat="42.90215" lon="0.20814">
        <ele>1794.547</ele>
        <time>2022-07-03T12:32:10Z</time>
      </trkpt>
      <trkpt lat="42.90216" lon="0.2082">
        <ele>1793.211</ele>
        <time>2022-07-03T12:32:15Z</time>
      </trkpt>
      <trkpt lat="42.9022" lon="0.20824">
        <ele>1792.009</ele>
        <time>2022-07-03T12:32:22Z</time>
      </trkpt>
      <trkpt lat="42.90219" lon="0.2083">
        <ele>1790.625</ele>
        <time>2022-07-03T12:32:26Z</time>
      </trkpt>
      <trkpt lat="42.90217" lon="0.20837">
        <ele>1788.584</ele>
        <time>2022-07-03T12:32:31Z</time>
      </trkpt>
      <trkpt lat="42.90219" lon="0.20843">
        <ele>1786.941</ele>
        <time>2022-07-03T12:32:38Z</time>
      </trkpt>
      <trkpt lat="42.90223" lon="0.20847">
        <ele>1786.074</ele>
        <time>2022-07-03T12:32:46Z</time>
      </trkpt>
      <trkpt lat="42.90228" lon="0.20843">
        <ele>1784.454</ele>
        <time>2022-07-03T12:32:52Z</time>
      </trkpt>
      <trkpt lat="42.90232" lon="0.20847">
        <ele>1782.422</ele>
        <time>2022-07-03T12:33:00Z</time>
      </trkpt>
      <trkpt lat="42.90237" lon="0.20846">
        <ele>1780.324</ele>
        <time>2022-07-03T12:33:05Z</time>
      </trkpt>
      <trkpt lat="42.90242" lon="0.20845">
        <ele>1778.236</ele>
        <time>2022-07-03T12:33:10Z</time>
      </trkpt>
      <trkpt lat="42.90247" lon="0.20845">
        <ele>1776.661</ele>
        <time>2022-07-03T12:33:15Z</time>
      </trkpt>
      <trkpt lat="42.90251" lon="0.20841">
        <ele>1775.272</ele>
        <time>2022-07-03T12:33:18Z</time>
      </trkpt>
      <trkpt lat="42.90256" lon="0.20838">
        <ele>1773.913</ele>
        <time>2022-07-03T12:33:22Z</time>
      </trkpt>
      <trkpt lat="42.90272" lon="0.20844">
        <ele>1772.714</ele>
        <time>2022-07-03T12:34:11Z</time>
      </trkpt>
      <trkpt lat="42.90277" lon="0.20844">
        <ele>1767.509</ele>
        <time>2022-07-03T12:34:19Z</time>
      </trkpt>
      <trkpt lat="42.9028" lon="0.2085">
        <ele>1759.568</ele>
        <time>2022-07-03T12:34:31Z</time>
      </trkpt>
      <trkpt lat="42.90284" lon="0.20852">
        <ele>1758.577</ele>
        <time>2022-07-03T12:34:53Z</time>
      </trkpt>
      <trkpt lat="42.90289" lon="0.20854">
        <ele>1757.534</ele>
        <time>2022-07-03T12:34:59Z</time>
      </trkpt>
      <trkpt lat="42.90288" lon="0.20861">
        <ele>1755.197</ele>
        <time>2022-07-03T12:35:10Z</time>
      </trkpt>
      <trkpt lat="42.90293" lon="0.20862">
        <ele>1752.127</ele>
        <time>2022-07-03T12:35:19Z</time>
      </trkpt>
      <trkpt lat="42.90297" lon="0.20865">
        <ele>1750.655</ele>
        <time>2022-07-03T12:35:24Z</time>
      </trkpt>
      <trkpt lat="42.90303" lon="0.20865">
        <ele>1748.967</ele>
        <time>2022-07-03T12:35:28Z</time>
      </trkpt>
      <trkpt lat="42.90307" lon="0.20865">
        <ele>1747.539</ele>
        <time>2022-07-03T12:35:31Z</time>
      </trkpt>
      <trkpt lat="42.90312" lon="0.2087">
        <ele>1746.794</ele>
        <time>2022-07-03T12:35:36Z</time>
      </trkpt>
      <trkpt lat="42.90316" lon="0.20873">
        <ele>1746.139</ele>
        <time>2022-07-03T12:35:40Z</time>
      </trkpt>
      <trkpt lat="42.9032" lon="0.20877">
        <ele>1746.101</ele>
        <time>2022-07-03T12:35:47Z</time>
      </trkpt>
      <trkpt lat="42.90323" lon="0.20881">
        <ele>1746.121</ele>
        <time>2022-07-03T12:35:54Z</time>
      </trkpt>
      <trkpt lat="42.90328" lon="0.20884">
        <ele>1746.209</ele>
        <time>2022-07-03T12:36:00Z</time>
      </trkpt>
      <trkpt lat="42.90332" lon="0.20884">
        <ele>1746.874</ele>
        <time>2022-07-03T12:36:07Z</time>
      </trkpt>
      <trkpt lat="42.90337" lon="0.20887">
        <ele>1746.813</ele>
        <time>2022-07-03T12:36:15Z</time>
      </trkpt>
      <trkpt lat="42.9034" lon="0.20891">
        <ele>1746.86</ele>
        <time>2022-07-03T12:36:21Z</time>
      </trkpt>
      <trkpt lat="42.90345" lon="0.20893">
        <ele>1746.213</ele>
        <time>2022-07-03T12:36:28Z</time>
      </trkpt>
      <trkpt lat="42.9035" lon="0.20897">
        <ele>1745.073</ele>
        <time>2022-07-03T12:36:33Z</time>
      </trkpt>
      <trkpt lat="42.90354" lon="0.209">
        <ele>1743.961</ele>
        <time>2022-07-03T12:36:37Z</time>
      </trkpt>
      <trkpt lat="42.90359" lon="0.20903">
        <ele>1742.723</ele>
        <time>2022-07-03T12:36:42Z</time>
      </trkpt>
      <trkpt lat="42.90362" lon="0.20906">
        <ele>1741.865</ele>
        <time>2022-07-03T12:36:47Z</time>
      </trkpt>
      <trkpt lat="42.90367" lon="0.20911">
        <ele>1740.89</ele>
        <time>2022-07-03T12:36:52Z</time>
      </trkpt>
      <trkpt lat="42.9037" lon="0.20916">
        <ele>1739.613</ele>
        <time>2022-07-03T12:36:58Z</time>
      </trkpt>
      <trkpt lat="42.90375" lon="0.20916">
        <ele>1738.543</ele>
        <time>2022-07-03T12:37:02Z</time>
      </trkpt>
      <trkpt lat="42.9038" lon="0.20917">
        <ele>1737.107</ele>
        <time>2022-07-03T12:37:08Z</time>
      </trkpt>
      <trkpt lat="42.90385" lon="0.20919">
        <ele>1735.909</ele>
        <time>2022-07-03T12:37:13Z</time>
      </trkpt>
      <trkpt lat="42.90388" lon="0.20924">
        <ele>1734.972</ele>
        <time>2022-07-03T12:37:18Z</time>
      </trkpt>
      <trkpt lat="42.90392" lon="0.20928">
        <ele>1733.991</ele>
        <time>2022-07-03T12:37:25Z</time>
      </trkpt>
      <trkpt lat="42.90393" lon="0.20934">
        <ele>1733.178</ele>
        <time>2022-07-03T12:37:32Z</time>
      </trkpt>
      <trkpt lat="42.90397" lon="0.20938">
        <ele>1731.681</ele>
        <time>2022-07-03T12:37:38Z</time>
      </trkpt>
      <trkpt lat="42.90402" lon="0.20938">
        <ele>1729.861</ele>
        <time>2022-07-03T12:37:44Z</time>
      </trkpt>
      <trkpt lat="42.90406" lon="0.20943">
        <ele>1728.439</ele>
        <time>2022-07-03T12:37:51Z</time>
      </trkpt>
      <trkpt lat="42.90411" lon="0.20944">
        <ele>1727.151</ele>
        <time>2022-07-03T12:37:55Z</time>
      </trkpt>
      <trkpt lat="42.90415" lon="0.20947">
        <ele>1725.963</ele>
        <time>2022-07-03T12:38:01Z</time>
      </trkpt>
      <trkpt lat="42.9042" lon="0.20952">
        <ele>1725.118</ele>
        <time>2022-07-03T12:38:07Z</time>
      </trkpt>
      <trkpt lat="42.90425" lon="0.20952">
        <ele>1724.197</ele>
        <time>2022-07-03T12:38:12Z</time>
      </trkpt>
      <trkpt lat="42.9043" lon="0.20953">
        <ele>1722.623</ele>
        <time>2022-07-03T12:38:18Z</time>
      </trkpt>
      <trkpt lat="42.90435" lon="0.20953">
        <ele>1721.125</ele>
        <time>2022-07-03T12:38:22Z</time>
      </trkpt>
      <trkpt lat="42.9044" lon="0.20955">
        <ele>1719.809</ele>
        <time>2022-07-03T12:38:26Z</time>
      </trkpt>
      <trkpt lat="42.90445" lon="0.20959">
        <ele>1718.84</ele>
        <time>2022-07-03T12:38:32Z</time>
      </trkpt>
      <trkpt lat="42.90448" lon="0.20965">
        <ele>1718.189</ele>
        <time>2022-07-03T12:38:36Z</time>
      </trkpt>
      <trkpt lat="42.90451" lon="0.2097">
        <ele>1717.016</ele>
        <time>2022-07-03T12:38:42Z</time>
      </trkpt>
      <trkpt lat="42.90452" lon="0.20976">
        <ele>1716.069</ele>
        <time>2022-07-03T12:41:30Z</time>
      </trkpt>
      <trkpt lat="42.90457" lon="0.20975">
        <ele>1715.689</ele>
        <time>2022-07-03T12:41:36Z</time>
      </trkpt>
      <trkpt lat="42.90459" lon="0.20969">
        <ele>1715.487</ele>
        <time>2022-07-03T12:41:41Z</time>
      </trkpt>
      <trkpt lat="42.90457" lon="0.20962">
        <ele>1714.689</ele>
        <time>2022-07-03T12:41:46Z</time>
      </trkpt>
      <trkpt lat="42.90461" lon="0.20956">
        <ele>1713.251</ele>
        <time>2022-07-03T12:41:53Z</time>
      </trkpt>
      <trkpt lat="42.90465" lon="0.20953">
        <ele>1711.866</ele>
        <time>2022-07-03T12:41:58Z</time>
      </trkpt>
      <trkpt lat="42.90469" lon="0.2095">
        <ele>1710.287</ele>
        <time>2022-07-03T12:42:05Z</time>
      </trkpt>
      <trkpt lat="42.90474" lon="0.20952">
        <ele>1708.742</ele>
        <time>2022-07-03T12:42:12Z</time>
      </trkpt>
      <trkpt lat="42.90475" lon="0.20958">
        <ele>1707.526</ele>
        <time>2022-07-03T12:42:19Z</time>
      </trkpt>
      <trkpt lat="42.90479" lon="0.2096">
        <ele>1705.909</ele>
        <time>2022-07-03T12:42:28Z</time>
      </trkpt>
      <trkpt lat="42.90484" lon="0.20961">
        <ele>1703.739</ele>
        <time>2022-07-03T12:42:35Z</time>
      </trkpt>
      <trkpt lat="42.90488" lon="0.20963">
        <ele>1701.528</ele>
        <time>2022-07-03T12:42:44Z</time>
      </trkpt>
      <trkpt lat="42.90492" lon="0.20959">
        <ele>1699.645</ele>
        <time>2022-07-03T12:42:51Z</time>
      </trkpt>
      <trkpt lat="42.90496" lon="0.20955">
        <ele>1697.118</ele>
        <time>2022-07-03T12:42:56Z</time>
      </trkpt>
      <trkpt lat="42.90499" lon="0.20949">
        <ele>1694.768</ele>
        <time>2022-07-03T12:43:00Z</time>
      </trkpt>
      <trkpt lat="42.90504" lon="0.20945">
        <ele>1693.256</ele>
        <time>2022-07-03T12:43:06Z</time>
      </trkpt>
      <trkpt lat="42.90508" lon="0.20944">
        <ele>1691.738</ele>
        <time>2022-07-03T12:43:11Z</time>
      </trkpt>
      <trkpt lat="42.90507" lon="0.20936">
        <ele>1690.32</ele>
        <time>2022-07-03T12:43:18Z</time>
      </trkpt>
      <trkpt lat="42.90511" lon="0.20933">
        <ele>1688.885</ele>
        <time>2022-07-03T12:43:27Z</time>
      </trkpt>
      <trkpt lat="42.90516" lon="0.2093">
        <ele>1687.037</ele>
        <time>2022-07-03T12:43:38Z</time>
      </trkpt>
      <trkpt lat="42.90518" lon="0.20924">
        <ele>1685.249</ele>
        <time>2022-07-03T12:43:43Z</time>
      </trkpt>
      <trkpt lat="42.90523" lon="0.20922">
        <ele>1682.613</ele>
        <time>2022-07-03T12:43:50Z</time>
      </trkpt>
      <trkpt lat="42.90528" lon="0.20922">
        <ele>1679.909</ele>
        <time>2022-07-03T12:44:01Z</time>
      </trkpt>
      <trkpt lat="42.90532" lon="0.20918">
        <ele>1678.684</ele>
        <time>2022-07-03T12:44:12Z</time>
      </trkpt>
      <trkpt lat="42.90538" lon="0.20917">
        <ele>1676.963</ele>
        <time>2022-07-03T12:44:19Z</time>
      </trkpt>
      <trkpt lat="42.90542" lon="0.20916">
        <ele>1674.34</ele>
        <time>2022-07-03T12:44:25Z</time>
      </trkpt>
      <trkpt lat="42.90548" lon="0.20915">
        <ele>1672.073</ele>
        <time>2022-07-03T12:44:31Z</time>
      </trkpt>
      <trkpt lat="42.90552" lon="0.20914">
        <ele>1670.483</ele>
        <time>2022-07-03T12:44:36Z</time>
      </trkpt>
      <trkpt lat="42.90557" lon="0.20913">
        <ele>1668.921</ele>
        <time>2022-07-03T12:44:41Z</time>
      </trkpt>
      <trkpt lat="42.90561" lon="0.20915">
        <ele>1667.463</ele>
        <time>2022-07-03T12:44:46Z</time>
      </trkpt>
      <trkpt lat="42.90565" lon="0.20921">
        <ele>1666.085</ele>
        <time>2022-07-03T12:44:55Z</time>
      </trkpt>
      <trkpt lat="42.90564" lon="0.20927">
        <ele>1664.77</ele>
        <time>2022-07-03T12:45:03Z</time>
      </trkpt>
      <trkpt lat="42.90565" lon="0.20933">
        <ele>1662.842</ele>
        <time>2022-07-03T12:45:09Z</time>
      </trkpt>
      <trkpt lat="42.90563" lon="0.20939">
        <ele>1660.322</ele>
        <time>2022-07-03T12:45:17Z</time>
      </trkpt>
      <trkpt lat="42.9056" lon="0.20945">
        <ele>1658.514</ele>
        <time>2022-07-03T12:45:24Z</time>
      </trkpt>
      <trkpt lat="42.90557" lon="0.2095">
        <ele>1656.709</ele>
        <time>2022-07-03T12:45:28Z</time>
      </trkpt>
      <trkpt lat="42.90554" lon="0.20955">
        <ele>1654.535</ele>
        <time>2022-07-03T12:45:32Z</time>
      </trkpt>
      <trkpt lat="42.90554" lon="0.20962">
        <ele>1652.934</ele>
        <time>2022-07-03T12:45:39Z</time>
      </trkpt>
      <trkpt lat="42.90552" lon="0.20968">
        <ele>1652.161</ele>
        <time>2022-07-03T12:45:46Z</time>
      </trkpt>
      <trkpt lat="42.90551" lon="0.20975">
        <ele>1651.124</ele>
        <time>2022-07-03T12:45:53Z</time>
      </trkpt>
      <trkpt lat="42.90551" lon="0.20982">
        <ele>1649.434</ele>
        <time>2022-07-03T12:46:00Z</time>
      </trkpt>
      <trkpt lat="42.9055" lon="0.20988">
        <ele>1647.982</ele>
        <time>2022-07-03T12:46:06Z</time>
      </trkpt>
      <trkpt lat="42.90548" lon="0.20996">
        <ele>1646.474</ele>
        <time>2022-07-03T12:46:11Z</time>
      </trkpt>
      <trkpt lat="42.90546" lon="0.21003">
        <ele>1644.646</ele>
        <time>2022-07-03T12:46:16Z</time>
      </trkpt>
      <trkpt lat="42.90546" lon="0.2101">
        <ele>1643.081</ele>
        <time>2022-07-03T12:46:21Z</time>
      </trkpt>
      <trkpt lat="42.90544" lon="0.21016">
        <ele>1641.927</ele>
        <time>2022-07-03T12:46:26Z</time>
      </trkpt>
      <trkpt lat="42.90542" lon="0.21021">
        <ele>1641.068</ele>
        <time>2022-07-03T12:46:30Z</time>
      </trkpt>
      <trkpt lat="42.90543" lon="0.21027">
        <ele>1639.914</ele>
        <time>2022-07-03T12:46:36Z</time>
      </trkpt>
      <trkpt lat="42.9054" lon="0.21033">
        <ele>1639.009</ele>
        <time>2022-07-03T12:46:43Z</time>
      </trkpt>
      <trkpt lat="42.90537" lon="0.21038">
        <ele>1637.963</ele>
        <time>2022-07-03T12:46:48Z</time>
      </trkpt>
      <trkpt lat="42.90536" lon="0.21045">
        <ele>1636.022</ele>
        <time>2022-07-03T12:46:53Z</time>
      </trkpt>
      <trkpt lat="42.90536" lon="0.21051">
        <ele>1634.569</ele>
        <time>2022-07-03T12:46:59Z</time>
      </trkpt>
      <trkpt lat="42.90535" lon="0.21058">
        <ele>1633.992</ele>
        <time>2022-07-03T12:47:04Z</time>
      </trkpt>
      <trkpt lat="42.90532" lon="0.21064">
        <ele>1632.982</ele>
        <time>2022-07-03T12:47:09Z</time>
      </trkpt>
      <trkpt lat="42.90532" lon="0.21071">
        <ele>1631.45</ele>
        <time>2022-07-03T12:47:15Z</time>
      </trkpt>
      <trkpt lat="42.9053" lon="0.21078">
        <ele>1630.082</ele>
        <time>2022-07-03T12:47:21Z</time>
      </trkpt>
      <trkpt lat="42.90532" lon="0.21085">
        <ele>1628.724</ele>
        <time>2022-07-03T12:47:27Z</time>
      </trkpt>
      <trkpt lat="42.90535" lon="0.21088">
        <ele>1627.199</ele>
        <time>2022-07-03T12:47:32Z</time>
      </trkpt>
      <trkpt lat="42.9054" lon="0.21088">
        <ele>1625.448</ele>
        <time>2022-07-03T12:47:36Z</time>
      </trkpt>
      <trkpt lat="42.90545" lon="0.21088">
        <ele>1624.161</ele>
        <time>2022-07-03T12:47:40Z</time>
      </trkpt>
      <trkpt lat="42.90551" lon="0.21087">
        <ele>1623.017</ele>
        <time>2022-07-03T12:47:44Z</time>
      </trkpt>
      <trkpt lat="42.90555" lon="0.21083">
        <ele>1622.209</ele>
        <time>2022-07-03T12:47:48Z</time>
      </trkpt>
      <trkpt lat="42.9056" lon="0.21083">
        <ele>1621.345</ele>
        <time>2022-07-03T12:47:54Z</time>
      </trkpt>
      <trkpt lat="42.90562" lon="0.21088">
        <ele>1620.374</ele>
        <time>2022-07-03T12:47:57Z</time>
      </trkpt>
      <trkpt lat="42.90566" lon="0.21092">
        <ele>1619.251</ele>
        <time>2022-07-03T12:48:00Z</time>
      </trkpt>
      <trkpt lat="42.90571" lon="0.21093">
        <ele>1618.274</ele>
        <time>2022-07-03T12:48:04Z</time>
      </trkpt>
      <trkpt lat="42.90575" lon="0.21095">
        <ele>1617.984</ele>
        <time>2022-07-03T12:48:08Z</time>
      </trkpt>
      <trkpt lat="42.90581" lon="0.21094">
        <ele>1617.572</ele>
        <time>2022-07-03T12:48:15Z</time>
      </trkpt>
      <trkpt lat="42.90585" lon="0.21097">
        <ele>1617.014</ele>
        <time>2022-07-03T12:48:19Z</time>
      </trkpt>
      <trkpt lat="42.90588" lon="0.211">
        <ele>1616.056</ele>
        <time>2022-07-03T12:48:24Z</time>
      </trkpt>
      <trkpt lat="42.90592" lon="0.21103">
        <ele>1614.971</ele>
        <time>2022-07-03T12:48:28Z</time>
      </trkpt>
      <trkpt lat="42.90598" lon="0.21105">
        <ele>1614.182</ele>
        <time>2022-07-03T12:48:35Z</time>
      </trkpt>
      <trkpt lat="42.90602" lon="0.21106">
        <ele>1612.843</ele>
        <time>2022-07-03T12:48:39Z</time>
      </trkpt>
      <trkpt lat="42.90609" lon="0.21105">
        <ele>1610.917</ele>
        <time>2022-07-03T12:48:46Z</time>
      </trkpt>
      <trkpt lat="42.90611" lon="0.21112">
        <ele>1609.409</ele>
        <time>2022-07-03T12:48:53Z</time>
      </trkpt>
      <trkpt lat="42.90613" lon="0.21118">
        <ele>1608.259</ele>
        <time>2022-07-03T12:48:57Z</time>
      </trkpt>
      <trkpt lat="42.90617" lon="0.21119">
        <ele>1606.548</ele>
        <time>2022-07-03T12:49:00Z</time>
      </trkpt>
      <trkpt lat="42.90622" lon="0.21121">
        <ele>1605.335</ele>
        <time>2022-07-03T12:49:03Z</time>
      </trkpt>
      <trkpt lat="42.90627" lon="0.21122">
        <ele>1604.688</ele>
        <time>2022-07-03T12:49:07Z</time>
      </trkpt>
      <trkpt lat="42.90632" lon="0.21124">
        <ele>1604.088</ele>
        <time>2022-07-03T12:49:12Z</time>
      </trkpt>
      <trkpt lat="42.90638" lon="0.21124">
        <ele>1603.676</ele>
        <time>2022-07-03T12:49:17Z</time>
      </trkpt>
      <trkpt lat="42.90643" lon="0.21125">
        <ele>1603.328</ele>
        <time>2022-07-03T12:49:21Z</time>
      </trkpt>
      <trkpt lat="42.90648" lon="0.21124">
        <ele>1602.78</ele>
        <time>2022-07-03T12:49:25Z</time>
      </trkpt>
      <trkpt lat="42.90653" lon="0.21125">
        <ele>1601.945</ele>
        <time>2022-07-03T12:49:29Z</time>
      </trkpt>
      <trkpt lat="42.90658" lon="0.21128">
        <ele>1601.333</ele>
        <time>2022-07-03T12:49:33Z</time>
      </trkpt>
      <trkpt lat="42.90663" lon="0.2113">
        <ele>1600.623</ele>
        <time>2022-07-03T12:49:38Z</time>
      </trkpt>
      <trkpt lat="42.90668" lon="0.21131">
        <ele>1600.015</ele>
        <time>2022-07-03T12:49:43Z</time>
      </trkpt>
      <trkpt lat="42.90673" lon="0.2113">
        <ele>1599.509</ele>
        <time>2022-07-03T12:49:47Z</time>
      </trkpt>
      <trkpt lat="42.90679" lon="0.21128">
        <ele>1598.744</ele>
        <time>2022-07-03T12:49:52Z</time>
      </trkpt>
      <trkpt lat="42.90684" lon="0.21126">
        <ele>1597.923</ele>
        <time>2022-07-03T12:49:56Z</time>
      </trkpt>
      <trkpt lat="42.90689" lon="0.21125">
        <ele>1597.09</ele>
        <time>2022-07-03T12:50:01Z</time>
      </trkpt>
      <trkpt lat="42.90694" lon="0.21128">
        <ele>1596.293</ele>
        <time>2022-07-03T12:50:06Z</time>
      </trkpt>
      <trkpt lat="42.90698" lon="0.21132">
        <ele>1595.323</ele>
        <time>2022-07-03T12:50:13Z</time>
      </trkpt>
      <trkpt lat="42.907" lon="0.21137">
        <ele>1594.411</ele>
        <time>2022-07-03T12:50:20Z</time>
      </trkpt>
      <trkpt lat="42.90704" lon="0.21141">
        <ele>1593.353</ele>
        <time>2022-07-03T12:50:25Z</time>
      </trkpt>
      <trkpt lat="42.90708" lon="0.21146">
        <ele>1591.555</ele>
        <time>2022-07-03T12:50:29Z</time>
      </trkpt>
      <trkpt lat="42.9071" lon="0.21152">
        <ele>1590.07</ele>
        <time>2022-07-03T12:50:33Z</time>
      </trkpt>
      <trkpt lat="42.90713" lon="0.21158">
        <ele>1589.376</ele>
        <time>2022-07-03T12:50:39Z</time>
      </trkpt>
      <trkpt lat="42.90716" lon="0.21164">
        <ele>1588.69</ele>
        <time>2022-07-03T12:50:44Z</time>
      </trkpt>
      <trkpt lat="42.9072" lon="0.21169">
        <ele>1587.619</ele>
        <time>2022-07-03T12:50:48Z</time>
      </trkpt>
      <trkpt lat="42.90722" lon="0.21175">
        <ele>1586.309</ele>
        <time>2022-07-03T12:50:53Z</time>
      </trkpt>
      <trkpt lat="42.90722" lon="0.21182">
        <ele>1585.038</ele>
        <time>2022-07-03T12:50:58Z</time>
      </trkpt>
      <trkpt lat="42.90723" lon="0.21188">
        <ele>1584.257</ele>
        <time>2022-07-03T12:51:02Z</time>
      </trkpt>
      <trkpt lat="42.90728" lon="0.21191">
        <ele>1583.934</ele>
        <time>2022-07-03T12:51:28Z</time>
      </trkpt>
      <trkpt lat="42.90731" lon="0.21197">
        <ele>1583.817</ele>
        <time>2022-07-03T12:51:33Z</time>
      </trkpt>
      <trkpt lat="42.90732" lon="0.21203">
        <ele>1583.727</ele>
        <time>2022-07-03T12:51:37Z</time>
      </trkpt>
      <trkpt lat="42.90738" lon="0.21205">
        <ele>1583.565</ele>
        <time>2022-07-03T12:51:41Z</time>
      </trkpt>
      <trkpt lat="42.90741" lon="0.21209">
        <ele>1583.337</ele>
        <time>2022-07-03T12:51:45Z</time>
      </trkpt>
      <trkpt lat="42.90744" lon="0.21215">
        <ele>1583.139</ele>
        <time>2022-07-03T12:51:49Z</time>
      </trkpt>
      <trkpt lat="42.90747" lon="0.2122">
        <ele>1582.824</ele>
        <time>2022-07-03T12:51:53Z</time>
      </trkpt>
      <trkpt lat="42.9075" lon="0.21225">
        <ele>1582.579</ele>
        <time>2022-07-03T12:51:58Z</time>
      </trkpt>
      <trkpt lat="42.90753" lon="0.21231">
        <ele>1582.005</ele>
        <time>2022-07-03T12:52:03Z</time>
      </trkpt>
      <trkpt lat="42.90754" lon="0.21238">
        <ele>1581.625</ele>
        <time>2022-07-03T12:52:07Z</time>
      </trkpt>
      <trkpt lat="42.90756" lon="0.21245">
        <ele>1581.309</ele>
        <time>2022-07-03T12:52:11Z</time>
      </trkpt>
      <trkpt lat="42.90758" lon="0.21251">
        <ele>1580.888</ele>
        <time>2022-07-03T12:52:16Z</time>
      </trkpt>
      <trkpt lat="42.90758" lon="0.21259">
        <ele>1580.097</ele>
        <time>2022-07-03T12:52:22Z</time>
      </trkpt>
      <trkpt lat="42.90761" lon="0.21264">
        <ele>1579.534</ele>
        <time>2022-07-03T12:52:27Z</time>
      </trkpt>
      <trkpt lat="42.90762" lon="0.21271">
        <ele>1579.467</ele>
        <time>2022-07-03T12:52:31Z</time>
      </trkpt>
      <trkpt lat="42.90764" lon="0.21276">
        <ele>1579.077</ele>
        <time>2022-07-03T12:52:36Z</time>
      </trkpt>
      <trkpt lat="42.90767" lon="0.21281">
        <ele>1578.695</ele>
        <time>2022-07-03T12:52:40Z</time>
      </trkpt>
      <trkpt lat="42.90772" lon="0.21284">
        <ele>1578.567</ele>
        <time>2022-07-03T12:52:46Z</time>
      </trkpt>
      <trkpt lat="42.90776" lon="0.21288">
        <ele>1578.449</ele>
        <time>2022-07-03T12:52:52Z</time>
      </trkpt>
      <trkpt lat="42.90781" lon="0.2129">
        <ele>1578.234</ele>
        <time>2022-07-03T12:52:57Z</time>
      </trkpt>
      <trkpt lat="42.90784" lon="0.21295">
        <ele>1577.761</ele>
        <time>2022-07-03T12:53:02Z</time>
      </trkpt>
      <trkpt lat="42.90789" lon="0.21296">
        <ele>1576.921</ele>
        <time>2022-07-03T12:53:05Z</time>
      </trkpt>
      <trkpt lat="42.90792" lon="0.21301">
        <ele>1576.113</ele>
        <time>2022-07-03T12:53:09Z</time>
      </trkpt>
      <trkpt lat="42.90796" lon="0.21304">
        <ele>1575.509</ele>
        <time>2022-07-03T12:53:13Z</time>
      </trkpt>
      <trkpt lat="42.90801" lon="0.21307">
        <ele>1575.517</ele>
        <time>2022-07-03T12:53:18Z</time>
      </trkpt>
      <trkpt lat="42.90806" lon="0.21307">
        <ele>1575.566</ele>
        <time>2022-07-03T12:53:23Z</time>
      </trkpt>
      <trkpt lat="42.90809" lon="0.21313">
        <ele>1575.683</ele>
        <time>2022-07-03T12:53:29Z</time>
      </trkpt>
      <trkpt lat="42.90813" lon="0.21316">
        <ele>1576.076</ele>
        <time>2022-07-03T12:53:34Z</time>
      </trkpt>
      <trkpt lat="42.90817" lon="0.21319">
        <ele>1576.146</ele>
        <time>2022-07-03T12:53:39Z</time>
      </trkpt>
      <trkpt lat="42.9082" lon="0.21324">
        <ele>1576.154</ele>
        <time>2022-07-03T12:53:43Z</time>
      </trkpt>
      <trkpt lat="42.90823" lon="0.2133">
        <ele>1576.156</ele>
        <time>2022-07-03T12:53:48Z</time>
      </trkpt>
      <trkpt lat="42.90827" lon="0.21334">
        <ele>1575.978</ele>
        <time>2022-07-03T12:53:52Z</time>
      </trkpt>
      <trkpt lat="42.90832" lon="0.21339">
        <ele>1575.363</ele>
        <time>2022-07-03T12:53:57Z</time>
      </trkpt>
      <trkpt lat="42.90835" lon="0.21344">
        <ele>1574.975</ele>
        <time>2022-07-03T12:54:02Z</time>
      </trkpt>
      <trkpt lat="42.90838" lon="0.21348">
        <ele>1574.628</ele>
        <time>2022-07-03T12:54:06Z</time>
      </trkpt>
      <trkpt lat="42.90842" lon="0.21353">
        <ele>1574.22</ele>
        <time>2022-07-03T12:54:10Z</time>
      </trkpt>
      <trkpt lat="42.90845" lon="0.21359">
        <ele>1573.909</ele>
        <time>2022-07-03T12:54:15Z</time>
      </trkpt>
      <trkpt lat="42.9085" lon="0.21362">
        <ele>1573.568</ele>
        <time>2022-07-03T12:54:20Z</time>
      </trkpt>
      <trkpt lat="42.90854" lon="0.21366">
        <ele>1573.287</ele>
        <time>2022-07-03T12:54:24Z</time>
      </trkpt>
      <trkpt lat="42.90858" lon="0.21371">
        <ele>1572.884</ele>
        <time>2022-07-03T12:54:28Z</time>
      </trkpt>
      <trkpt lat="42.90859" lon="0.21377">
        <ele>1572.157</ele>
        <time>2022-07-03T12:54:33Z</time>
      </trkpt>
      <trkpt lat="42.90862" lon="0.21382">
        <ele>1571.447</ele>
        <time>2022-07-03T12:54:37Z</time>
      </trkpt>
      <trkpt lat="42.90866" lon="0.21387">
        <ele>1571.045</ele>
        <time>2022-07-03T12:54:41Z</time>
      </trkpt>
      <trkpt lat="42.90869" lon="0.21392">
        <ele>1570.777</ele>
        <time>2022-07-03T12:54:46Z</time>
      </trkpt>
      <trkpt lat="42.90874" lon="0.21392">
        <ele>1570.489</ele>
        <time>2022-07-03T12:54:50Z</time>
      </trkpt>
      <trkpt lat="42.9088" lon="0.21393">
        <ele>1570.124</ele>
        <time>2022-07-03T12:54:55Z</time>
      </trkpt>
      <trkpt lat="42.90884" lon="0.21397">
        <ele>1569.784</ele>
        <time>2022-07-03T12:55:01Z</time>
      </trkpt>
      <trkpt lat="42.90888" lon="0.21402">
        <ele>1569.107</ele>
        <time>2022-07-03T12:55:06Z</time>
      </trkpt>
      <trkpt lat="42.90893" lon="0.21405">
        <ele>1568.517</ele>
        <time>2022-07-03T12:55:10Z</time>
      </trkpt>
      <trkpt lat="42.90894" lon="0.21411">
        <ele>1567.909</ele>
        <time>2022-07-03T12:55:15Z</time>
      </trkpt>
      <trkpt lat="42.90898" lon="0.21417">
        <ele>1567.339</ele>
        <time>2022-07-03T12:55:21Z</time>
      </trkpt>
      <trkpt lat="42.90903" lon="0.2142">
        <ele>1566.888</ele>
        <time>2022-07-03T12:55:25Z</time>
      </trkpt>
      <trkpt lat="42.90905" lon="0.21425">
        <ele>1566.485</ele>
        <time>2022-07-03T12:55:29Z</time>
      </trkpt>
      <trkpt lat="42.90911" lon="0.21429">
        <ele>1565.848</ele>
        <time>2022-07-03T12:55:36Z</time>
      </trkpt>
      <trkpt lat="42.90915" lon="0.21433">
        <ele>1565.468</ele>
        <time>2022-07-03T12:55:40Z</time>
      </trkpt>
      <trkpt lat="42.90917" lon="0.21438">
        <ele>1565.346</ele>
        <time>2022-07-03T12:55:43Z</time>
      </trkpt>
      <trkpt lat="42.90923" lon="0.2144">
        <ele>1565.238</ele>
        <time>2022-07-03T12:55:49Z</time>
      </trkpt>
      <trkpt lat="42.90927" lon="0.21441">
        <ele>1565.26</ele>
        <time>2022-07-03T12:55:53Z</time>
      </trkpt>
      <trkpt lat="42.90932" lon="0.21444">
        <ele>1565.095</ele>
        <time>2022-07-03T12:55:58Z</time>
      </trkpt>
      <trkpt lat="42.90937" lon="0.21446">
        <ele>1564.843</ele>
        <time>2022-07-03T12:56:02Z</time>
      </trkpt>
      <trkpt lat="42.90942" lon="0.21449">
        <ele>1564.764</ele>
        <time>2022-07-03T12:56:06Z</time>
      </trkpt>
      <trkpt lat="42.90946" lon="0.21452">
        <ele>1564.71</ele>
        <time>2022-07-03T12:56:11Z</time>
      </trkpt>
      <trkpt lat="42.90951" lon="0.21454">
        <ele>1564.409</ele>
        <time>2022-07-03T12:56:17Z</time>
      </trkpt>
      <trkpt lat="42.90954" lon="0.21459">
        <ele>1564.055</ele>
        <time>2022-07-03T12:56:21Z</time>
      </trkpt>
      <trkpt lat="42.90959" lon="0.21462">
        <ele>1563.284</ele>
        <time>2022-07-03T12:56:25Z</time>
      </trkpt>
      <trkpt lat="42.90963" lon="0.21467">
        <ele>1561.921</ele>
        <time>2022-07-03T12:56:29Z</time>
      </trkpt>
      <trkpt lat="42.90966" lon="0.2147">
        <ele>1561.144</ele>
        <time>2022-07-03T12:56:34Z</time>
      </trkpt>
      <trkpt lat="42.90972" lon="0.21474">
        <ele>1560.784</ele>
        <time>2022-07-03T12:56:39Z</time>
      </trkpt>
      <trkpt lat="42.90976" lon="0.21477">
        <ele>1560.352</ele>
        <time>2022-07-03T12:56:44Z</time>
      </trkpt>
      <trkpt lat="42.90981" lon="0.2148">
        <ele>1559.784</ele>
        <time>2022-07-03T12:56:49Z</time>
      </trkpt>
      <trkpt lat="42.90986" lon="0.21483">
        <ele>1559.086</ele>
        <time>2022-07-03T12:56:54Z</time>
      </trkpt>
      <trkpt lat="42.9099" lon="0.21487">
        <ele>1558.241</ele>
        <time>2022-07-03T12:56:58Z</time>
      </trkpt>
      <trkpt lat="42.90995" lon="0.2149">
        <ele>1557.362</ele>
        <time>2022-07-03T12:57:02Z</time>
      </trkpt>
      <trkpt lat="42.91" lon="0.21493">
        <ele>1556.783</ele>
        <time>2022-07-03T12:57:07Z</time>
      </trkpt>
      <trkpt lat="42.91005" lon="0.21495">
        <ele>1556.411</ele>
        <time>2022-07-03T12:57:11Z</time>
      </trkpt>
      <trkpt lat="42.91008" lon="0.21501">
        <ele>1556.109</ele>
        <time>2022-07-03T12:57:15Z</time>
      </trkpt>
      <trkpt lat="42.91011" lon="0.21508">
        <ele>1555.957</ele>
        <time>2022-07-03T12:57:20Z</time>
      </trkpt>
      <trkpt lat="42.91016" lon="0.21509">
        <ele>1555.866</ele>
        <time>2022-07-03T12:57:25Z</time>
      </trkpt>
      <trkpt lat="42.91021" lon="0.21509">
        <ele>1555.793</ele>
        <time>2022-07-03T12:57:29Z</time>
      </trkpt>
      <trkpt lat="42.91025" lon="0.21513">
        <ele>1555.476</ele>
        <time>2022-07-03T12:57:34Z</time>
      </trkpt>
      <trkpt lat="42.91028" lon="0.21519">
        <ele>1555.066</ele>
        <time>2022-07-03T12:57:38Z</time>
      </trkpt>
      <trkpt lat="42.9103" lon="0.21525">
        <ele>1554.574</ele>
        <time>2022-07-03T12:57:43Z</time>
      </trkpt>
      <trkpt lat="42.91034" lon="0.21528">
        <ele>1553.676</ele>
        <time>2022-07-03T12:57:48Z</time>
      </trkpt>
      <trkpt lat="42.9104" lon="0.21529">
        <ele>1552.578</ele>
        <time>2022-07-03T12:57:53Z</time>
      </trkpt>
      <trkpt lat="42.91046" lon="0.2153">
        <ele>1551.563</ele>
        <time>2022-07-03T12:57:58Z</time>
      </trkpt>
      <trkpt lat="42.91051" lon="0.21532">
        <ele>1550.874</ele>
        <time>2022-07-03T12:58:02Z</time>
      </trkpt>
      <trkpt lat="42.91055" lon="0.21535">
        <ele>1550.556</ele>
        <time>2022-07-03T12:58:11Z</time>
      </trkpt>
      <trkpt lat="42.91059" lon="0.21538">
        <ele>1550.321</ele>
        <time>2022-07-03T12:58:18Z</time>
      </trkpt>
      <trkpt lat="42.91064" lon="0.21537">
        <ele>1549.509</ele>
        <time>2022-07-03T12:58:23Z</time>
      </trkpt>
      <trkpt lat="42.9107" lon="0.21539">
        <ele>1548.378</ele>
        <time>2022-07-03T12:58:29Z</time>
      </trkpt>
      <trkpt lat="42.91075" lon="0.21538">
        <ele>1547.317</ele>
        <time>2022-07-03T12:58:33Z</time>
      </trkpt>
      <trkpt lat="42.91079" lon="0.21535">
        <ele>1546.454</ele>
        <time>2022-07-03T12:58:37Z</time>
      </trkpt>
      <trkpt lat="42.91084" lon="0.21531">
        <ele>1545.827</ele>
        <time>2022-07-03T12:58:41Z</time>
      </trkpt>
      <trkpt lat="42.91087" lon="0.21525">
        <ele>1545.617</ele>
        <time>2022-07-03T12:58:46Z</time>
      </trkpt>
      <trkpt lat="42.91089" lon="0.21519">
        <ele>1545.665</ele>
        <time>2022-07-03T12:58:51Z</time>
      </trkpt>
      <trkpt lat="42.91091" lon="0.21513">
        <ele>1545.617</ele>
        <time>2022-07-03T12:58:56Z</time>
      </trkpt>
      <trkpt lat="42.91093" lon="0.21507">
        <ele>1545.929</ele>
        <time>2022-07-03T12:59:02Z</time>
      </trkpt>
      <trkpt lat="42.91096" lon="0.21501">
        <ele>1546.974</ele>
        <time>2022-07-03T12:59:08Z</time>
      </trkpt>
      <trkpt lat="42.911" lon="0.21497">
        <ele>1548.552</ele>
        <time>2022-07-03T12:59:14Z</time>
      </trkpt>
      <trkpt lat="42.91105" lon="0.21496">
        <ele>1550.453</ele>
        <time>2022-07-03T12:59:18Z</time>
      </trkpt>
      <trkpt lat="42.9111" lon="0.21493">
        <ele>1551.908</ele>
        <time>2022-07-03T12:59:22Z</time>
      </trkpt>
      <trkpt lat="42.91113" lon="0.21489">
        <ele>1552.609</ele>
        <time>2022-07-03T12:59:26Z</time>
      </trkpt>
      <trkpt lat="42.91116" lon="0.21484">
        <ele>1552.756</ele>
        <time>2022-07-03T12:59:29Z</time>
      </trkpt>
      <trkpt lat="42.91121" lon="0.21482">
        <ele>1552.825</ele>
        <time>2022-07-03T12:59:33Z</time>
      </trkpt>
      <trkpt lat="42.91126" lon="0.21477">
        <ele>1552.962</ele>
        <time>2022-07-03T12:59:39Z</time>
      </trkpt>
      <trkpt lat="42.9113" lon="0.21473">
        <ele>1553.115</ele>
        <time>2022-07-03T12:59:46Z</time>
      </trkpt>
      <trkpt lat="42.91134" lon="0.21477">
        <ele>1553.165</ele>
        <time>2022-07-03T13:00:06Z</time>
      </trkpt>
      <trkpt lat="42.91137" lon="0.21482">
        <ele>1553.183</ele>
        <time>2022-07-03T13:00:12Z</time>
      </trkpt>
      <trkpt lat="42.91141" lon="0.21486">
        <ele>1553.165</ele>
        <time>2022-07-03T13:00:17Z</time>
      </trkpt>
      <trkpt lat="42.91144" lon="0.21491">
        <ele>1552.477</ele>
        <time>2022-07-03T13:00:21Z</time>
      </trkpt>
      <trkpt lat="42.91148" lon="0.21496">
        <ele>1551.422</ele>
        <time>2022-07-03T13:00:25Z</time>
      </trkpt>
      <trkpt lat="42.91152" lon="0.21501">
        <ele>1550.744</ele>
        <time>2022-07-03T13:00:29Z</time>
      </trkpt>
      <trkpt lat="42.91157" lon="0.21504">
        <ele>1549.805</ele>
        <time>2022-07-03T13:00:33Z</time>
      </trkpt>
      <trkpt lat="42.91162" lon="0.21508">
        <ele>1548.915</ele>
        <time>2022-07-03T13:00:37Z</time>
      </trkpt>
      <trkpt lat="42.91166" lon="0.21511">
        <ele>1548.409</ele>
        <time>2022-07-03T13:00:41Z</time>
      </trkpt>
      <trkpt lat="42.91171" lon="0.21514">
        <ele>1548.085</ele>
        <time>2022-07-03T13:00:45Z</time>
      </trkpt>
      <trkpt lat="42.91175" lon="0.21518">
        <ele>1547.924</ele>
        <time>2022-07-03T13:00:49Z</time>
      </trkpt>
      <trkpt lat="42.91178" lon="0.21523">
        <ele>1547.961</ele>
        <time>2022-07-03T13:00:54Z</time>
      </trkpt>
      <trkpt lat="42.91179" lon="0.21529">
        <ele>1547.934</ele>
        <time>2022-07-03T13:00:58Z</time>
      </trkpt>
      <trkpt lat="42.91178" lon="0.21536">
        <ele>1548.054</ele>
        <time>2022-07-03T13:01:02Z</time>
      </trkpt>
      <trkpt lat="42.91183" lon="0.21538">
        <ele>1548.052</ele>
        <time>2022-07-03T13:01:08Z</time>
      </trkpt>
      <trkpt lat="42.91187" lon="0.21542">
        <ele>1548.014</ele>
        <time>2022-07-03T13:01:13Z</time>
      </trkpt>
      <trkpt lat="42.9119" lon="0.21547">
        <ele>1547.836</ele>
        <time>2022-07-03T13:01:17Z</time>
      </trkpt>
      <trkpt lat="42.91194" lon="0.21552">
        <ele>1546.951</ele>
        <time>2022-07-03T13:01:21Z</time>
      </trkpt>
      <trkpt lat="42.91198" lon="0.21557">
        <ele>1546.158</ele>
        <time>2022-07-03T13:01:25Z</time>
      </trkpt>
      <trkpt lat="42.91201" lon="0.21563">
        <ele>1545.552</ele>
        <time>2022-07-03T13:01:29Z</time>
      </trkpt>
      <trkpt lat="42.91205" lon="0.21567">
        <ele>1545.017</ele>
        <time>2022-07-03T13:01:33Z</time>
      </trkpt>
      <trkpt lat="42.9121" lon="0.2157">
        <ele>1544.609</ele>
        <time>2022-07-03T13:01:37Z</time>
      </trkpt>
      <trkpt lat="42.91214" lon="0.21574">
        <ele>1544.336</ele>
        <time>2022-07-03T13:01:41Z</time>
      </trkpt>
      <trkpt lat="42.91219" lon="0.21577">
        <ele>1544.345</ele>
        <time>2022-07-03T13:01:46Z</time>
      </trkpt>
      <trkpt lat="42.91224" lon="0.2158">
        <ele>1544.392</ele>
        <time>2022-07-03T13:01:50Z</time>
      </trkpt>
      <trkpt lat="42.91228" lon="0.21583">
        <ele>1544.365</ele>
        <time>2022-07-03T13:01:54Z</time>
      </trkpt>
      <trkpt lat="42.91233" lon="0.21585">
        <ele>1544.465</ele>
        <time>2022-07-03T13:01:59Z</time>
      </trkpt>
      <trkpt lat="42.91238" lon="0.21588">
        <ele>1544.793</ele>
        <time>2022-07-03T13:02:04Z</time>
      </trkpt>
      <trkpt lat="42.91243" lon="0.2159">
        <ele>1545.265</ele>
        <time>2022-07-03T13:02:08Z</time>
      </trkpt>
      <trkpt lat="42.91248" lon="0.21593">
        <ele>1545.727</ele>
        <time>2022-07-03T13:02:13Z</time>
      </trkpt>
      <trkpt lat="42.91252" lon="0.21596">
        <ele>1546.072</ele>
        <time>2022-07-03T13:02:17Z</time>
      </trkpt>
      <trkpt lat="42.91257" lon="0.21598">
        <ele>1546.349</ele>
        <time>2022-07-03T13:02:21Z</time>
      </trkpt>
      <trkpt lat="42.91262" lon="0.216">
        <ele>1546.702</ele>
        <time>2022-07-03T13:02:26Z</time>
      </trkpt>
      <trkpt lat="42.91266" lon="0.21603">
        <ele>1547.022</ele>
        <time>2022-07-03T13:02:30Z</time>
      </trkpt>
      <trkpt lat="42.91272" lon="0.21605">
        <ele>1547.209</ele>
        <time>2022-07-03T13:02:35Z</time>
      </trkpt>
      <trkpt lat="42.91276" lon="0.21609">
        <ele>1547.445</ele>
        <time>2022-07-03T13:02:39Z</time>
      </trkpt>
      <trkpt lat="42.9128" lon="0.21613">
        <ele>1547.724</ele>
        <time>2022-07-03T13:02:43Z</time>
      </trkpt>
      <trkpt lat="42.91285" lon="0.21617">
        <ele>1547.941</ele>
        <time>2022-07-03T13:02:48Z</time>
      </trkpt>
      <trkpt lat="42.9129" lon="0.21621">
        <ele>1548.154</ele>
        <time>2022-07-03T13:02:53Z</time>
      </trkpt>
      <trkpt lat="42.91294" lon="0.21622">
        <ele>1548.384</ele>
        <time>2022-07-03T13:02:56Z</time>
      </trkpt>
      <trkpt lat="42.91299" lon="0.21626">
        <ele>1548.742</ele>
        <time>2022-07-03T13:03:00Z</time>
      </trkpt>
      <trkpt lat="42.91304" lon="0.21626">
        <ele>1548.914</ele>
        <time>2022-07-03T13:03:04Z</time>
      </trkpt>
      <trkpt lat="42.91309" lon="0.21627">
        <ele>1548.926</ele>
        <time>2022-07-03T13:03:08Z</time>
      </trkpt>
      <trkpt lat="42.91314" lon="0.21628">
        <ele>1548.961</ele>
        <time>2022-07-03T13:03:12Z</time>
      </trkpt>
      <trkpt lat="42.91318" lon="0.21631">
        <ele>1548.887</ele>
        <time>2022-07-03T13:03:16Z</time>
      </trkpt>
      <trkpt lat="42.91323" lon="0.21634">
        <ele>1548.642</ele>
        <time>2022-07-03T13:03:20Z</time>
      </trkpt>
      <trkpt lat="42.91328" lon="0.21638">
        <ele>1548.526</ele>
        <time>2022-07-03T13:03:24Z</time>
      </trkpt>
      <trkpt lat="42.91332" lon="0.21641">
        <ele>1548.509</ele>
        <time>2022-07-03T13:03:28Z</time>
      </trkpt>
      <trkpt lat="42.91338" lon="0.21642">
        <ele>1548.559</ele>
        <time>2022-07-03T13:03:32Z</time>
      </trkpt>
      <trkpt lat="42.91344" lon="0.21643">
        <ele>1548.668</ele>
        <time>2022-07-03T13:03:37Z</time>
      </trkpt>
      <trkpt lat="42.91348" lon="0.21649">
        <ele>1548.955</ele>
        <time>2022-07-03T13:03:42Z</time>
      </trkpt>
      <trkpt lat="42.91352" lon="0.21652">
        <ele>1549.218</ele>
        <time>2022-07-03T13:03:46Z</time>
      </trkpt>
      <trkpt lat="42.91356" lon="0.21655">
        <ele>1549.438</ele>
        <time>2022-07-03T13:03:50Z</time>
      </trkpt>
      <trkpt lat="42.91361" lon="0.21658">
        <ele>1549.596</ele>
        <time>2022-07-03T13:03:54Z</time>
      </trkpt>
      <trkpt lat="42.91366" lon="0.21661">
        <ele>1549.728</ele>
        <time>2022-07-03T13:03:58Z</time>
      </trkpt>
      <trkpt lat="42.9137" lon="0.21663">
        <ele>1549.84</ele>
        <time>2022-07-03T13:04:02Z</time>
      </trkpt>
      <trkpt lat="42.91375" lon="0.21666">
        <ele>1549.885</ele>
        <time>2022-07-03T13:04:06Z</time>
      </trkpt>
      <trkpt lat="42.91381" lon="0.21669">
        <ele>1549.888</ele>
        <time>2022-07-03T13:04:11Z</time>
      </trkpt>
      <trkpt lat="42.91386" lon="0.21673">
        <ele>1549.624</ele>
        <time>2022-07-03T13:04:16Z</time>
      </trkpt>
      <trkpt lat="42.9139" lon="0.21675">
        <ele>1549.326</ele>
        <time>2022-07-03T13:04:20Z</time>
      </trkpt>
      <trkpt lat="42.91396" lon="0.21676">
        <ele>1548.709</ele>
        <time>2022-07-03T13:04:24Z</time>
      </trkpt>
      <trkpt lat="42.91401" lon="0.21679">
        <ele>1548.269</ele>
        <time>2022-07-03T13:04:28Z</time>
      </trkpt>
      <trkpt lat="42.91405" lon="0.21681">
        <ele>1548.178</ele>
        <time>2022-07-03T13:04:32Z</time>
      </trkpt>
      <trkpt lat="42.91411" lon="0.21681">
        <ele>1547.865</ele>
        <time>2022-07-03T13:04:36Z</time>
      </trkpt>
      <trkpt lat="42.91416" lon="0.21682">
        <ele>1547.668</ele>
        <time>2022-07-03T13:04:40Z</time>
      </trkpt>
      <trkpt lat="42.9142" lon="0.21684">
        <ele>1547.518</ele>
        <time>2022-07-03T13:04:44Z</time>
      </trkpt>
      <trkpt lat="42.91425" lon="0.21685">
        <ele>1547.566</ele>
        <time>2022-07-03T13:04:47Z</time>
      </trkpt>
      <trkpt lat="42.9143" lon="0.21684">
        <ele>1547.428</ele>
        <time>2022-07-03T13:04:51Z</time>
      </trkpt>
      <trkpt lat="42.91435" lon="0.21683">
        <ele>1547.24</ele>
        <time>2022-07-03T13:04:55Z</time>
      </trkpt>
      <trkpt lat="42.9144" lon="0.21682">
        <ele>1547.075</ele>
        <time>2022-07-03T13:04:59Z</time>
      </trkpt>
      <trkpt lat="42.91445" lon="0.21682">
        <ele>1546.955</ele>
        <time>2022-07-03T13:05:03Z</time>
      </trkpt>
      <trkpt lat="42.9145" lon="0.21681">
        <ele>1546.907</ele>
        <time>2022-07-03T13:05:07Z</time>
      </trkpt>
      <trkpt lat="42.91456" lon="0.21681">
        <ele>1546.917</ele>
        <time>2022-07-03T13:05:12Z</time>
      </trkpt>
      <trkpt lat="42.91461" lon="0.2168">
        <ele>1546.909</ele>
        <time>2022-07-03T13:05:16Z</time>
      </trkpt>
      <trkpt lat="42.91466" lon="0.21678">
        <ele>1546.976</ele>
        <time>2022-07-03T13:05:20Z</time>
      </trkpt>
      <trkpt lat="42.9147" lon="0.21674">
        <ele>1546.945</ele>
        <time>2022-07-03T13:05:24Z</time>
      </trkpt>
      <trkpt lat="42.91475" lon="0.21669">
        <ele>1546.782</ele>
        <time>2022-07-03T13:05:29Z</time>
      </trkpt>
      <trkpt lat="42.91479" lon="0.21666">
        <ele>1546.665</ele>
        <time>2022-07-03T13:05:32Z</time>
      </trkpt>
      <trkpt lat="42.91483" lon="0.21661">
        <ele>1546.575</ele>
        <time>2022-07-03T13:05:37Z</time>
      </trkpt>
      <trkpt lat="42.91487" lon="0.21657">
        <ele>1546.553</ele>
        <time>2022-07-03T13:05:41Z</time>
      </trkpt>
      <trkpt lat="42.9149" lon="0.21652">
        <ele>1546.585</ele>
        <time>2022-07-03T13:05:45Z</time>
      </trkpt>
      <trkpt lat="42.91495" lon="0.21648">
        <ele>1546.437</ele>
        <time>2022-07-03T13:05:49Z</time>
      </trkpt>
      <trkpt lat="42.91499" lon="0.21644">
        <ele>1545.952</ele>
        <time>2022-07-03T13:06:05Z</time>
      </trkpt>
      <trkpt lat="42.91502" lon="0.21639">
        <ele>1545.525</ele>
        <time>2022-07-03T13:06:09Z</time>
      </trkpt>
      <trkpt lat="42.91506" lon="0.21633">
        <ele>1544.926</ele>
        <time>2022-07-03T13:06:13Z</time>
      </trkpt>
      <trkpt lat="42.9151" lon="0.21628">
        <ele>1544.408</ele>
        <time>2022-07-03T13:06:18Z</time>
      </trkpt>
      <trkpt lat="42.91514" lon="0.21624">
        <ele>1544.409</ele>
        <time>2022-07-03T13:06:21Z</time>
      </trkpt>
      <trkpt lat="42.91518" lon="0.21621">
        <ele>1544.433</ele>
        <time>2022-07-03T13:06:25Z</time>
      </trkpt>
      <trkpt lat="42.9152" lon="0.21615">
        <ele>1544.342</ele>
        <time>2022-07-03T13:06:29Z</time>
      </trkpt>
      <trkpt lat="42.91524" lon="0.21609">
        <ele>1544.329</ele>
        <time>2022-07-03T13:06:33Z</time>
      </trkpt>
      <trkpt lat="42.91527" lon="0.21602">
        <ele>1544.342</ele>
        <time>2022-07-03T13:06:38Z</time>
      </trkpt>
      <trkpt lat="42.91529" lon="0.21595">
        <ele>1544.322</ele>
        <time>2022-07-03T13:06:42Z</time>
      </trkpt>
      <trkpt lat="42.91533" lon="0.21589">
        <ele>1544.62</ele>
        <time>2022-07-03T13:06:47Z</time>
      </trkpt>
      <trkpt lat="42.91536" lon="0.21582">
        <ele>1544.612</ele>
        <time>2022-07-03T13:06:51Z</time>
      </trkpt>
      <trkpt lat="42.91538" lon="0.21576">
        <ele>1544.624</ele>
        <time>2022-07-03T13:06:56Z</time>
      </trkpt>
      <trkpt lat="42.9154" lon="0.21569">
        <ele>1544.559</ele>
        <time>2022-07-03T13:07:00Z</time>
      </trkpt>
      <trkpt lat="42.91541" lon="0.21563">
        <ele>1544.337</ele>
        <time>2022-07-03T13:07:04Z</time>
      </trkpt>
      <trkpt lat="42.91542" lon="0.21557">
        <ele>1544.249</ele>
        <time>2022-07-03T13:07:08Z</time>
      </trkpt>
      <trkpt lat="42.91545" lon="0.21551">
        <ele>1544.113</ele>
        <time>2022-07-03T13:07:11Z</time>
      </trkpt>
      <trkpt lat="42.91547" lon="0.21543">
        <ele>1544.009</ele>
        <time>2022-07-03T13:07:16Z</time>
      </trkpt>
      <trkpt lat="42.91549" lon="0.21537">
        <ele>1543.944</ele>
        <time>2022-07-03T13:07:21Z</time>
      </trkpt>
      <trkpt lat="42.91549" lon="0.2153">
        <ele>1543.763</ele>
        <time>2022-07-03T13:07:25Z</time>
      </trkpt>
      <trkpt lat="42.9155" lon="0.21524">
        <ele>1543.47</ele>
        <time>2022-07-03T13:07:29Z</time>
      </trkpt>
      <trkpt lat="42.91554" lon="0.21518">
        <ele>1543.013</ele>
        <time>2022-07-03T13:07:34Z</time>
      </trkpt>
      <trkpt lat="42.91556" lon="0.21512">
        <ele>1542.623</ele>
        <time>2022-07-03T13:07:38Z</time>
      </trkpt>
      <trkpt lat="42.91557" lon="0.21505">
        <ele>1542.141</ele>
        <time>2022-07-03T13:07:42Z</time>
      </trkpt>
      <trkpt lat="42.91561" lon="0.215">
        <ele>1541.583</ele>
        <time>2022-07-03T13:07:45Z</time>
      </trkpt>
      <trkpt lat="42.91562" lon="0.21494">
        <ele>1541.045</ele>
        <time>2022-07-03T13:07:49Z</time>
      </trkpt>
      <trkpt lat="42.91564" lon="0.21488">
        <ele>1540.64</ele>
        <time>2022-07-03T13:07:53Z</time>
      </trkpt>
      <trkpt lat="42.91566" lon="0.21483">
        <ele>1540.233</ele>
        <time>2022-07-03T13:07:57Z</time>
      </trkpt>
      <trkpt lat="42.91568" lon="0.21475">
        <ele>1539.823</ele>
        <time>2022-07-03T13:08:01Z</time>
      </trkpt>
      <trkpt lat="42.91569" lon="0.21469">
        <ele>1539.515</ele>
        <time>2022-07-03T13:08:04Z</time>
      </trkpt>
      <trkpt lat="42.91573" lon="0.21464">
        <ele>1539.309</ele>
        <time>2022-07-03T13:08:09Z</time>
      </trkpt>
      <trkpt lat="42.91574" lon="0.21458">
        <ele>1539.224</ele>
        <time>2022-07-03T13:08:14Z</time>
      </trkpt>
      <trkpt lat="42.91574" lon="0.21451">
        <ele>1539.083</ele>
        <time>2022-07-03T13:08:17Z</time>
      </trkpt>
      <trkpt lat="42.91576" lon="0.21445">
        <ele>1538.73</ele>
        <time>2022-07-03T13:08:23Z</time>
      </trkpt>
      <trkpt lat="42.91577" lon="0.21439">
        <ele>1538.443</ele>
        <time>2022-07-03T13:08:27Z</time>
      </trkpt>
      <trkpt lat="42.9158" lon="0.21434">
        <ele>1537.823</ele>
        <time>2022-07-03T13:08:31Z</time>
      </trkpt>
      <trkpt lat="42.91583" lon="0.21428">
        <ele>1537.281</ele>
        <time>2022-07-03T13:08:36Z</time>
      </trkpt>
      <trkpt lat="42.91585" lon="0.21421">
        <ele>1536.373</ele>
        <time>2022-07-03T13:08:40Z</time>
      </trkpt>
      <trkpt lat="42.91587" lon="0.21414">
        <ele>1534.935</ele>
        <time>2022-07-03T13:08:45Z</time>
      </trkpt>
      <trkpt lat="42.91587" lon="0.21408">
        <ele>1533.81</ele>
        <time>2022-07-03T13:08:50Z</time>
      </trkpt>
      <trkpt lat="42.91588" lon="0.21402">
        <ele>1532.719</ele>
        <time>2022-07-03T13:08:55Z</time>
      </trkpt>
      <trkpt lat="42.91592" lon="0.21399">
        <ele>1531.109</ele>
        <time>2022-07-03T13:08:59Z</time>
      </trkpt>
      <trkpt lat="42.91593" lon="0.21393">
        <ele>1529.419</ele>
        <time>2022-07-03T13:09:06Z</time>
      </trkpt>
      <trkpt lat="42.91593" lon="0.21386">
        <ele>1527.909</ele>
        <time>2022-07-03T13:09:13Z</time>
      </trkpt>
      <trkpt lat="42.91595" lon="0.21381">
        <ele>1526.642</ele>
        <time>2022-07-03T13:09:20Z</time>
      </trkpt>
      <trkpt lat="42.91593" lon="0.21376">
        <ele>1524.811</ele>
        <time>2022-07-03T13:09:26Z</time>
      </trkpt>
      <trkpt lat="42.91593" lon="0.21369">
        <ele>1522.878</ele>
        <time>2022-07-03T13:09:36Z</time>
      </trkpt>
      <trkpt lat="42.91591" lon="0.21363">
        <ele>1521.431</ele>
        <time>2022-07-03T13:09:44Z</time>
      </trkpt>
      <trkpt lat="42.91594" lon="0.21358">
        <ele>1519.281</ele>
        <time>2022-07-03T13:09:49Z</time>
      </trkpt>
      <trkpt lat="42.91591" lon="0.21353">
        <ele>1516.969</ele>
        <time>2022-07-03T13:09:57Z</time>
      </trkpt>
      <trkpt lat="42.91587" lon="0.2135">
        <ele>1515.581</ele>
        <time>2022-07-03T13:10:03Z</time>
      </trkpt>
      <trkpt lat="42.91589" lon="0.21345">
        <ele>1513.963</ele>
        <time>2022-07-03T13:10:09Z</time>
      </trkpt>
      <trkpt lat="42.91594" lon="0.21344">
        <ele>1511.778</ele>
        <time>2022-07-03T13:10:14Z</time>
      </trkpt>
      <trkpt lat="42.91597" lon="0.21338">
        <ele>1509.822</ele>
        <time>2022-07-03T13:10:23Z</time>
      </trkpt>
      <trkpt lat="42.91594" lon="0.21333">
        <ele>1508.562</ele>
        <time>2022-07-03T13:10:33Z</time>
      </trkpt>
      <trkpt lat="42.91593" lon="0.21326">
        <ele>1507.108</ele>
        <time>2022-07-03T13:10:44Z</time>
      </trkpt>
      <trkpt lat="42.91589" lon="0.21323">
        <ele>1505.009</ele>
        <time>2022-07-03T13:10:50Z</time>
      </trkpt>
      <trkpt lat="42.91587" lon="0.21317">
        <ele>1502.193</ele>
        <time>2022-07-03T13:10:54Z</time>
      </trkpt>
      <trkpt lat="42.91586" lon="0.2131">
        <ele>1499.952</ele>
        <time>2022-07-03T13:11:00Z</time>
      </trkpt>
      <trkpt lat="42.91584" lon="0.21304">
        <ele>1498.619</ele>
        <time>2022-07-03T13:11:08Z</time>
      </trkpt>
      <trkpt lat="42.9158" lon="0.21299">
        <ele>1497.012</ele>
        <time>2022-07-03T13:11:13Z</time>
      </trkpt>
      <trkpt lat="42.91577" lon="0.21293">
        <ele>1494.812</ele>
        <time>2022-07-03T13:11:19Z</time>
      </trkpt>
      <trkpt lat="42.91573" lon="0.21289">
        <ele>1492.85</ele>
        <time>2022-07-03T13:11:25Z</time>
      </trkpt>
      <trkpt lat="42.91573" lon="0.21282">
        <ele>1491.582</ele>
        <time>2022-07-03T13:11:31Z</time>
      </trkpt>
      <trkpt lat="42.91571" lon="0.21276">
        <ele>1489.954</ele>
        <time>2022-07-03T13:11:35Z</time>
      </trkpt>
      <trkpt lat="42.91571" lon="0.2127">
        <ele>1488.299</ele>
        <time>2022-07-03T13:11:40Z</time>
      </trkpt>
      <trkpt lat="42.91569" lon="0.21264">
        <ele>1486.523</ele>
        <time>2022-07-03T13:11:45Z</time>
      </trkpt>
      <trkpt lat="42.91567" lon="0.21258">
        <ele>1485.183</ele>
        <time>2022-07-03T13:11:49Z</time>
      </trkpt>
      <trkpt lat="42.91563" lon="0.21252">
        <ele>1483.911</ele>
        <time>2022-07-03T13:11:54Z</time>
      </trkpt>
      <trkpt lat="42.91564" lon="0.21245">
        <ele>1482.509</ele>
        <time>2022-07-03T13:11:59Z</time>
      </trkpt>
      <trkpt lat="42.91561" lon="0.2124">
        <ele>1481.463</ele>
        <time>2022-07-03T13:12:04Z</time>
      </trkpt>
      <trkpt lat="42.91562" lon="0.21233">
        <ele>1480.552</ele>
        <time>2022-07-03T13:12:10Z</time>
      </trkpt>
      <trkpt lat="42.91567" lon="0.21234">
        <ele>1479.639</ele>
        <time>2022-07-03T13:12:17Z</time>
      </trkpt>
      <trkpt lat="42.91571" lon="0.21233">
        <ele>1478.752</ele>
        <time>2022-07-03T13:12:22Z</time>
      </trkpt>
      <trkpt lat="42.91576" lon="0.21232">
        <ele>1477.732</ele>
        <time>2022-07-03T13:12:28Z</time>
      </trkpt>
      <trkpt lat="42.91578" lon="0.21226">
        <ele>1476.67</ele>
        <time>2022-07-03T13:12:33Z</time>
      </trkpt>
      <trkpt lat="42.91579" lon="0.2122">
        <ele>1475.572</ele>
        <time>2022-07-03T13:12:38Z</time>
      </trkpt>
      <trkpt lat="42.91574" lon="0.21216">
        <ele>1474.334</ele>
        <time>2022-07-03T13:12:44Z</time>
      </trkpt>
      <trkpt lat="42.91574" lon="0.21209">
        <ele>1473.389</ele>
        <time>2022-07-03T13:12:54Z</time>
      </trkpt>
      <trkpt lat="42.91573" lon="0.21202">
        <ele>1472.223</ele>
        <time>2022-07-03T13:13:02Z</time>
      </trkpt>
      <trkpt lat="42.91577" lon="0.21198">
        <ele>1470.583</ele>
        <time>2022-07-03T13:13:10Z</time>
      </trkpt>
      <trkpt lat="42.91576" lon="0.21192">
        <ele>1468.711</ele>
        <time>2022-07-03T13:13:19Z</time>
      </trkpt>
      <trkpt lat="42.91574" lon="0.21185">
        <ele>1466.609</ele>
        <time>2022-07-03T13:13:30Z</time>
      </trkpt>
      <trkpt lat="42.91572" lon="0.21179">
        <ele>1464.323</ele>
        <time>2022-07-03T13:13:37Z</time>
      </trkpt>
      <trkpt lat="42.91577" lon="0.21176">
        <ele>1462.342</ele>
        <time>2022-07-03T13:13:47Z</time>
      </trkpt>
      <trkpt lat="42.91573" lon="0.21171">
        <ele>1460.489</ele>
        <time>2022-07-03T13:14:02Z</time>
      </trkpt>
      <trkpt lat="42.91578" lon="0.21172">
        <ele>1458.622</ele>
        <time>2022-07-03T13:15:19Z</time>
      </trkpt>
      <trkpt lat="42.91582" lon="0.21169">
        <ele>1457.122</ele>
        <time>2022-07-03T13:15:27Z</time>
      </trkpt>
      <trkpt lat="42.91586" lon="0.21164">
        <ele>1456.54</ele>
        <time>2022-07-03T13:15:36Z</time>
      </trkpt>
      <trkpt lat="42.9159" lon="0.21165">
        <ele>1455.822</ele>
        <time>2022-07-03T13:15:40Z</time>
      </trkpt>
      <trkpt lat="42.91587" lon="0.21159">
        <ele>1453.864</ele>
        <time>2022-07-03T13:15:45Z</time>
      </trkpt>
      <trkpt lat="42.91587" lon="0.21153">
        <ele>1452.079</ele>
        <time>2022-07-03T13:15:50Z</time>
      </trkpt>
      <trkpt lat="42.91585" lon="0.21146">
        <ele>1450.966</ele>
        <time>2022-07-03T13:15:56Z</time>
      </trkpt>
      <trkpt lat="42.91589" lon="0.21144">
        <ele>1449.529</ele>
        <time>2022-07-03T13:16:02Z</time>
      </trkpt>
      <trkpt lat="42.91594" lon="0.21142">
        <ele>1448.121</ele>
        <time>2022-07-03T13:16:11Z</time>
      </trkpt>
      <trkpt lat="42.91594" lon="0.21136">
        <ele>1446.309</ele>
        <time>2022-07-03T13:16:16Z</time>
      </trkpt>
      <trkpt lat="42.91597" lon="0.21128">
        <ele>1444.297</ele>
        <time>2022-07-03T13:16:23Z</time>
      </trkpt>
      <trkpt lat="42.91596" lon="0.21121">
        <ele>1442.416</ele>
        <time>2022-07-03T13:16:29Z</time>
      </trkpt>
      <trkpt lat="42.91598" lon="0.21115">
        <ele>1440.633</ele>
        <time>2022-07-03T13:16:33Z</time>
      </trkpt>
      <trkpt lat="42.916" lon="0.21109">
        <ele>1438.776</ele>
        <time>2022-07-03T13:16:38Z</time>
      </trkpt>
      <trkpt lat="42.91602" lon="0.21102">
        <ele>1437.436</ele>
        <time>2022-07-03T13:16:42Z</time>
      </trkpt>
      <trkpt lat="42.91606" lon="0.21098">
        <ele>1436.394</ele>
        <time>2022-07-03T13:16:47Z</time>
      </trkpt>
      <trkpt lat="42.91606" lon="0.21091">
        <ele>1435.466</ele>
        <time>2022-07-03T13:16:51Z</time>
      </trkpt>
      <trkpt lat="42.91606" lon="0.21084">
        <ele>1434.418</ele>
        <time>2022-07-03T13:16:55Z</time>
      </trkpt>
      <trkpt lat="42.91606" lon="0.21078">
        <ele>1433.043</ele>
        <time>2022-07-03T13:16:59Z</time>
      </trkpt>
      <trkpt lat="42.91605" lon="0.21069">
        <ele>1432.034</ele>
        <time>2022-07-03T13:17:03Z</time>
      </trkpt>
      <trkpt lat="42.91608" lon="0.21063">
        <ele>1431.255</ele>
        <time>2022-07-03T13:17:09Z</time>
      </trkpt>
      <trkpt lat="42.91609" lon="0.21057">
        <ele>1430.11</ele>
        <time>2022-07-03T13:17:13Z</time>
      </trkpt>
      <trkpt lat="42.9161" lon="0.2105">
        <ele>1429.009</ele>
        <time>2022-07-03T13:17:17Z</time>
      </trkpt>
      <trkpt lat="42.91611" lon="0.21043">
        <ele>1428.174</ele>
        <time>2022-07-03T13:17:21Z</time>
      </trkpt>
      <trkpt lat="42.91613" lon="0.21037">
        <ele>1427.133</ele>
        <time>2022-07-03T13:17:25Z</time>
      </trkpt>
      <trkpt lat="42.91613" lon="0.21029">
        <ele>1425.86</ele>
        <time>2022-07-03T13:17:29Z</time>
      </trkpt>
      <trkpt lat="42.91617" lon="0.21024">
        <ele>1424.923</ele>
        <time>2022-07-03T13:17:33Z</time>
      </trkpt>
      <trkpt lat="42.91617" lon="0.21016">
        <ele>1423.743</ele>
        <time>2022-07-03T13:17:36Z</time>
      </trkpt>
      <trkpt lat="42.91622" lon="0.21014">
        <ele>1423.341</ele>
        <time>2022-07-03T13:17:40Z</time>
      </trkpt>
      <trkpt lat="42.91627" lon="0.21012">
        <ele>1423.363</ele>
        <time>2022-07-03T13:17:44Z</time>
      </trkpt>
      <trkpt lat="42.91629" lon="0.21007">
        <ele>1423.345</ele>
        <time>2022-07-03T13:17:50Z</time>
      </trkpt>
      <trkpt lat="42.91631" lon="0.21001">
        <ele>1423.38</ele>
        <time>2022-07-03T13:17:55Z</time>
      </trkpt>
      <trkpt lat="42.91631" lon="0.20991">
        <ele>1423.153</ele>
        <time>2022-07-03T13:18:01Z</time>
      </trkpt>
      <trkpt lat="42.91636" lon="0.20994">
        <ele>1423.004</ele>
        <time>2022-07-03T13:18:05Z</time>
      </trkpt>
      <trkpt lat="42.91641" lon="0.20993">
        <ele>1422.914</ele>
        <time>2022-07-03T13:18:09Z</time>
      </trkpt>
      <trkpt lat="42.91644" lon="0.20989">
        <ele>1421.909</ele>
        <time>2022-07-03T13:18:13Z</time>
      </trkpt>
      <trkpt lat="42.91645" lon="0.20983">
        <ele>1420.956</ele>
        <time>2022-07-03T13:18:18Z</time>
      </trkpt>
      <trkpt lat="42.91644" lon="0.20976">
        <ele>1420.095</ele>
        <time>2022-07-03T13:18:23Z</time>
      </trkpt>
      <trkpt lat="42.91647" lon="0.20971">
        <ele>1419.122</ele>
        <time>2022-07-03T13:18:27Z</time>
      </trkpt>
      <trkpt lat="42.91647" lon="0.20964">
        <ele>1418.275</ele>
        <time>2022-07-03T13:18:31Z</time>
      </trkpt>
      <trkpt lat="42.91653" lon="0.20962">
        <ele>1417.475</ele>
        <time>2022-07-03T13:18:43Z</time>
      </trkpt>
      <trkpt lat="42.91653" lon="0.20956">
        <ele>1416.433</ele>
        <time>2022-07-03T13:18:47Z</time>
      </trkpt>
      <trkpt lat="42.91652" lon="0.2095">
        <ele>1414.675</ele>
        <time>2022-07-03T13:18:54Z</time>
      </trkpt>
      <trkpt lat="42.91649" lon="0.20944">
        <ele>1413.867</ele>
        <time>2022-07-03T13:19:28Z</time>
      </trkpt>
      <trkpt lat="42.91652" lon="0.20952">
        <ele>1413.862</ele>
        <time>2022-07-03T13:19:42Z</time>
      </trkpt>
      <trkpt lat="42.91647" lon="0.2095">
        <ele>1413.832</ele>
        <time>2022-07-03T13:20:43Z</time>
      </trkpt>
      <trkpt lat="42.91643" lon="0.2095">
        <ele>1414.192</ele>
        <time>2022-07-03T13:20:49Z</time>
      </trkpt>
      <trkpt lat="42.91638" lon="0.20947">
        <ele>1414.811</ele>
        <time>2022-07-03T13:20:59Z</time>
      </trkpt>
      <trkpt lat="42.91637" lon="0.2094">
        <ele>1416.409</ele>
        <time>2022-07-03T13:21:05Z</time>
      </trkpt>
      <trkpt lat="42.91638" lon="0.20933">
        <ele>1418.444</ele>
        <time>2022-07-03T13:21:09Z</time>
      </trkpt>
      <trkpt lat="42.91639" lon="0.20927">
        <ele>1419.843</ele>
        <time>2022-07-03T13:21:14Z</time>
      </trkpt>
      <trkpt lat="42.91645" lon="0.2093">
        <ele>1420.23</ele>
        <time>2022-07-03T13:21:23Z</time>
      </trkpt>
      <trkpt lat="42.91649" lon="0.20931">
        <ele>1420.283</ele>
        <time>2022-07-03T13:21:29Z</time>
      </trkpt>
      <trkpt lat="42.91654" lon="0.20932">
        <ele>1420.293</ele>
        <time>2022-07-03T13:21:35Z</time>
      </trkpt>
      <trkpt lat="42.91659" lon="0.20932">
        <ele>1419.811</ele>
        <time>2022-07-03T13:21:42Z</time>
      </trkpt>
      <trkpt lat="42.91663" lon="0.20928">
        <ele>1419.043</ele>
        <time>2022-07-03T13:21:46Z</time>
      </trkpt>
      <trkpt lat="42.91662" lon="0.20922">
        <ele>1418.935</ele>
        <time>2022-07-03T13:21:53Z</time>
      </trkpt>
    </trkseg>
  </trk>
</gpx>